<?xml version="1.0" encoding="UTF-8" standalone="no" ?>
<gpx xmlns="http://www.topografix.com/GPX/1/1" xmlns:xsi="http://www.w3.org/2001/XMLSchema-instance" xsi:schemaLocation="http://www.topografix.com/GPX/1/1 http://www.topografix.com/GPX/1/1/gpx.xsd" version="1.1" creator="VisuGPX - https://www.visugpx.com">
  <metadata>
    <name>Chambon Entre Tardes et la VOUEIZE</name>
    <desc><![CDATA[Depart du parking de l office de tourisme puis direction thaury,st sornin,les gagneries,le pré gourgeat,chambon]]></desc>
  </metadata>
  <trk>
    <name><![CDATA[20180412182625-QH9qM]]></name>
    <trkseg>
      <trkpt lat="46.18883" lon="2.42505">
        <ele>331</ele>
        <time>2018-04-12T12:39:38Z</time>
      </trkpt>
      <trkpt lat="46.18864" lon="2.42533">
        <ele>331</ele>
        <time>2018-04-12T12:39:58Z</time>
      </trkpt>
      <trkpt lat="46.18862" lon="2.42538">
        <ele>331</ele>
        <time>2018-04-12T12:40:01Z</time>
      </trkpt>
      <trkpt lat="46.18861" lon="2.42543">
        <ele>331</ele>
        <time>2018-04-12T12:40:04Z</time>
      </trkpt>
      <trkpt lat="46.18859" lon="2.42547">
        <ele>331</ele>
        <time>2018-04-12T12:40:07Z</time>
      </trkpt>
      <trkpt lat="46.18859" lon="2.42551">
        <ele>331</ele>
        <time>2018-04-12T12:40:10Z</time>
      </trkpt>
      <trkpt lat="46.18859" lon="2.42556">
        <ele>331</ele>
        <time>2018-04-12T12:40:13Z</time>
      </trkpt>
      <trkpt lat="46.18858" lon="2.42561">
        <ele>331</ele>
        <time>2018-04-12T12:40:16Z</time>
      </trkpt>
      <trkpt lat="46.18858" lon="2.42565">
        <ele>331</ele>
        <time>2018-04-12T12:40:19Z</time>
      </trkpt>
      <trkpt lat="46.18856" lon="2.4257">
        <ele>331</ele>
        <time>2018-04-12T12:40:23Z</time>
      </trkpt>
      <trkpt lat="46.18856" lon="2.42575">
        <ele>331</ele>
        <time>2018-04-12T12:40:26Z</time>
      </trkpt>
      <trkpt lat="46.18855" lon="2.42576">
        <ele>331</ele>
        <time>2018-04-12T12:40:31Z</time>
      </trkpt>
      <trkpt lat="46.18854" lon="2.42575">
        <ele>331</ele>
        <time>2018-04-12T12:40:36Z</time>
      </trkpt>
      <trkpt lat="46.18853" lon="2.42577">
        <ele>331</ele>
        <time>2018-04-12T12:40:39Z</time>
      </trkpt>
      <trkpt lat="46.18852" lon="2.42581">
        <ele>331</ele>
        <time>2018-04-12T12:40:42Z</time>
      </trkpt>
      <trkpt lat="46.18851" lon="2.42586">
        <ele>331</ele>
        <time>2018-04-12T12:40:45Z</time>
      </trkpt>
      <trkpt lat="46.1885" lon="2.4259">
        <ele>331</ele>
        <time>2018-04-12T12:40:48Z</time>
      </trkpt>
      <trkpt lat="46.18848" lon="2.42596">
        <ele>331</ele>
        <time>2018-04-12T12:40:52Z</time>
      </trkpt>
      <trkpt lat="46.18847" lon="2.426">
        <ele>331</ele>
        <time>2018-04-12T12:40:55Z</time>
      </trkpt>
      <trkpt lat="46.18845" lon="2.42604">
        <ele>331</ele>
        <time>2018-04-12T12:41:01Z</time>
      </trkpt>
      <trkpt lat="46.18843" lon="2.42608">
        <ele>332</ele>
        <time>2018-04-12T12:41:05Z</time>
      </trkpt>
      <trkpt lat="46.18841" lon="2.42612">
        <ele>332</ele>
        <time>2018-04-12T12:41:08Z</time>
      </trkpt>
      <trkpt lat="46.18838" lon="2.42619">
        <ele>332</ele>
        <time>2018-04-12T12:41:11Z</time>
      </trkpt>
      <trkpt lat="46.18837" lon="2.42624">
        <ele>332</ele>
        <time>2018-04-12T12:41:14Z</time>
      </trkpt>
      <trkpt lat="46.18835" lon="2.42629">
        <ele>332</ele>
        <time>2018-04-12T12:41:17Z</time>
      </trkpt>
      <trkpt lat="46.18832" lon="2.42634">
        <ele>330</ele>
        <time>2018-04-12T12:41:21Z</time>
      </trkpt>
      <trkpt lat="46.18829" lon="2.42639">
        <ele>330</ele>
        <time>2018-04-12T12:41:24Z</time>
      </trkpt>
      <trkpt lat="46.18829" lon="2.42645">
        <ele>330</ele>
        <time>2018-04-12T12:41:27Z</time>
      </trkpt>
      <trkpt lat="46.18829" lon="2.42651">
        <ele>331</ele>
        <time>2018-04-12T12:41:30Z</time>
      </trkpt>
      <trkpt lat="46.1883" lon="2.42658">
        <ele>331</ele>
        <time>2018-04-12T12:41:33Z</time>
      </trkpt>
      <trkpt lat="46.18831" lon="2.42665">
        <ele>331</ele>
        <time>2018-04-12T12:41:36Z</time>
      </trkpt>
      <trkpt lat="46.18831" lon="2.4267">
        <ele>331</ele>
        <time>2018-04-12T12:41:39Z</time>
      </trkpt>
      <trkpt lat="46.18832" lon="2.42677">
        <ele>331</ele>
        <time>2018-04-12T12:41:42Z</time>
      </trkpt>
      <trkpt lat="46.18834" lon="2.42684">
        <ele>332</ele>
        <time>2018-04-12T12:41:45Z</time>
      </trkpt>
      <trkpt lat="46.18835" lon="2.42691">
        <ele>332</ele>
        <time>2018-04-12T12:41:48Z</time>
      </trkpt>
      <trkpt lat="46.18835" lon="2.42698">
        <ele>332</ele>
        <time>2018-04-12T12:41:51Z</time>
      </trkpt>
      <trkpt lat="46.18833" lon="2.42703">
        <ele>331</ele>
        <time>2018-04-12T12:41:54Z</time>
      </trkpt>
      <trkpt lat="46.18831" lon="2.42709">
        <ele>331</ele>
        <time>2018-04-12T12:41:57Z</time>
      </trkpt>
      <trkpt lat="46.18829" lon="2.42714">
        <ele>331</ele>
        <time>2018-04-12T12:42:00Z</time>
      </trkpt>
      <trkpt lat="46.18827" lon="2.42719">
        <ele>331</ele>
        <time>2018-04-12T12:42:03Z</time>
      </trkpt>
      <trkpt lat="46.18824" lon="2.42724">
        <ele>331</ele>
        <time>2018-04-12T12:42:06Z</time>
      </trkpt>
      <trkpt lat="46.18822" lon="2.42728">
        <ele>331</ele>
        <time>2018-04-12T12:42:09Z</time>
      </trkpt>
      <trkpt lat="46.1882" lon="2.42733">
        <ele>331</ele>
        <time>2018-04-12T12:42:12Z</time>
      </trkpt>
      <trkpt lat="46.18818" lon="2.4274">
        <ele>331</ele>
        <time>2018-04-12T12:42:16Z</time>
      </trkpt>
      <trkpt lat="46.18817" lon="2.42746">
        <ele>331</ele>
        <time>2018-04-12T12:42:19Z</time>
      </trkpt>
      <trkpt lat="46.18817" lon="2.42753">
        <ele>330</ele>
        <time>2018-04-12T12:42:22Z</time>
      </trkpt>
      <trkpt lat="46.18817" lon="2.4276">
        <ele>330</ele>
        <time>2018-04-12T12:42:25Z</time>
      </trkpt>
      <trkpt lat="46.18817" lon="2.42766">
        <ele>330</ele>
        <time>2018-04-12T12:42:28Z</time>
      </trkpt>
      <trkpt lat="46.18816" lon="2.42773">
        <ele>330</ele>
        <time>2018-04-12T12:42:31Z</time>
      </trkpt>
      <trkpt lat="46.18816" lon="2.42778">
        <ele>330</ele>
        <time>2018-04-12T12:42:34Z</time>
      </trkpt>
      <trkpt lat="46.18814" lon="2.42784">
        <ele>330</ele>
        <time>2018-04-12T12:42:37Z</time>
      </trkpt>
      <trkpt lat="46.18813" lon="2.4279">
        <ele>330</ele>
        <time>2018-04-12T12:42:40Z</time>
      </trkpt>
      <trkpt lat="46.18811" lon="2.42795">
        <ele>330</ele>
        <time>2018-04-12T12:42:43Z</time>
      </trkpt>
      <trkpt lat="46.18808" lon="2.428">
        <ele>330</ele>
        <time>2018-04-12T12:42:46Z</time>
      </trkpt>
      <trkpt lat="46.18805" lon="2.42805">
        <ele>330</ele>
        <time>2018-04-12T12:42:49Z</time>
      </trkpt>
      <trkpt lat="46.18802" lon="2.4281">
        <ele>330</ele>
        <time>2018-04-12T12:42:52Z</time>
      </trkpt>
      <trkpt lat="46.18799" lon="2.42814">
        <ele>329</ele>
        <time>2018-04-12T12:42:55Z</time>
      </trkpt>
      <trkpt lat="46.18796" lon="2.42817">
        <ele>329</ele>
        <time>2018-04-12T12:42:58Z</time>
      </trkpt>
      <trkpt lat="46.18793" lon="2.42821">
        <ele>329</ele>
        <time>2018-04-12T12:43:01Z</time>
      </trkpt>
      <trkpt lat="46.1879" lon="2.42826">
        <ele>329</ele>
        <time>2018-04-12T12:43:04Z</time>
      </trkpt>
      <trkpt lat="46.18787" lon="2.4283">
        <ele>329</ele>
        <time>2018-04-12T12:43:07Z</time>
      </trkpt>
      <trkpt lat="46.18784" lon="2.42834">
        <ele>328</ele>
        <time>2018-04-12T12:43:10Z</time>
      </trkpt>
      <trkpt lat="46.18781" lon="2.42837">
        <ele>328</ele>
        <time>2018-04-12T12:43:13Z</time>
      </trkpt>
      <trkpt lat="46.18777" lon="2.42841">
        <ele>328</ele>
        <time>2018-04-12T12:43:16Z</time>
      </trkpt>
      <trkpt lat="46.18773" lon="2.42843">
        <ele>328</ele>
        <time>2018-04-12T12:43:19Z</time>
      </trkpt>
      <trkpt lat="46.18768" lon="2.42845">
        <ele>328</ele>
        <time>2018-04-12T12:43:22Z</time>
      </trkpt>
      <trkpt lat="46.18765" lon="2.42848">
        <ele>328</ele>
        <time>2018-04-12T12:43:25Z</time>
      </trkpt>
      <trkpt lat="46.18761" lon="2.42851">
        <ele>328</ele>
        <time>2018-04-12T12:43:28Z</time>
      </trkpt>
      <trkpt lat="46.18757" lon="2.42854">
        <ele>328</ele>
        <time>2018-04-12T12:43:31Z</time>
      </trkpt>
      <trkpt lat="46.18753" lon="2.42857">
        <ele>328</ele>
        <time>2018-04-12T12:43:34Z</time>
      </trkpt>
      <trkpt lat="46.18749" lon="2.4286">
        <ele>328</ele>
        <time>2018-04-12T12:43:37Z</time>
      </trkpt>
      <trkpt lat="46.18745" lon="2.42864">
        <ele>328</ele>
        <time>2018-04-12T12:43:40Z</time>
      </trkpt>
      <trkpt lat="46.18741" lon="2.42866">
        <ele>328</ele>
        <time>2018-04-12T12:43:43Z</time>
      </trkpt>
      <trkpt lat="46.18737" lon="2.4287">
        <ele>328</ele>
        <time>2018-04-12T12:43:46Z</time>
      </trkpt>
      <trkpt lat="46.18733" lon="2.42873">
        <ele>328</ele>
        <time>2018-04-12T12:43:49Z</time>
      </trkpt>
      <trkpt lat="46.18729" lon="2.42876">
        <ele>328</ele>
        <time>2018-04-12T12:43:52Z</time>
      </trkpt>
      <trkpt lat="46.18725" lon="2.42878">
        <ele>328</ele>
        <time>2018-04-12T12:43:55Z</time>
      </trkpt>
      <trkpt lat="46.18721" lon="2.42879">
        <ele>328</ele>
        <time>2018-04-12T12:43:58Z</time>
      </trkpt>
      <trkpt lat="46.18716" lon="2.42875">
        <ele>328</ele>
        <time>2018-04-12T12:44:02Z</time>
      </trkpt>
      <trkpt lat="46.18713" lon="2.4287">
        <ele>328</ele>
        <time>2018-04-12T12:44:05Z</time>
      </trkpt>
      <trkpt lat="46.18711" lon="2.42866">
        <ele>328</ele>
        <time>2018-04-12T12:44:08Z</time>
      </trkpt>
      <trkpt lat="46.18708" lon="2.4286">
        <ele>328</ele>
        <time>2018-04-12T12:44:11Z</time>
      </trkpt>
      <trkpt lat="46.18706" lon="2.42855">
        <ele>328</ele>
        <time>2018-04-12T12:44:14Z</time>
      </trkpt>
      <trkpt lat="46.18704" lon="2.4285">
        <ele>328</ele>
        <time>2018-04-12T12:44:17Z</time>
      </trkpt>
      <trkpt lat="46.18701" lon="2.42845">
        <ele>328</ele>
        <time>2018-04-12T12:44:20Z</time>
      </trkpt>
      <trkpt lat="46.18698" lon="2.4284">
        <ele>328</ele>
        <time>2018-04-12T12:44:23Z</time>
      </trkpt>
      <trkpt lat="46.18696" lon="2.42835">
        <ele>328</ele>
        <time>2018-04-12T12:44:26Z</time>
      </trkpt>
      <trkpt lat="46.18694" lon="2.42829">
        <ele>328</ele>
        <time>2018-04-12T12:44:29Z</time>
      </trkpt>
      <trkpt lat="46.18692" lon="2.42823">
        <ele>328</ele>
        <time>2018-04-12T12:44:32Z</time>
      </trkpt>
      <trkpt lat="46.18691" lon="2.42817">
        <ele>328</ele>
        <time>2018-04-12T12:44:36Z</time>
      </trkpt>
      <trkpt lat="46.18689" lon="2.42813">
        <ele>328</ele>
        <time>2018-04-12T12:44:39Z</time>
      </trkpt>
      <trkpt lat="46.18687" lon="2.42808">
        <ele>328</ele>
        <time>2018-04-12T12:44:42Z</time>
      </trkpt>
      <trkpt lat="46.18684" lon="2.42803">
        <ele>328</ele>
        <time>2018-04-12T12:44:45Z</time>
      </trkpt>
      <trkpt lat="46.18681" lon="2.42797">
        <ele>328</ele>
        <time>2018-04-12T12:44:48Z</time>
      </trkpt>
      <trkpt lat="46.18679" lon="2.42792">
        <ele>328</ele>
        <time>2018-04-12T12:44:51Z</time>
      </trkpt>
      <trkpt lat="46.18675" lon="2.42786">
        <ele>328</ele>
        <time>2018-04-12T12:44:54Z</time>
      </trkpt>
      <trkpt lat="46.18671" lon="2.4278">
        <ele>328</ele>
        <time>2018-04-12T12:44:57Z</time>
      </trkpt>
      <trkpt lat="46.18668" lon="2.42775">
        <ele>328</ele>
        <time>2018-04-12T12:45:00Z</time>
      </trkpt>
      <trkpt lat="46.18665" lon="2.4277">
        <ele>328</ele>
        <time>2018-04-12T12:45:03Z</time>
      </trkpt>
      <trkpt lat="46.18662" lon="2.42764">
        <ele>328</ele>
        <time>2018-04-12T12:45:06Z</time>
      </trkpt>
      <trkpt lat="46.1866" lon="2.42759">
        <ele>328</ele>
        <time>2018-04-12T12:45:09Z</time>
      </trkpt>
      <trkpt lat="46.18657" lon="2.42754">
        <ele>328</ele>
        <time>2018-04-12T12:45:12Z</time>
      </trkpt>
      <trkpt lat="46.18654" lon="2.42749">
        <ele>328</ele>
        <time>2018-04-12T12:45:15Z</time>
      </trkpt>
      <trkpt lat="46.18652" lon="2.42744">
        <ele>328</ele>
        <time>2018-04-12T12:45:18Z</time>
      </trkpt>
      <trkpt lat="46.18649" lon="2.42739">
        <ele>328</ele>
        <time>2018-04-12T12:45:21Z</time>
      </trkpt>
      <trkpt lat="46.18646" lon="2.42734">
        <ele>328</ele>
        <time>2018-04-12T12:45:24Z</time>
      </trkpt>
      <trkpt lat="46.18644" lon="2.42729">
        <ele>328</ele>
        <time>2018-04-12T12:45:27Z</time>
      </trkpt>
      <trkpt lat="46.18641" lon="2.42724">
        <ele>328</ele>
        <time>2018-04-12T12:45:30Z</time>
      </trkpt>
      <trkpt lat="46.18638" lon="2.42719">
        <ele>328</ele>
        <time>2018-04-12T12:45:33Z</time>
      </trkpt>
      <trkpt lat="46.18635" lon="2.42714">
        <ele>328</ele>
        <time>2018-04-12T12:45:36Z</time>
      </trkpt>
      <trkpt lat="46.18632" lon="2.42709">
        <ele>328</ele>
        <time>2018-04-12T12:45:39Z</time>
      </trkpt>
      <trkpt lat="46.1863" lon="2.42705">
        <ele>328</ele>
        <time>2018-04-12T12:45:42Z</time>
      </trkpt>
      <trkpt lat="46.18627" lon="2.42699">
        <ele>328</ele>
        <time>2018-04-12T12:45:46Z</time>
      </trkpt>
      <trkpt lat="46.18623" lon="2.42695">
        <ele>329</ele>
        <time>2018-04-12T12:45:50Z</time>
      </trkpt>
      <trkpt lat="46.1862" lon="2.42692">
        <ele>329</ele>
        <time>2018-04-12T12:45:53Z</time>
      </trkpt>
      <trkpt lat="46.18615" lon="2.42688">
        <ele>329</ele>
        <time>2018-04-12T12:45:57Z</time>
      </trkpt>
      <trkpt lat="46.18612" lon="2.42686">
        <ele>329</ele>
        <time>2018-04-12T12:46:00Z</time>
      </trkpt>
      <trkpt lat="46.18609" lon="2.42683">
        <ele>329</ele>
        <time>2018-04-12T12:46:03Z</time>
      </trkpt>
      <trkpt lat="46.18604" lon="2.4268">
        <ele>329</ele>
        <time>2018-04-12T12:46:07Z</time>
      </trkpt>
      <trkpt lat="46.18601" lon="2.42677">
        <ele>329</ele>
        <time>2018-04-12T12:46:10Z</time>
      </trkpt>
      <trkpt lat="46.18597" lon="2.42674">
        <ele>329</ele>
        <time>2018-04-12T12:46:13Z</time>
      </trkpt>
      <trkpt lat="46.18593" lon="2.42671">
        <ele>329</ele>
        <time>2018-04-12T12:46:16Z</time>
      </trkpt>
      <trkpt lat="46.18589" lon="2.42668">
        <ele>329</ele>
        <time>2018-04-12T12:46:19Z</time>
      </trkpt>
      <trkpt lat="46.18586" lon="2.42664">
        <ele>329</ele>
        <time>2018-04-12T12:46:22Z</time>
      </trkpt>
      <trkpt lat="46.18583" lon="2.42661">
        <ele>332</ele>
        <time>2018-04-12T12:46:25Z</time>
      </trkpt>
      <trkpt lat="46.1858" lon="2.42658">
        <ele>333</ele>
        <time>2018-04-12T12:46:28Z</time>
      </trkpt>
      <trkpt lat="46.18575" lon="2.42653">
        <ele>335</ele>
        <time>2018-04-12T12:46:32Z</time>
      </trkpt>
      <trkpt lat="46.18571" lon="2.42647">
        <ele>337</ele>
        <time>2018-04-12T12:46:36Z</time>
      </trkpt>
      <trkpt lat="46.18567" lon="2.42641">
        <ele>338</ele>
        <time>2018-04-12T12:46:40Z</time>
      </trkpt>
      <trkpt lat="46.18565" lon="2.42637">
        <ele>339</ele>
        <time>2018-04-12T12:46:43Z</time>
      </trkpt>
      <trkpt lat="46.18562" lon="2.42632">
        <ele>340</ele>
        <time>2018-04-12T12:46:46Z</time>
      </trkpt>
      <trkpt lat="46.1856" lon="2.42627">
        <ele>340</ele>
        <time>2018-04-12T12:46:49Z</time>
      </trkpt>
      <trkpt lat="46.18559" lon="2.42622">
        <ele>340</ele>
        <time>2018-04-12T12:46:52Z</time>
      </trkpt>
      <trkpt lat="46.18558" lon="2.42617">
        <ele>341</ele>
        <time>2018-04-12T12:46:55Z</time>
      </trkpt>
      <trkpt lat="46.18556" lon="2.42611">
        <ele>341</ele>
        <time>2018-04-12T12:46:58Z</time>
      </trkpt>
      <trkpt lat="46.18556" lon="2.42606">
        <ele>341</ele>
        <time>2018-04-12T12:47:01Z</time>
      </trkpt>
      <trkpt lat="46.18555" lon="2.426">
        <ele>341</ele>
        <time>2018-04-12T12:47:04Z</time>
      </trkpt>
      <trkpt lat="46.18552" lon="2.42593">
        <ele>341</ele>
        <time>2018-04-12T12:47:07Z</time>
      </trkpt>
      <trkpt lat="46.18551" lon="2.42587">
        <ele>341</ele>
        <time>2018-04-12T12:47:10Z</time>
      </trkpt>
      <trkpt lat="46.18549" lon="2.42581">
        <ele>344</ele>
        <time>2018-04-12T12:47:13Z</time>
      </trkpt>
      <trkpt lat="46.18548" lon="2.42575">
        <ele>344</ele>
        <time>2018-04-12T12:47:16Z</time>
      </trkpt>
      <trkpt lat="46.18547" lon="2.42568">
        <ele>345</ele>
        <time>2018-04-12T12:47:19Z</time>
      </trkpt>
      <trkpt lat="46.18546" lon="2.42562">
        <ele>345</ele>
        <time>2018-04-12T12:47:22Z</time>
      </trkpt>
      <trkpt lat="46.18545" lon="2.42556">
        <ele>345</ele>
        <time>2018-04-12T12:47:25Z</time>
      </trkpt>
      <trkpt lat="46.18544" lon="2.4255">
        <ele>346</ele>
        <time>2018-04-12T12:47:28Z</time>
      </trkpt>
      <trkpt lat="46.18544" lon="2.42544">
        <ele>346</ele>
        <time>2018-04-12T12:47:31Z</time>
      </trkpt>
      <trkpt lat="46.18543" lon="2.42538">
        <ele>346</ele>
        <time>2018-04-12T12:47:34Z</time>
      </trkpt>
      <trkpt lat="46.18543" lon="2.42532">
        <ele>346</ele>
        <time>2018-04-12T12:47:37Z</time>
      </trkpt>
      <trkpt lat="46.18542" lon="2.42526">
        <ele>346</ele>
        <time>2018-04-12T12:47:40Z</time>
      </trkpt>
      <trkpt lat="46.18542" lon="2.4252">
        <ele>346</ele>
        <time>2018-04-12T12:47:43Z</time>
      </trkpt>
      <trkpt lat="46.18542" lon="2.42514">
        <ele>346</ele>
        <time>2018-04-12T12:47:46Z</time>
      </trkpt>
      <trkpt lat="46.18543" lon="2.42508">
        <ele>346</ele>
        <time>2018-04-12T12:47:49Z</time>
      </trkpt>
      <trkpt lat="46.18543" lon="2.42502">
        <ele>346</ele>
        <time>2018-04-12T12:47:52Z</time>
      </trkpt>
      <trkpt lat="46.18544" lon="2.42495">
        <ele>348</ele>
        <time>2018-04-12T12:47:55Z</time>
      </trkpt>
      <trkpt lat="46.18545" lon="2.42489">
        <ele>348</ele>
        <time>2018-04-12T12:47:58Z</time>
      </trkpt>
      <trkpt lat="46.18545" lon="2.42484">
        <ele>348</ele>
        <time>2018-04-12T12:48:01Z</time>
      </trkpt>
      <trkpt lat="46.18545" lon="2.42478">
        <ele>348</ele>
        <time>2018-04-12T12:48:04Z</time>
      </trkpt>
      <trkpt lat="46.18545" lon="2.42472">
        <ele>348</ele>
        <time>2018-04-12T12:48:07Z</time>
      </trkpt>
      <trkpt lat="46.18545" lon="2.42466">
        <ele>348</ele>
        <time>2018-04-12T12:48:10Z</time>
      </trkpt>
      <trkpt lat="46.18546" lon="2.42461">
        <ele>348</ele>
        <time>2018-04-12T12:48:13Z</time>
      </trkpt>
      <trkpt lat="46.18546" lon="2.42455">
        <ele>348</ele>
        <time>2018-04-12T12:48:16Z</time>
      </trkpt>
      <trkpt lat="46.18546" lon="2.42448">
        <ele>348</ele>
        <time>2018-04-12T12:48:19Z</time>
      </trkpt>
      <trkpt lat="46.18546" lon="2.42442">
        <ele>348</ele>
        <time>2018-04-12T12:48:22Z</time>
      </trkpt>
      <trkpt lat="46.18547" lon="2.42436">
        <ele>348</ele>
        <time>2018-04-12T12:48:25Z</time>
      </trkpt>
      <trkpt lat="46.18548" lon="2.42431">
        <ele>348</ele>
        <time>2018-04-12T12:48:28Z</time>
      </trkpt>
      <trkpt lat="46.18548" lon="2.42425">
        <ele>348</ele>
        <time>2018-04-12T12:48:31Z</time>
      </trkpt>
      <trkpt lat="46.18549" lon="2.4242">
        <ele>348</ele>
        <time>2018-04-12T12:48:34Z</time>
      </trkpt>
      <trkpt lat="46.18549" lon="2.42413">
        <ele>349</ele>
        <time>2018-04-12T12:48:37Z</time>
      </trkpt>
      <trkpt lat="46.1855" lon="2.42408">
        <ele>349</ele>
        <time>2018-04-12T12:48:40Z</time>
      </trkpt>
      <trkpt lat="46.18551" lon="2.42402">
        <ele>349</ele>
        <time>2018-04-12T12:48:43Z</time>
      </trkpt>
      <trkpt lat="46.18551" lon="2.42396">
        <ele>349</ele>
        <time>2018-04-12T12:48:46Z</time>
      </trkpt>
      <trkpt lat="46.18552" lon="2.4239">
        <ele>349</ele>
        <time>2018-04-12T12:48:49Z</time>
      </trkpt>
      <trkpt lat="46.18552" lon="2.42384">
        <ele>349</ele>
        <time>2018-04-12T12:48:52Z</time>
      </trkpt>
      <trkpt lat="46.18553" lon="2.42379">
        <ele>349</ele>
        <time>2018-04-12T12:48:55Z</time>
      </trkpt>
      <trkpt lat="46.18554" lon="2.42373">
        <ele>349</ele>
        <time>2018-04-12T12:48:58Z</time>
      </trkpt>
      <trkpt lat="46.18554" lon="2.42368">
        <ele>349</ele>
        <time>2018-04-12T12:49:01Z</time>
      </trkpt>
      <trkpt lat="46.18554" lon="2.42363">
        <ele>349</ele>
        <time>2018-04-12T12:49:04Z</time>
      </trkpt>
      <trkpt lat="46.18554" lon="2.42357">
        <ele>349</ele>
        <time>2018-04-12T12:49:07Z</time>
      </trkpt>
      <trkpt lat="46.18552" lon="2.4235">
        <ele>349</ele>
        <time>2018-04-12T12:49:10Z</time>
      </trkpt>
      <trkpt lat="46.18551" lon="2.42344">
        <ele>349</ele>
        <time>2018-04-12T12:49:13Z</time>
      </trkpt>
      <trkpt lat="46.1855" lon="2.42338">
        <ele>349</ele>
        <time>2018-04-12T12:49:16Z</time>
      </trkpt>
      <trkpt lat="46.18551" lon="2.42332">
        <ele>350</ele>
        <time>2018-04-12T12:49:19Z</time>
      </trkpt>
      <trkpt lat="46.18552" lon="2.42329">
        <ele>350</ele>
        <time>2018-04-12T12:49:22Z</time>
      </trkpt>
      <trkpt lat="46.18556" lon="2.42329">
        <ele>349</ele>
        <time>2018-04-12T12:49:26Z</time>
      </trkpt>
      <trkpt lat="46.18557" lon="2.42331">
        <ele>348</ele>
        <time>2018-04-12T12:49:29Z</time>
      </trkpt>
      <trkpt lat="46.1856" lon="2.42331">
        <ele>347</ele>
        <time>2018-04-12T12:49:32Z</time>
      </trkpt>
      <trkpt lat="46.18565" lon="2.42332">
        <ele>345</ele>
        <time>2018-04-12T12:49:35Z</time>
      </trkpt>
      <trkpt lat="46.18569" lon="2.42332">
        <ele>343</ele>
        <time>2018-04-12T12:49:38Z</time>
      </trkpt>
      <trkpt lat="46.18573" lon="2.42333">
        <ele>341</ele>
        <time>2018-04-12T12:49:41Z</time>
      </trkpt>
      <trkpt lat="46.18577" lon="2.42333">
        <ele>339</ele>
        <time>2018-04-12T12:49:44Z</time>
      </trkpt>
      <trkpt lat="46.1858" lon="2.42335">
        <ele>337</ele>
        <time>2018-04-12T12:49:47Z</time>
      </trkpt>
      <trkpt lat="46.18581" lon="2.42337">
        <ele>338</ele>
        <time>2018-04-12T12:49:51Z</time>
      </trkpt>
      <trkpt lat="46.18581" lon="2.42338">
        <ele>338</ele>
        <time>2018-04-12T12:49:59Z</time>
      </trkpt>
      <trkpt lat="46.1858" lon="2.42337">
        <ele>338</ele>
        <time>2018-04-12T12:50:11Z</time>
      </trkpt>
      <trkpt lat="46.1858" lon="2.42338">
        <ele>339</ele>
        <time>2018-04-12T12:50:18Z</time>
      </trkpt>
      <trkpt lat="46.18579" lon="2.4234">
        <ele>339</ele>
        <time>2018-04-12T12:50:34Z</time>
      </trkpt>
      <trkpt lat="46.18578" lon="2.42339">
        <ele>340</ele>
        <time>2018-04-12T12:50:49Z</time>
      </trkpt>
      <trkpt lat="46.18576" lon="2.42338">
        <ele>340</ele>
        <time>2018-04-12T12:50:58Z</time>
      </trkpt>
      <trkpt lat="46.18575" lon="2.42338">
        <ele>340</ele>
        <time>2018-04-12T12:51:01Z</time>
      </trkpt>
      <trkpt lat="46.18575" lon="2.42336">
        <ele>340</ele>
        <time>2018-04-12T12:51:04Z</time>
      </trkpt>
      <trkpt lat="46.18576" lon="2.42337">
        <ele>340</ele>
        <time>2018-04-12T12:51:15Z</time>
      </trkpt>
      <trkpt lat="46.18577" lon="2.42341">
        <ele>340</ele>
        <time>2018-04-12T12:51:19Z</time>
      </trkpt>
      <trkpt lat="46.18576" lon="2.42339">
        <ele>340</ele>
        <time>2018-04-12T12:51:33Z</time>
      </trkpt>
      <trkpt lat="46.18574" lon="2.42338">
        <ele>341</ele>
        <time>2018-04-12T12:51:37Z</time>
      </trkpt>
      <trkpt lat="46.18573" lon="2.42339">
        <ele>341</ele>
        <time>2018-04-12T12:51:41Z</time>
      </trkpt>
      <trkpt lat="46.18573" lon="2.42339">
        <ele>341</ele>
        <time>2018-04-12T12:51:49Z</time>
      </trkpt>
      <trkpt lat="46.18574" lon="2.42335">
        <ele>341</ele>
        <time>2018-04-12T12:51:53Z</time>
      </trkpt>
      <trkpt lat="46.18572" lon="2.42339">
        <ele>342</ele>
        <time>2018-04-12T12:52:06Z</time>
      </trkpt>
      <trkpt lat="46.18573" lon="2.42338">
        <ele>341</ele>
        <time>2018-04-12T12:52:09Z</time>
      </trkpt>
      <trkpt lat="46.18573" lon="2.4234">
        <ele>341</ele>
        <time>2018-04-12T12:52:12Z</time>
      </trkpt>
      <trkpt lat="46.18575" lon="2.42339">
        <ele>340</ele>
        <time>2018-04-12T12:52:20Z</time>
      </trkpt>
      <trkpt lat="46.18577" lon="2.42339">
        <ele>340</ele>
        <time>2018-04-12T12:52:29Z</time>
      </trkpt>
      <trkpt lat="46.1858" lon="2.42341">
        <ele>340</ele>
        <time>2018-04-12T12:52:37Z</time>
      </trkpt>
      <trkpt lat="46.1858" lon="2.42339">
        <ele>339</ele>
        <time>2018-04-12T12:52:50Z</time>
      </trkpt>
      <trkpt lat="46.18578" lon="2.42339">
        <ele>340</ele>
        <time>2018-04-12T12:52:53Z</time>
      </trkpt>
      <trkpt lat="46.18575" lon="2.42338">
        <ele>340</ele>
        <time>2018-04-12T12:52:56Z</time>
      </trkpt>
      <trkpt lat="46.18572" lon="2.42336">
        <ele>341</ele>
        <time>2018-04-12T12:52:59Z</time>
      </trkpt>
      <trkpt lat="46.18568" lon="2.42334">
        <ele>343</ele>
        <time>2018-04-12T12:53:02Z</time>
      </trkpt>
      <trkpt lat="46.18565" lon="2.42334">
        <ele>344</ele>
        <time>2018-04-12T12:53:05Z</time>
      </trkpt>
      <trkpt lat="46.18561" lon="2.42333">
        <ele>347</ele>
        <time>2018-04-12T12:53:09Z</time>
      </trkpt>
      <trkpt lat="46.1856" lon="2.4233">
        <ele>347</ele>
        <time>2018-04-12T12:53:12Z</time>
      </trkpt>
      <trkpt lat="46.18558" lon="2.42327">
        <ele>348</ele>
        <time>2018-04-12T12:53:16Z</time>
      </trkpt>
      <trkpt lat="46.18556" lon="2.42324">
        <ele>349</ele>
        <time>2018-04-12T12:53:19Z</time>
      </trkpt>
      <trkpt lat="46.18556" lon="2.42318">
        <ele>349</ele>
        <time>2018-04-12T12:53:22Z</time>
      </trkpt>
      <trkpt lat="46.18555" lon="2.42312">
        <ele>350</ele>
        <time>2018-04-12T12:53:25Z</time>
      </trkpt>
      <trkpt lat="46.18555" lon="2.42306">
        <ele>351</ele>
        <time>2018-04-12T12:53:28Z</time>
      </trkpt>
      <trkpt lat="46.18554" lon="2.423">
        <ele>351</ele>
        <time>2018-04-12T12:53:31Z</time>
      </trkpt>
      <trkpt lat="46.18554" lon="2.42292">
        <ele>351</ele>
        <time>2018-04-12T12:53:35Z</time>
      </trkpt>
      <trkpt lat="46.18553" lon="2.42286">
        <ele>352</ele>
        <time>2018-04-12T12:53:38Z</time>
      </trkpt>
      <trkpt lat="46.18553" lon="2.4228">
        <ele>352</ele>
        <time>2018-04-12T12:53:41Z</time>
      </trkpt>
      <trkpt lat="46.18553" lon="2.42274">
        <ele>351</ele>
        <time>2018-04-12T12:53:44Z</time>
      </trkpt>
      <trkpt lat="46.18553" lon="2.42268">
        <ele>351</ele>
        <time>2018-04-12T12:53:47Z</time>
      </trkpt>
      <trkpt lat="46.18552" lon="2.42263">
        <ele>351</ele>
        <time>2018-04-12T12:53:50Z</time>
      </trkpt>
      <trkpt lat="46.18552" lon="2.42257">
        <ele>351</ele>
        <time>2018-04-12T12:53:53Z</time>
      </trkpt>
      <trkpt lat="46.18552" lon="2.42251">
        <ele>351</ele>
        <time>2018-04-12T12:53:56Z</time>
      </trkpt>
      <trkpt lat="46.18553" lon="2.42245">
        <ele>353</ele>
        <time>2018-04-12T12:53:59Z</time>
      </trkpt>
      <trkpt lat="46.18553" lon="2.42239">
        <ele>353</ele>
        <time>2018-04-12T12:54:02Z</time>
      </trkpt>
      <trkpt lat="46.18553" lon="2.42233">
        <ele>353</ele>
        <time>2018-04-12T12:54:05Z</time>
      </trkpt>
      <trkpt lat="46.18554" lon="2.42227">
        <ele>353</ele>
        <time>2018-04-12T12:54:08Z</time>
      </trkpt>
      <trkpt lat="46.18554" lon="2.42222">
        <ele>354</ele>
        <time>2018-04-12T12:54:11Z</time>
      </trkpt>
      <trkpt lat="46.18554" lon="2.42216">
        <ele>354</ele>
        <time>2018-04-12T12:54:14Z</time>
      </trkpt>
      <trkpt lat="46.18555" lon="2.4221">
        <ele>354</ele>
        <time>2018-04-12T12:54:17Z</time>
      </trkpt>
      <trkpt lat="46.18555" lon="2.42204">
        <ele>354</ele>
        <time>2018-04-12T12:54:20Z</time>
      </trkpt>
      <trkpt lat="46.18556" lon="2.42198">
        <ele>354</ele>
        <time>2018-04-12T12:54:23Z</time>
      </trkpt>
      <trkpt lat="46.18556" lon="2.42192">
        <ele>354</ele>
        <time>2018-04-12T12:54:26Z</time>
      </trkpt>
      <trkpt lat="46.18557" lon="2.42186">
        <ele>353</ele>
        <time>2018-04-12T12:54:29Z</time>
      </trkpt>
      <trkpt lat="46.18558" lon="2.42184">
        <ele>353</ele>
        <time>2018-04-12T12:54:45Z</time>
      </trkpt>
      <trkpt lat="46.18559" lon="2.4218">
        <ele>352</ele>
        <time>2018-04-12T12:54:48Z</time>
      </trkpt>
      <trkpt lat="46.18559" lon="2.42175">
        <ele>352</ele>
        <time>2018-04-12T12:54:51Z</time>
      </trkpt>
      <trkpt lat="46.1856" lon="2.4217">
        <ele>351</ele>
        <time>2018-04-12T12:54:54Z</time>
      </trkpt>
      <trkpt lat="46.1856" lon="2.42164">
        <ele>353</ele>
        <time>2018-04-12T12:54:57Z</time>
      </trkpt>
      <trkpt lat="46.18561" lon="2.42158">
        <ele>353</ele>
        <time>2018-04-12T12:55:00Z</time>
      </trkpt>
      <trkpt lat="46.18562" lon="2.42152">
        <ele>353</ele>
        <time>2018-04-12T12:55:03Z</time>
      </trkpt>
      <trkpt lat="46.18563" lon="2.42145">
        <ele>354</ele>
        <time>2018-04-12T12:55:06Z</time>
      </trkpt>
      <trkpt lat="46.18564" lon="2.42139">
        <ele>355</ele>
        <time>2018-04-12T12:55:09Z</time>
      </trkpt>
      <trkpt lat="46.18565" lon="2.42132">
        <ele>355</ele>
        <time>2018-04-12T12:55:12Z</time>
      </trkpt>
      <trkpt lat="46.18565" lon="2.42126">
        <ele>355</ele>
        <time>2018-04-12T12:55:15Z</time>
      </trkpt>
      <trkpt lat="46.18566" lon="2.4212">
        <ele>355</ele>
        <time>2018-04-12T12:55:18Z</time>
      </trkpt>
      <trkpt lat="46.18566" lon="2.42114">
        <ele>355</ele>
        <time>2018-04-12T12:55:21Z</time>
      </trkpt>
      <trkpt lat="46.18567" lon="2.42108">
        <ele>354</ele>
        <time>2018-04-12T12:55:24Z</time>
      </trkpt>
      <trkpt lat="46.18567" lon="2.42102">
        <ele>353</ele>
        <time>2018-04-12T12:55:27Z</time>
      </trkpt>
      <trkpt lat="46.18567" lon="2.42095">
        <ele>352</ele>
        <time>2018-04-12T12:55:30Z</time>
      </trkpt>
      <trkpt lat="46.18568" lon="2.42089">
        <ele>351</ele>
        <time>2018-04-12T12:55:33Z</time>
      </trkpt>
      <trkpt lat="46.18569" lon="2.42082">
        <ele>351</ele>
        <time>2018-04-12T12:55:36Z</time>
      </trkpt>
      <trkpt lat="46.18569" lon="2.42076">
        <ele>351</ele>
        <time>2018-04-12T12:55:39Z</time>
      </trkpt>
      <trkpt lat="46.1857" lon="2.4207">
        <ele>352</ele>
        <time>2018-04-12T12:55:42Z</time>
      </trkpt>
      <trkpt lat="46.18571" lon="2.42064">
        <ele>353</ele>
        <time>2018-04-12T12:55:45Z</time>
      </trkpt>
      <trkpt lat="46.18572" lon="2.42057">
        <ele>354</ele>
        <time>2018-04-12T12:55:48Z</time>
      </trkpt>
      <trkpt lat="46.18573" lon="2.42051">
        <ele>354</ele>
        <time>2018-04-12T12:55:51Z</time>
      </trkpt>
      <trkpt lat="46.18573" lon="2.42045">
        <ele>355</ele>
        <time>2018-04-12T12:55:54Z</time>
      </trkpt>
      <trkpt lat="46.18574" lon="2.42038">
        <ele>355</ele>
        <time>2018-04-12T12:55:57Z</time>
      </trkpt>
      <trkpt lat="46.18575" lon="2.42032">
        <ele>354</ele>
        <time>2018-04-12T12:56:00Z</time>
      </trkpt>
      <trkpt lat="46.18575" lon="2.42026">
        <ele>353</ele>
        <time>2018-04-12T12:56:03Z</time>
      </trkpt>
      <trkpt lat="46.18576" lon="2.42019">
        <ele>352</ele>
        <time>2018-04-12T12:56:06Z</time>
      </trkpt>
      <trkpt lat="46.18576" lon="2.42013">
        <ele>350</ele>
        <time>2018-04-12T12:56:09Z</time>
      </trkpt>
      <trkpt lat="46.18578" lon="2.42007">
        <ele>347</ele>
        <time>2018-04-12T12:56:12Z</time>
      </trkpt>
      <trkpt lat="46.18578" lon="2.42">
        <ele>345</ele>
        <time>2018-04-12T12:56:15Z</time>
      </trkpt>
      <trkpt lat="46.1858" lon="2.41994">
        <ele>346</ele>
        <time>2018-04-12T12:56:18Z</time>
      </trkpt>
      <trkpt lat="46.18581" lon="2.41987">
        <ele>348</ele>
        <time>2018-04-12T12:56:21Z</time>
      </trkpt>
      <trkpt lat="46.18581" lon="2.41981">
        <ele>350</ele>
        <time>2018-04-12T12:56:24Z</time>
      </trkpt>
      <trkpt lat="46.18582" lon="2.41975">
        <ele>351</ele>
        <time>2018-04-12T12:56:27Z</time>
      </trkpt>
      <trkpt lat="46.18584" lon="2.4197">
        <ele>339</ele>
        <time>2018-04-12T12:56:30Z</time>
      </trkpt>
      <trkpt lat="46.18586" lon="2.41964">
        <ele>338</ele>
        <time>2018-04-12T12:56:33Z</time>
      </trkpt>
      <trkpt lat="46.18588" lon="2.41959">
        <ele>338</ele>
        <time>2018-04-12T12:56:36Z</time>
      </trkpt>
      <trkpt lat="46.18589" lon="2.41953">
        <ele>338</ele>
        <time>2018-04-12T12:56:39Z</time>
      </trkpt>
      <trkpt lat="46.18591" lon="2.41947">
        <ele>339</ele>
        <time>2018-04-12T12:56:42Z</time>
      </trkpt>
      <trkpt lat="46.18594" lon="2.41941">
        <ele>339</ele>
        <time>2018-04-12T12:56:45Z</time>
      </trkpt>
      <trkpt lat="46.18596" lon="2.41935">
        <ele>339</ele>
        <time>2018-04-12T12:56:48Z</time>
      </trkpt>
      <trkpt lat="46.18597" lon="2.41928">
        <ele>339</ele>
        <time>2018-04-12T12:56:51Z</time>
      </trkpt>
      <trkpt lat="46.18598" lon="2.41923">
        <ele>340</ele>
        <time>2018-04-12T12:56:54Z</time>
      </trkpt>
      <trkpt lat="46.18599" lon="2.41917">
        <ele>340</ele>
        <time>2018-04-12T12:56:57Z</time>
      </trkpt>
      <trkpt lat="46.18601" lon="2.41911">
        <ele>340</ele>
        <time>2018-04-12T12:57:00Z</time>
      </trkpt>
      <trkpt lat="46.18602" lon="2.41905">
        <ele>340</ele>
        <time>2018-04-12T12:57:03Z</time>
      </trkpt>
      <trkpt lat="46.18603" lon="2.419">
        <ele>339</ele>
        <time>2018-04-12T12:57:06Z</time>
      </trkpt>
      <trkpt lat="46.18605" lon="2.41894">
        <ele>339</ele>
        <time>2018-04-12T12:57:09Z</time>
      </trkpt>
      <trkpt lat="46.18606" lon="2.41887">
        <ele>339</ele>
        <time>2018-04-12T12:57:12Z</time>
      </trkpt>
      <trkpt lat="46.18607" lon="2.41881">
        <ele>339</ele>
        <time>2018-04-12T12:57:15Z</time>
      </trkpt>
      <trkpt lat="46.18608" lon="2.41874">
        <ele>339</ele>
        <time>2018-04-12T12:57:18Z</time>
      </trkpt>
      <trkpt lat="46.18608" lon="2.41868">
        <ele>339</ele>
        <time>2018-04-12T12:57:21Z</time>
      </trkpt>
      <trkpt lat="46.18609" lon="2.41861">
        <ele>339</ele>
        <time>2018-04-12T12:57:24Z</time>
      </trkpt>
      <trkpt lat="46.18609" lon="2.41854">
        <ele>339</ele>
        <time>2018-04-12T12:57:27Z</time>
      </trkpt>
      <trkpt lat="46.18608" lon="2.41848">
        <ele>339</ele>
        <time>2018-04-12T12:57:30Z</time>
      </trkpt>
      <trkpt lat="46.18609" lon="2.41841">
        <ele>340</ele>
        <time>2018-04-12T12:57:33Z</time>
      </trkpt>
      <trkpt lat="46.18609" lon="2.41833">
        <ele>340</ele>
        <time>2018-04-12T12:57:36Z</time>
      </trkpt>
      <trkpt lat="46.18609" lon="2.41826">
        <ele>340</ele>
        <time>2018-04-12T12:57:39Z</time>
      </trkpt>
      <trkpt lat="46.18608" lon="2.41816">
        <ele>339</ele>
        <time>2018-04-12T12:57:43Z</time>
      </trkpt>
      <trkpt lat="46.18608" lon="2.41809">
        <ele>339</ele>
        <time>2018-04-12T12:57:46Z</time>
      </trkpt>
      <trkpt lat="46.18607" lon="2.41801">
        <ele>339</ele>
        <time>2018-04-12T12:57:49Z</time>
      </trkpt>
      <trkpt lat="46.18607" lon="2.41794">
        <ele>339</ele>
        <time>2018-04-12T12:57:52Z</time>
      </trkpt>
      <trkpt lat="46.18607" lon="2.41788">
        <ele>339</ele>
        <time>2018-04-12T12:57:55Z</time>
      </trkpt>
      <trkpt lat="46.18607" lon="2.41779">
        <ele>339</ele>
        <time>2018-04-12T12:57:58Z</time>
      </trkpt>
      <trkpt lat="46.18608" lon="2.41773">
        <ele>339</ele>
        <time>2018-04-12T12:58:02Z</time>
      </trkpt>
      <trkpt lat="46.18608" lon="2.41766">
        <ele>339</ele>
        <time>2018-04-12T12:58:05Z</time>
      </trkpt>
      <trkpt lat="46.18608" lon="2.41759">
        <ele>339</ele>
        <time>2018-04-12T12:58:08Z</time>
      </trkpt>
      <trkpt lat="46.18607" lon="2.41753">
        <ele>339</ele>
        <time>2018-04-12T12:58:11Z</time>
      </trkpt>
      <trkpt lat="46.18607" lon="2.41744">
        <ele>340</ele>
        <time>2018-04-12T12:58:15Z</time>
      </trkpt>
      <trkpt lat="46.18607" lon="2.41736">
        <ele>339</ele>
        <time>2018-04-12T12:58:19Z</time>
      </trkpt>
      <trkpt lat="46.18607" lon="2.41729">
        <ele>339</ele>
        <time>2018-04-12T12:58:22Z</time>
      </trkpt>
      <trkpt lat="46.18606" lon="2.41721">
        <ele>339</ele>
        <time>2018-04-12T12:58:25Z</time>
      </trkpt>
      <trkpt lat="46.18606" lon="2.41715">
        <ele>339</ele>
        <time>2018-04-12T12:58:29Z</time>
      </trkpt>
      <trkpt lat="46.18605" lon="2.41709">
        <ele>339</ele>
        <time>2018-04-12T12:58:32Z</time>
      </trkpt>
      <trkpt lat="46.18605" lon="2.41703">
        <ele>339</ele>
        <time>2018-04-12T12:58:35Z</time>
      </trkpt>
      <trkpt lat="46.18605" lon="2.41698">
        <ele>339</ele>
        <time>2018-04-12T12:58:38Z</time>
      </trkpt>
      <trkpt lat="46.18605" lon="2.41692">
        <ele>340</ele>
        <time>2018-04-12T12:58:41Z</time>
      </trkpt>
      <trkpt lat="46.18605" lon="2.41686">
        <ele>340</ele>
        <time>2018-04-12T12:58:44Z</time>
      </trkpt>
      <trkpt lat="46.18605" lon="2.41678">
        <ele>340</ele>
        <time>2018-04-12T12:58:48Z</time>
      </trkpt>
      <trkpt lat="46.18604" lon="2.41669">
        <ele>341</ele>
        <time>2018-04-12T12:58:51Z</time>
      </trkpt>
      <trkpt lat="46.18605" lon="2.41663">
        <ele>341</ele>
        <time>2018-04-12T12:58:54Z</time>
      </trkpt>
      <trkpt lat="46.18605" lon="2.41657">
        <ele>341</ele>
        <time>2018-04-12T12:58:58Z</time>
      </trkpt>
      <trkpt lat="46.18605" lon="2.41649">
        <ele>341</ele>
        <time>2018-04-12T12:59:01Z</time>
      </trkpt>
      <trkpt lat="46.18605" lon="2.41643">
        <ele>341</ele>
        <time>2018-04-12T12:59:04Z</time>
      </trkpt>
      <trkpt lat="46.18604" lon="2.41637">
        <ele>341</ele>
        <time>2018-04-12T12:59:08Z</time>
      </trkpt>
      <trkpt lat="46.18605" lon="2.41632">
        <ele>340</ele>
        <time>2018-04-12T12:59:11Z</time>
      </trkpt>
      <trkpt lat="46.18604" lon="2.41626">
        <ele>340</ele>
        <time>2018-04-12T12:59:14Z</time>
      </trkpt>
      <trkpt lat="46.18604" lon="2.41619">
        <ele>340</ele>
        <time>2018-04-12T12:59:18Z</time>
      </trkpt>
      <trkpt lat="46.18603" lon="2.4161">
        <ele>341</ele>
        <time>2018-04-12T12:59:21Z</time>
      </trkpt>
      <trkpt lat="46.18602" lon="2.41603">
        <ele>341</ele>
        <time>2018-04-12T12:59:25Z</time>
      </trkpt>
      <trkpt lat="46.18602" lon="2.41595">
        <ele>341</ele>
        <time>2018-04-12T12:59:28Z</time>
      </trkpt>
      <trkpt lat="46.18601" lon="2.41589">
        <ele>342</ele>
        <time>2018-04-12T12:59:31Z</time>
      </trkpt>
      <trkpt lat="46.18601" lon="2.41582">
        <ele>342</ele>
        <time>2018-04-12T12:59:35Z</time>
      </trkpt>
      <trkpt lat="46.18601" lon="2.41572">
        <ele>341</ele>
        <time>2018-04-12T12:59:38Z</time>
      </trkpt>
      <trkpt lat="46.18601" lon="2.41565">
        <ele>341</ele>
        <time>2018-04-12T12:59:41Z</time>
      </trkpt>
      <trkpt lat="46.18601" lon="2.41558">
        <ele>341</ele>
        <time>2018-04-12T12:59:45Z</time>
      </trkpt>
      <trkpt lat="46.18602" lon="2.41549">
        <ele>340</ele>
        <time>2018-04-12T12:59:48Z</time>
      </trkpt>
      <trkpt lat="46.18603" lon="2.41543">
        <ele>340</ele>
        <time>2018-04-12T12:59:51Z</time>
      </trkpt>
      <trkpt lat="46.18603" lon="2.41536">
        <ele>340</ele>
        <time>2018-04-12T12:59:54Z</time>
      </trkpt>
      <trkpt lat="46.18603" lon="2.4153">
        <ele>340</ele>
        <time>2018-04-12T12:59:57Z</time>
      </trkpt>
      <trkpt lat="46.18604" lon="2.41524">
        <ele>340</ele>
        <time>2018-04-12T13:00:01Z</time>
      </trkpt>
      <trkpt lat="46.18605" lon="2.41518">
        <ele>340</ele>
        <time>2018-04-12T13:00:04Z</time>
      </trkpt>
      <trkpt lat="46.18606" lon="2.41509">
        <ele>340</ele>
        <time>2018-04-12T13:00:07Z</time>
      </trkpt>
      <trkpt lat="46.18607" lon="2.41503">
        <ele>340</ele>
        <time>2018-04-12T13:00:11Z</time>
      </trkpt>
      <trkpt lat="46.18608" lon="2.41497">
        <ele>339</ele>
        <time>2018-04-12T13:00:14Z</time>
      </trkpt>
      <trkpt lat="46.18609" lon="2.41491">
        <ele>338</ele>
        <time>2018-04-12T13:00:17Z</time>
      </trkpt>
      <trkpt lat="46.18611" lon="2.41482">
        <ele>338</ele>
        <time>2018-04-12T13:00:20Z</time>
      </trkpt>
      <trkpt lat="46.18612" lon="2.41476">
        <ele>337</ele>
        <time>2018-04-12T13:00:23Z</time>
      </trkpt>
      <trkpt lat="46.18613" lon="2.4147">
        <ele>337</ele>
        <time>2018-04-12T13:00:27Z</time>
      </trkpt>
      <trkpt lat="46.18614" lon="2.41462">
        <ele>337</ele>
        <time>2018-04-12T13:00:30Z</time>
      </trkpt>
      <trkpt lat="46.18614" lon="2.41456">
        <ele>336</ele>
        <time>2018-04-12T13:00:33Z</time>
      </trkpt>
      <trkpt lat="46.18615" lon="2.41449">
        <ele>336</ele>
        <time>2018-04-12T13:00:36Z</time>
      </trkpt>
      <trkpt lat="46.18615" lon="2.41443">
        <ele>336</ele>
        <time>2018-04-12T13:00:39Z</time>
      </trkpt>
      <trkpt lat="46.18615" lon="2.41437">
        <ele>336</ele>
        <time>2018-04-12T13:00:42Z</time>
      </trkpt>
      <trkpt lat="46.18615" lon="2.41431">
        <ele>336</ele>
        <time>2018-04-12T13:00:45Z</time>
      </trkpt>
      <trkpt lat="46.18614" lon="2.41426">
        <ele>336</ele>
        <time>2018-04-12T13:00:49Z</time>
      </trkpt>
      <trkpt lat="46.18614" lon="2.4142">
        <ele>336</ele>
        <time>2018-04-12T13:00:52Z</time>
      </trkpt>
      <trkpt lat="46.18613" lon="2.41413">
        <ele>333</ele>
        <time>2018-04-12T13:00:55Z</time>
      </trkpt>
      <trkpt lat="46.18612" lon="2.41406">
        <ele>333</ele>
        <time>2018-04-12T13:00:59Z</time>
      </trkpt>
      <trkpt lat="46.1861" lon="2.41397">
        <ele>333</ele>
        <time>2018-04-12T13:01:02Z</time>
      </trkpt>
      <trkpt lat="46.18609" lon="2.4139">
        <ele>333</ele>
        <time>2018-04-12T13:01:05Z</time>
      </trkpt>
      <trkpt lat="46.18607" lon="2.41384">
        <ele>333</ele>
        <time>2018-04-12T13:01:09Z</time>
      </trkpt>
      <trkpt lat="46.18605" lon="2.41376">
        <ele>333</ele>
        <time>2018-04-12T13:01:12Z</time>
      </trkpt>
      <trkpt lat="46.18604" lon="2.4137">
        <ele>332</ele>
        <time>2018-04-12T13:01:15Z</time>
      </trkpt>
      <trkpt lat="46.18602" lon="2.41364">
        <ele>332</ele>
        <time>2018-04-12T13:01:19Z</time>
      </trkpt>
      <trkpt lat="46.186" lon="2.41356">
        <ele>332</ele>
        <time>2018-04-12T13:01:22Z</time>
      </trkpt>
      <trkpt lat="46.18598" lon="2.4135">
        <ele>332</ele>
        <time>2018-04-12T13:01:25Z</time>
      </trkpt>
      <trkpt lat="46.18596" lon="2.41345">
        <ele>332</ele>
        <time>2018-04-12T13:01:29Z</time>
      </trkpt>
      <trkpt lat="46.18593" lon="2.41338">
        <ele>332</ele>
        <time>2018-04-12T13:01:32Z</time>
      </trkpt>
      <trkpt lat="46.18591" lon="2.41333">
        <ele>332</ele>
        <time>2018-04-12T13:01:35Z</time>
      </trkpt>
      <trkpt lat="46.18589" lon="2.41328">
        <ele>332</ele>
        <time>2018-04-12T13:01:39Z</time>
      </trkpt>
      <trkpt lat="46.18586" lon="2.41321">
        <ele>331</ele>
        <time>2018-04-12T13:01:42Z</time>
      </trkpt>
      <trkpt lat="46.18584" lon="2.41317">
        <ele>331</ele>
        <time>2018-04-12T13:01:45Z</time>
      </trkpt>
      <trkpt lat="46.18582" lon="2.41312">
        <ele>335</ele>
        <time>2018-04-12T13:01:48Z</time>
      </trkpt>
      <trkpt lat="46.1858" lon="2.41307">
        <ele>335</ele>
        <time>2018-04-12T13:01:52Z</time>
      </trkpt>
      <trkpt lat="46.18577" lon="2.41302">
        <ele>335</ele>
        <time>2018-04-12T13:01:55Z</time>
      </trkpt>
      <trkpt lat="46.18575" lon="2.41298">
        <ele>336</ele>
        <time>2018-04-12T13:01:58Z</time>
      </trkpt>
      <trkpt lat="46.18573" lon="2.41293">
        <ele>336</ele>
        <time>2018-04-12T13:02:03Z</time>
      </trkpt>
      <trkpt lat="46.1857" lon="2.41287">
        <ele>336</ele>
        <time>2018-04-12T13:02:06Z</time>
      </trkpt>
      <trkpt lat="46.18568" lon="2.41282">
        <ele>336</ele>
        <time>2018-04-12T13:02:09Z</time>
      </trkpt>
      <trkpt lat="46.18565" lon="2.41278">
        <ele>336</ele>
        <time>2018-04-12T13:02:13Z</time>
      </trkpt>
      <trkpt lat="46.18563" lon="2.41271">
        <ele>336</ele>
        <time>2018-04-12T13:02:16Z</time>
      </trkpt>
      <trkpt lat="46.1856" lon="2.41266">
        <ele>336</ele>
        <time>2018-04-12T13:02:19Z</time>
      </trkpt>
      <trkpt lat="46.18558" lon="2.41262">
        <ele>336</ele>
        <time>2018-04-12T13:02:23Z</time>
      </trkpt>
      <trkpt lat="46.18555" lon="2.41256">
        <ele>336</ele>
        <time>2018-04-12T13:02:26Z</time>
      </trkpt>
      <trkpt lat="46.18552" lon="2.41252">
        <ele>337</ele>
        <time>2018-04-12T13:02:29Z</time>
      </trkpt>
      <trkpt lat="46.18549" lon="2.41248">
        <ele>336</ele>
        <time>2018-04-12T13:02:32Z</time>
      </trkpt>
      <trkpt lat="46.18547" lon="2.41243">
        <ele>337</ele>
        <time>2018-04-12T13:02:35Z</time>
      </trkpt>
      <trkpt lat="46.18544" lon="2.41238">
        <ele>337</ele>
        <time>2018-04-12T13:02:40Z</time>
      </trkpt>
      <trkpt lat="46.18541" lon="2.41232">
        <ele>337</ele>
        <time>2018-04-12T13:02:43Z</time>
      </trkpt>
      <trkpt lat="46.18538" lon="2.41226">
        <ele>338</ele>
        <time>2018-04-12T13:02:47Z</time>
      </trkpt>
      <trkpt lat="46.18536" lon="2.41222">
        <ele>338</ele>
        <time>2018-04-12T13:02:51Z</time>
      </trkpt>
      <trkpt lat="46.18532" lon="2.41215">
        <ele>338</ele>
        <time>2018-04-12T13:02:54Z</time>
      </trkpt>
      <trkpt lat="46.18529" lon="2.4121">
        <ele>338</ele>
        <time>2018-04-12T13:02:58Z</time>
      </trkpt>
      <trkpt lat="46.18527" lon="2.41205">
        <ele>338</ele>
        <time>2018-04-12T13:03:02Z</time>
      </trkpt>
      <trkpt lat="46.18523" lon="2.41199">
        <ele>338</ele>
        <time>2018-04-12T13:03:05Z</time>
      </trkpt>
      <trkpt lat="46.18521" lon="2.41195">
        <ele>338</ele>
        <time>2018-04-12T13:03:08Z</time>
      </trkpt>
      <trkpt lat="46.18519" lon="2.4119">
        <ele>339</ele>
        <time>2018-04-12T13:03:12Z</time>
      </trkpt>
      <trkpt lat="46.18515" lon="2.41185">
        <ele>339</ele>
        <time>2018-04-12T13:03:15Z</time>
      </trkpt>
      <trkpt lat="46.18513" lon="2.4118">
        <ele>339</ele>
        <time>2018-04-12T13:03:18Z</time>
      </trkpt>
      <trkpt lat="46.18511" lon="2.41176">
        <ele>340</ele>
        <time>2018-04-12T13:03:22Z</time>
      </trkpt>
      <trkpt lat="46.18509" lon="2.41171">
        <ele>340</ele>
        <time>2018-04-12T13:03:25Z</time>
      </trkpt>
      <trkpt lat="46.18506" lon="2.41168">
        <ele>341</ele>
        <time>2018-04-12T13:03:28Z</time>
      </trkpt>
      <trkpt lat="46.18502" lon="2.41162">
        <ele>341</ele>
        <time>2018-04-12T13:03:33Z</time>
      </trkpt>
      <trkpt lat="46.18499" lon="2.41157">
        <ele>344</ele>
        <time>2018-04-12T13:03:36Z</time>
      </trkpt>
      <trkpt lat="46.18497" lon="2.41153">
        <ele>344</ele>
        <time>2018-04-12T13:03:39Z</time>
      </trkpt>
      <trkpt lat="46.18494" lon="2.41147">
        <ele>345</ele>
        <time>2018-04-12T13:03:43Z</time>
      </trkpt>
      <trkpt lat="46.1849" lon="2.41142">
        <ele>345</ele>
        <time>2018-04-12T13:03:47Z</time>
      </trkpt>
      <trkpt lat="46.18487" lon="2.41136">
        <ele>345</ele>
        <time>2018-04-12T13:03:51Z</time>
      </trkpt>
      <trkpt lat="46.18485" lon="2.41132">
        <ele>345</ele>
        <time>2018-04-12T13:03:55Z</time>
      </trkpt>
      <trkpt lat="46.18481" lon="2.41126">
        <ele>345</ele>
        <time>2018-04-12T13:03:58Z</time>
      </trkpt>
      <trkpt lat="46.18478" lon="2.41122">
        <ele>345</ele>
        <time>2018-04-12T13:04:01Z</time>
      </trkpt>
      <trkpt lat="46.18476" lon="2.41117">
        <ele>345</ele>
        <time>2018-04-12T13:04:04Z</time>
      </trkpt>
      <trkpt lat="46.18472" lon="2.41111">
        <ele>345</ele>
        <time>2018-04-12T13:04:08Z</time>
      </trkpt>
      <trkpt lat="46.1847" lon="2.41108">
        <ele>345</ele>
        <time>2018-04-12T13:04:12Z</time>
      </trkpt>
      <trkpt lat="46.18466" lon="2.41101">
        <ele>346</ele>
        <time>2018-04-12T13:04:15Z</time>
      </trkpt>
      <trkpt lat="46.18462" lon="2.41095">
        <ele>346</ele>
        <time>2018-04-12T13:04:18Z</time>
      </trkpt>
      <trkpt lat="46.18459" lon="2.41091">
        <ele>346</ele>
        <time>2018-04-12T13:04:22Z</time>
      </trkpt>
      <trkpt lat="46.18454" lon="2.41083">
        <ele>343</ele>
        <time>2018-04-12T13:04:27Z</time>
      </trkpt>
      <trkpt lat="46.18451" lon="2.41078">
        <ele>343</ele>
        <time>2018-04-12T13:04:30Z</time>
      </trkpt>
      <trkpt lat="46.18446" lon="2.41073">
        <ele>344</ele>
        <time>2018-04-12T13:04:34Z</time>
      </trkpt>
      <trkpt lat="46.18442" lon="2.41069">
        <ele>344</ele>
        <time>2018-04-12T13:04:39Z</time>
      </trkpt>
      <trkpt lat="46.18438" lon="2.41064">
        <ele>344</ele>
        <time>2018-04-12T13:04:42Z</time>
      </trkpt>
      <trkpt lat="46.18435" lon="2.4106">
        <ele>344</ele>
        <time>2018-04-12T13:04:47Z</time>
      </trkpt>
      <trkpt lat="46.18429" lon="2.41055">
        <ele>344</ele>
        <time>2018-04-12T13:04:51Z</time>
      </trkpt>
      <trkpt lat="46.18426" lon="2.41051">
        <ele>344</ele>
        <time>2018-04-12T13:04:54Z</time>
      </trkpt>
      <trkpt lat="46.18422" lon="2.41047">
        <ele>344</ele>
        <time>2018-04-12T13:04:57Z</time>
      </trkpt>
      <trkpt lat="46.18417" lon="2.41043">
        <ele>343</ele>
        <time>2018-04-12T13:05:00Z</time>
      </trkpt>
      <trkpt lat="46.18414" lon="2.41038">
        <ele>350</ele>
        <time>2018-04-12T13:05:03Z</time>
      </trkpt>
      <trkpt lat="46.18411" lon="2.41033">
        <ele>350</ele>
        <time>2018-04-12T13:05:06Z</time>
      </trkpt>
      <trkpt lat="46.18409" lon="2.41029">
        <ele>350</ele>
        <time>2018-04-12T13:05:10Z</time>
      </trkpt>
      <trkpt lat="46.18405" lon="2.41023">
        <ele>349</ele>
        <time>2018-04-12T13:05:13Z</time>
      </trkpt>
      <trkpt lat="46.18402" lon="2.41018">
        <ele>349</ele>
        <time>2018-04-12T13:05:16Z</time>
      </trkpt>
      <trkpt lat="46.18399" lon="2.41013">
        <ele>348</ele>
        <time>2018-04-12T13:05:19Z</time>
      </trkpt>
      <trkpt lat="46.18397" lon="2.41008">
        <ele>348</ele>
        <time>2018-04-12T13:05:22Z</time>
      </trkpt>
      <trkpt lat="46.18394" lon="2.41003">
        <ele>349</ele>
        <time>2018-04-12T13:05:26Z</time>
      </trkpt>
      <trkpt lat="46.18391" lon="2.40996">
        <ele>345</ele>
        <time>2018-04-12T13:05:29Z</time>
      </trkpt>
      <trkpt lat="46.18388" lon="2.4099">
        <ele>345</ele>
        <time>2018-04-12T13:05:32Z</time>
      </trkpt>
      <trkpt lat="46.18386" lon="2.40985">
        <ele>346</ele>
        <time>2018-04-12T13:05:36Z</time>
      </trkpt>
      <trkpt lat="46.18383" lon="2.40978">
        <ele>346</ele>
        <time>2018-04-12T13:05:39Z</time>
      </trkpt>
      <trkpt lat="46.1838" lon="2.40972">
        <ele>346</ele>
        <time>2018-04-12T13:05:42Z</time>
      </trkpt>
      <trkpt lat="46.18378" lon="2.40967">
        <ele>346</ele>
        <time>2018-04-12T13:05:46Z</time>
      </trkpt>
      <trkpt lat="46.18375" lon="2.4096">
        <ele>346</ele>
        <time>2018-04-12T13:05:49Z</time>
      </trkpt>
      <trkpt lat="46.18372" lon="2.40955">
        <ele>346</ele>
        <time>2018-04-12T13:05:52Z</time>
      </trkpt>
      <trkpt lat="46.1837" lon="2.4095">
        <ele>346</ele>
        <time>2018-04-12T13:05:55Z</time>
      </trkpt>
      <trkpt lat="46.18367" lon="2.40945">
        <ele>346</ele>
        <time>2018-04-12T13:05:58Z</time>
      </trkpt>
      <trkpt lat="46.18366" lon="2.40939">
        <ele>346</ele>
        <time>2018-04-12T13:06:01Z</time>
      </trkpt>
      <trkpt lat="46.18363" lon="2.40934">
        <ele>346</ele>
        <time>2018-04-12T13:06:04Z</time>
      </trkpt>
      <trkpt lat="46.18361" lon="2.40929">
        <ele>347</ele>
        <time>2018-04-12T13:06:07Z</time>
      </trkpt>
      <trkpt lat="46.18359" lon="2.40923">
        <ele>347</ele>
        <time>2018-04-12T13:06:11Z</time>
      </trkpt>
      <trkpt lat="46.18356" lon="2.40915">
        <ele>344</ele>
        <time>2018-04-12T13:06:14Z</time>
      </trkpt>
      <trkpt lat="46.18354" lon="2.4091">
        <ele>344</ele>
        <time>2018-04-12T13:06:17Z</time>
      </trkpt>
      <trkpt lat="46.18352" lon="2.40905">
        <ele>344</ele>
        <time>2018-04-12T13:06:21Z</time>
      </trkpt>
      <trkpt lat="46.18349" lon="2.40898">
        <ele>344</ele>
        <time>2018-04-12T13:06:24Z</time>
      </trkpt>
      <trkpt lat="46.18347" lon="2.40893">
        <ele>344</ele>
        <time>2018-04-12T13:06:27Z</time>
      </trkpt>
      <trkpt lat="46.18344" lon="2.40888">
        <ele>343</ele>
        <time>2018-04-12T13:06:31Z</time>
      </trkpt>
      <trkpt lat="46.18341" lon="2.40881">
        <ele>343</ele>
        <time>2018-04-12T13:06:34Z</time>
      </trkpt>
      <trkpt lat="46.18339" lon="2.40875">
        <ele>343</ele>
        <time>2018-04-12T13:06:37Z</time>
      </trkpt>
      <trkpt lat="46.18337" lon="2.40871">
        <ele>343</ele>
        <time>2018-04-12T13:06:41Z</time>
      </trkpt>
      <trkpt lat="46.18335" lon="2.40864">
        <ele>342</ele>
        <time>2018-04-12T13:06:44Z</time>
      </trkpt>
      <trkpt lat="46.18334" lon="2.40859">
        <ele>342</ele>
        <time>2018-04-12T13:06:47Z</time>
      </trkpt>
      <trkpt lat="46.18333" lon="2.40853">
        <ele>348</ele>
        <time>2018-04-12T13:06:51Z</time>
      </trkpt>
      <trkpt lat="46.18331" lon="2.40846">
        <ele>347</ele>
        <time>2018-04-12T13:06:54Z</time>
      </trkpt>
      <trkpt lat="46.1833" lon="2.4084">
        <ele>346</ele>
        <time>2018-04-12T13:06:57Z</time>
      </trkpt>
      <trkpt lat="46.18329" lon="2.40834">
        <ele>345</ele>
        <time>2018-04-12T13:07:00Z</time>
      </trkpt>
      <trkpt lat="46.18327" lon="2.40827">
        <ele>343</ele>
        <time>2018-04-12T13:07:03Z</time>
      </trkpt>
      <trkpt lat="46.18325" lon="2.40821">
        <ele>344</ele>
        <time>2018-04-12T13:07:06Z</time>
      </trkpt>
      <trkpt lat="46.18324" lon="2.40814">
        <ele>344</ele>
        <time>2018-04-12T13:07:09Z</time>
      </trkpt>
      <trkpt lat="46.18322" lon="2.40808">
        <ele>344</ele>
        <time>2018-04-12T13:07:12Z</time>
      </trkpt>
      <trkpt lat="46.18319" lon="2.40802">
        <ele>344</ele>
        <time>2018-04-12T13:07:15Z</time>
      </trkpt>
      <trkpt lat="46.18317" lon="2.40796">
        <ele>344</ele>
        <time>2018-04-12T13:07:18Z</time>
      </trkpt>
      <trkpt lat="46.18315" lon="2.4079">
        <ele>343</ele>
        <time>2018-04-12T13:07:21Z</time>
      </trkpt>
      <trkpt lat="46.18313" lon="2.40785">
        <ele>343</ele>
        <time>2018-04-12T13:07:24Z</time>
      </trkpt>
      <trkpt lat="46.18309" lon="2.4078">
        <ele>343</ele>
        <time>2018-04-12T13:07:27Z</time>
      </trkpt>
      <trkpt lat="46.18306" lon="2.40775">
        <ele>343</ele>
        <time>2018-04-12T13:07:30Z</time>
      </trkpt>
      <trkpt lat="46.18302" lon="2.40769">
        <ele>343</ele>
        <time>2018-04-12T13:07:34Z</time>
      </trkpt>
      <trkpt lat="46.18299" lon="2.40766">
        <ele>343</ele>
        <time>2018-04-12T13:07:37Z</time>
      </trkpt>
      <trkpt lat="46.18295" lon="2.40761">
        <ele>343</ele>
        <time>2018-04-12T13:07:41Z</time>
      </trkpt>
      <trkpt lat="46.18292" lon="2.40757">
        <ele>343</ele>
        <time>2018-04-12T13:07:44Z</time>
      </trkpt>
      <trkpt lat="46.18288" lon="2.40753">
        <ele>343</ele>
        <time>2018-04-12T13:07:47Z</time>
      </trkpt>
      <trkpt lat="46.18284" lon="2.4075">
        <ele>341</ele>
        <time>2018-04-12T13:07:50Z</time>
      </trkpt>
      <trkpt lat="46.18279" lon="2.40745">
        <ele>341</ele>
        <time>2018-04-12T13:07:54Z</time>
      </trkpt>
      <trkpt lat="46.18274" lon="2.40743">
        <ele>341</ele>
        <time>2018-04-12T13:07:58Z</time>
      </trkpt>
      <trkpt lat="46.18269" lon="2.40744">
        <ele>341</ele>
        <time>2018-04-12T13:08:01Z</time>
      </trkpt>
      <trkpt lat="46.18266" lon="2.40747">
        <ele>341</ele>
        <time>2018-04-12T13:08:04Z</time>
      </trkpt>
      <trkpt lat="46.18262" lon="2.40751">
        <ele>343</ele>
        <time>2018-04-12T13:08:07Z</time>
      </trkpt>
      <trkpt lat="46.18258" lon="2.40755">
        <ele>343</ele>
        <time>2018-04-12T13:08:10Z</time>
      </trkpt>
      <trkpt lat="46.18254" lon="2.4076">
        <ele>343</ele>
        <time>2018-04-12T13:08:13Z</time>
      </trkpt>
      <trkpt lat="46.1825" lon="2.40765">
        <ele>343</ele>
        <time>2018-04-12T13:08:17Z</time>
      </trkpt>
      <trkpt lat="46.18248" lon="2.40761">
        <ele>344</ele>
        <time>2018-04-12T13:08:21Z</time>
      </trkpt>
      <trkpt lat="46.18246" lon="2.40756">
        <ele>343</ele>
        <time>2018-04-12T13:08:24Z</time>
      </trkpt>
      <trkpt lat="46.18247" lon="2.40752">
        <ele>343</ele>
        <time>2018-04-12T13:08:27Z</time>
      </trkpt>
      <trkpt lat="46.18251" lon="2.40747">
        <ele>342</ele>
        <time>2018-04-12T13:08:31Z</time>
      </trkpt>
      <trkpt lat="46.18255" lon="2.40741">
        <ele>342</ele>
        <time>2018-04-12T13:08:35Z</time>
      </trkpt>
      <trkpt lat="46.18258" lon="2.40736">
        <ele>342</ele>
        <time>2018-04-12T13:08:39Z</time>
      </trkpt>
      <trkpt lat="46.18261" lon="2.40731">
        <ele>341</ele>
        <time>2018-04-12T13:08:42Z</time>
      </trkpt>
      <trkpt lat="46.18264" lon="2.40727">
        <ele>341</ele>
        <time>2018-04-12T13:08:45Z</time>
      </trkpt>
      <trkpt lat="46.18266" lon="2.40722">
        <ele>341</ele>
        <time>2018-04-12T13:08:48Z</time>
      </trkpt>
      <trkpt lat="46.18268" lon="2.40717">
        <ele>341</ele>
        <time>2018-04-12T13:08:51Z</time>
      </trkpt>
      <trkpt lat="46.1827" lon="2.40712">
        <ele>341</ele>
        <time>2018-04-12T13:08:54Z</time>
      </trkpt>
      <trkpt lat="46.18271" lon="2.40706">
        <ele>341</ele>
        <time>2018-04-12T13:08:57Z</time>
      </trkpt>
      <trkpt lat="46.18271" lon="2.40702">
        <ele>341</ele>
        <time>2018-04-12T13:09:03Z</time>
      </trkpt>
      <trkpt lat="46.1827" lon="2.407">
        <ele>341</ele>
        <time>2018-04-12T13:09:06Z</time>
      </trkpt>
      <trkpt lat="46.18268" lon="2.40698">
        <ele>341</ele>
        <time>2018-04-12T13:09:14Z</time>
      </trkpt>
      <trkpt lat="46.18268" lon="2.40692">
        <ele>341</ele>
        <time>2018-04-12T13:09:17Z</time>
      </trkpt>
      <trkpt lat="46.18268" lon="2.40687">
        <ele>341</ele>
        <time>2018-04-12T13:09:20Z</time>
      </trkpt>
      <trkpt lat="46.18268" lon="2.40681">
        <ele>341</ele>
        <time>2018-04-12T13:09:23Z</time>
      </trkpt>
      <trkpt lat="46.18268" lon="2.40675">
        <ele>341</ele>
        <time>2018-04-12T13:09:26Z</time>
      </trkpt>
      <trkpt lat="46.18268" lon="2.40669">
        <ele>341</ele>
        <time>2018-04-12T13:09:29Z</time>
      </trkpt>
      <trkpt lat="46.18268" lon="2.40662">
        <ele>344</ele>
        <time>2018-04-12T13:09:32Z</time>
      </trkpt>
      <trkpt lat="46.18268" lon="2.40656">
        <ele>344</ele>
        <time>2018-04-12T13:09:35Z</time>
      </trkpt>
      <trkpt lat="46.18267" lon="2.4065">
        <ele>345</ele>
        <time>2018-04-12T13:09:38Z</time>
      </trkpt>
      <trkpt lat="46.18267" lon="2.40644">
        <ele>345</ele>
        <time>2018-04-12T13:09:41Z</time>
      </trkpt>
      <trkpt lat="46.18267" lon="2.40637">
        <ele>346</ele>
        <time>2018-04-12T13:09:44Z</time>
      </trkpt>
      <trkpt lat="46.18269" lon="2.40632">
        <ele>346</ele>
        <time>2018-04-12T13:09:47Z</time>
      </trkpt>
      <trkpt lat="46.18271" lon="2.40625">
        <ele>347</ele>
        <time>2018-04-12T13:09:51Z</time>
      </trkpt>
      <trkpt lat="46.18272" lon="2.40621">
        <ele>347</ele>
        <time>2018-04-12T13:09:54Z</time>
      </trkpt>
      <trkpt lat="46.18276" lon="2.40619">
        <ele>347</ele>
        <time>2018-04-12T13:09:57Z</time>
      </trkpt>
      <trkpt lat="46.1828" lon="2.40617">
        <ele>347</ele>
        <time>2018-04-12T13:10:01Z</time>
      </trkpt>
      <trkpt lat="46.18284" lon="2.40617">
        <ele>347</ele>
        <time>2018-04-12T13:10:04Z</time>
      </trkpt>
      <trkpt lat="46.18288" lon="2.40617">
        <ele>347</ele>
        <time>2018-04-12T13:10:07Z</time>
      </trkpt>
      <trkpt lat="46.18292" lon="2.40616">
        <ele>346</ele>
        <time>2018-04-12T13:10:10Z</time>
      </trkpt>
      <trkpt lat="46.18297" lon="2.40616">
        <ele>346</ele>
        <time>2018-04-12T13:10:13Z</time>
      </trkpt>
      <trkpt lat="46.18301" lon="2.40616">
        <ele>346</ele>
        <time>2018-04-12T13:10:16Z</time>
      </trkpt>
      <trkpt lat="46.18306" lon="2.40616">
        <ele>346</ele>
        <time>2018-04-12T13:10:19Z</time>
      </trkpt>
      <trkpt lat="46.1831" lon="2.40616">
        <ele>346</ele>
        <time>2018-04-12T13:10:22Z</time>
      </trkpt>
      <trkpt lat="46.18314" lon="2.40616">
        <ele>346</ele>
        <time>2018-04-12T13:10:25Z</time>
      </trkpt>
      <trkpt lat="46.18319" lon="2.40616">
        <ele>346</ele>
        <time>2018-04-12T13:10:28Z</time>
      </trkpt>
      <trkpt lat="46.18323" lon="2.40615">
        <ele>346</ele>
        <time>2018-04-12T13:10:31Z</time>
      </trkpt>
      <trkpt lat="46.18329" lon="2.40614">
        <ele>346</ele>
        <time>2018-04-12T13:10:34Z</time>
      </trkpt>
      <trkpt lat="46.18333" lon="2.40613">
        <ele>342</ele>
        <time>2018-04-12T13:10:37Z</time>
      </trkpt>
      <trkpt lat="46.18338" lon="2.40612">
        <ele>342</ele>
        <time>2018-04-12T13:10:40Z</time>
      </trkpt>
      <trkpt lat="46.18343" lon="2.40611">
        <ele>342</ele>
        <time>2018-04-12T13:10:44Z</time>
      </trkpt>
      <trkpt lat="46.18347" lon="2.40611">
        <ele>342</ele>
        <time>2018-04-12T13:10:47Z</time>
      </trkpt>
      <trkpt lat="46.18352" lon="2.40611">
        <ele>341</ele>
        <time>2018-04-12T13:10:50Z</time>
      </trkpt>
      <trkpt lat="46.18356" lon="2.40612">
        <ele>341</ele>
        <time>2018-04-12T13:10:53Z</time>
      </trkpt>
      <trkpt lat="46.1836" lon="2.40612">
        <ele>341</ele>
        <time>2018-04-12T13:10:56Z</time>
      </trkpt>
      <trkpt lat="46.18365" lon="2.40612">
        <ele>341</ele>
        <time>2018-04-12T13:10:59Z</time>
      </trkpt>
      <trkpt lat="46.1837" lon="2.40611">
        <ele>341</ele>
        <time>2018-04-12T13:11:02Z</time>
      </trkpt>
      <trkpt lat="46.18374" lon="2.4061">
        <ele>340</ele>
        <time>2018-04-12T13:11:05Z</time>
      </trkpt>
      <trkpt lat="46.18378" lon="2.40609">
        <ele>340</ele>
        <time>2018-04-12T13:11:08Z</time>
      </trkpt>
      <trkpt lat="46.18382" lon="2.40608">
        <ele>340</ele>
        <time>2018-04-12T13:11:11Z</time>
      </trkpt>
      <trkpt lat="46.18387" lon="2.40607">
        <ele>340</ele>
        <time>2018-04-12T13:11:14Z</time>
      </trkpt>
      <trkpt lat="46.18391" lon="2.40606">
        <ele>340</ele>
        <time>2018-04-12T13:11:17Z</time>
      </trkpt>
      <trkpt lat="46.18396" lon="2.40605">
        <ele>340</ele>
        <time>2018-04-12T13:11:20Z</time>
      </trkpt>
      <trkpt lat="46.184" lon="2.40603">
        <ele>339</ele>
        <time>2018-04-12T13:11:23Z</time>
      </trkpt>
      <trkpt lat="46.18404" lon="2.40603">
        <ele>339</ele>
        <time>2018-04-12T13:11:26Z</time>
      </trkpt>
      <trkpt lat="46.18409" lon="2.40602">
        <ele>339</ele>
        <time>2018-04-12T13:11:29Z</time>
      </trkpt>
      <trkpt lat="46.18413" lon="2.40602">
        <ele>339</ele>
        <time>2018-04-12T13:11:32Z</time>
      </trkpt>
      <trkpt lat="46.18417" lon="2.40601">
        <ele>337</ele>
        <time>2018-04-12T13:11:35Z</time>
      </trkpt>
      <trkpt lat="46.18422" lon="2.40601">
        <ele>337</ele>
        <time>2018-04-12T13:11:38Z</time>
      </trkpt>
      <trkpt lat="46.18426" lon="2.40602">
        <ele>337</ele>
        <time>2018-04-12T13:11:41Z</time>
      </trkpt>
      <trkpt lat="46.18431" lon="2.40603">
        <ele>337</ele>
        <time>2018-04-12T13:11:44Z</time>
      </trkpt>
      <trkpt lat="46.18435" lon="2.40605">
        <ele>336</ele>
        <time>2018-04-12T13:11:47Z</time>
      </trkpt>
      <trkpt lat="46.18439" lon="2.40606">
        <ele>336</ele>
        <time>2018-04-12T13:11:50Z</time>
      </trkpt>
      <trkpt lat="46.18442" lon="2.40608">
        <ele>336</ele>
        <time>2018-04-12T13:11:53Z</time>
      </trkpt>
      <trkpt lat="46.18445" lon="2.40609">
        <ele>336</ele>
        <time>2018-04-12T13:11:58Z</time>
      </trkpt>
      <trkpt lat="46.18446" lon="2.40609">
        <ele>336</ele>
        <time>2018-04-12T13:12:08Z</time>
      </trkpt>
      <trkpt lat="46.18448" lon="2.40609">
        <ele>336</ele>
        <time>2018-04-12T13:12:15Z</time>
      </trkpt>
      <trkpt lat="46.18449" lon="2.40609">
        <ele>336</ele>
        <time>2018-04-12T13:12:37Z</time>
      </trkpt>
      <trkpt lat="46.1845" lon="2.40609">
        <ele>336</ele>
        <time>2018-04-12T13:12:52Z</time>
      </trkpt>
      <trkpt lat="46.18451" lon="2.40609">
        <ele>336</ele>
        <time>2018-04-12T13:13:08Z</time>
      </trkpt>
      <trkpt lat="46.18455" lon="2.40612">
        <ele>336</ele>
        <time>2018-04-12T13:13:12Z</time>
      </trkpt>
      <trkpt lat="46.18459" lon="2.40616">
        <ele>336</ele>
        <time>2018-04-12T13:13:16Z</time>
      </trkpt>
      <trkpt lat="46.18462" lon="2.40619">
        <ele>336</ele>
        <time>2018-04-12T13:13:20Z</time>
      </trkpt>
      <trkpt lat="46.18467" lon="2.40622">
        <ele>336</ele>
        <time>2018-04-12T13:13:24Z</time>
      </trkpt>
      <trkpt lat="46.1847" lon="2.40626">
        <ele>336</ele>
        <time>2018-04-12T13:13:28Z</time>
      </trkpt>
      <trkpt lat="46.18474" lon="2.40629">
        <ele>336</ele>
        <time>2018-04-12T13:13:31Z</time>
      </trkpt>
      <trkpt lat="46.18477" lon="2.40631">
        <ele>335</ele>
        <time>2018-04-12T13:13:34Z</time>
      </trkpt>
      <trkpt lat="46.18481" lon="2.40634">
        <ele>335</ele>
        <time>2018-04-12T13:13:37Z</time>
      </trkpt>
      <trkpt lat="46.18484" lon="2.40637">
        <ele>335</ele>
        <time>2018-04-12T13:13:40Z</time>
      </trkpt>
      <trkpt lat="46.18488" lon="2.4064">
        <ele>335</ele>
        <time>2018-04-12T13:13:44Z</time>
      </trkpt>
      <trkpt lat="46.18492" lon="2.40644">
        <ele>335</ele>
        <time>2018-04-12T13:13:48Z</time>
      </trkpt>
      <trkpt lat="46.18495" lon="2.40647">
        <ele>335</ele>
        <time>2018-04-12T13:13:52Z</time>
      </trkpt>
      <trkpt lat="46.18499" lon="2.4065">
        <ele>335</ele>
        <time>2018-04-12T13:13:55Z</time>
      </trkpt>
      <trkpt lat="46.18503" lon="2.40654">
        <ele>335</ele>
        <time>2018-04-12T13:13:59Z</time>
      </trkpt>
      <trkpt lat="46.18507" lon="2.40657">
        <ele>335</ele>
        <time>2018-04-12T13:14:02Z</time>
      </trkpt>
      <trkpt lat="46.18511" lon="2.4066">
        <ele>335</ele>
        <time>2018-04-12T13:14:05Z</time>
      </trkpt>
      <trkpt lat="46.18514" lon="2.40663">
        <ele>335</ele>
        <time>2018-04-12T13:14:08Z</time>
      </trkpt>
      <trkpt lat="46.18518" lon="2.40666">
        <ele>335</ele>
        <time>2018-04-12T13:14:11Z</time>
      </trkpt>
      <trkpt lat="46.18522" lon="2.40669">
        <ele>335</ele>
        <time>2018-04-12T13:14:14Z</time>
      </trkpt>
      <trkpt lat="46.18525" lon="2.40673">
        <ele>335</ele>
        <time>2018-04-12T13:14:17Z</time>
      </trkpt>
      <trkpt lat="46.18529" lon="2.40676">
        <ele>335</ele>
        <time>2018-04-12T13:14:20Z</time>
      </trkpt>
      <trkpt lat="46.18533" lon="2.40679">
        <ele>335</ele>
        <time>2018-04-12T13:14:23Z</time>
      </trkpt>
      <trkpt lat="46.18536" lon="2.40682">
        <ele>335</ele>
        <time>2018-04-12T13:14:26Z</time>
      </trkpt>
      <trkpt lat="46.1854" lon="2.40685">
        <ele>335</ele>
        <time>2018-04-12T13:14:29Z</time>
      </trkpt>
      <trkpt lat="46.18543" lon="2.40688">
        <ele>335</ele>
        <time>2018-04-12T13:14:32Z</time>
      </trkpt>
      <trkpt lat="46.18548" lon="2.40691">
        <ele>335</ele>
        <time>2018-04-12T13:14:36Z</time>
      </trkpt>
      <trkpt lat="46.18551" lon="2.40694">
        <ele>335</ele>
        <time>2018-04-12T13:14:39Z</time>
      </trkpt>
      <trkpt lat="46.18555" lon="2.40696">
        <ele>335</ele>
        <time>2018-04-12T13:14:42Z</time>
      </trkpt>
      <trkpt lat="46.18559" lon="2.40698">
        <ele>335</ele>
        <time>2018-04-12T13:14:45Z</time>
      </trkpt>
      <trkpt lat="46.18562" lon="2.407">
        <ele>335</ele>
        <time>2018-04-12T13:14:48Z</time>
      </trkpt>
      <trkpt lat="46.18566" lon="2.40703">
        <ele>335</ele>
        <time>2018-04-12T13:14:51Z</time>
      </trkpt>
      <trkpt lat="46.18569" lon="2.40704">
        <ele>335</ele>
        <time>2018-04-12T13:14:54Z</time>
      </trkpt>
      <trkpt lat="46.18572" lon="2.40706">
        <ele>335</ele>
        <time>2018-04-12T13:14:57Z</time>
      </trkpt>
      <trkpt lat="46.18576" lon="2.40706">
        <ele>335</ele>
        <time>2018-04-12T13:15:00Z</time>
      </trkpt>
      <trkpt lat="46.1858" lon="2.40707">
        <ele>335</ele>
        <time>2018-04-12T13:15:03Z</time>
      </trkpt>
      <trkpt lat="46.18585" lon="2.40707">
        <ele>335</ele>
        <time>2018-04-12T13:15:06Z</time>
      </trkpt>
      <trkpt lat="46.18589" lon="2.40707">
        <ele>335</ele>
        <time>2018-04-12T13:15:09Z</time>
      </trkpt>
      <trkpt lat="46.18594" lon="2.40706">
        <ele>334</ele>
        <time>2018-04-12T13:15:12Z</time>
      </trkpt>
      <trkpt lat="46.18598" lon="2.40705">
        <ele>334</ele>
        <time>2018-04-12T13:15:15Z</time>
      </trkpt>
      <trkpt lat="46.18603" lon="2.40703">
        <ele>334</ele>
        <time>2018-04-12T13:15:18Z</time>
      </trkpt>
      <trkpt lat="46.18607" lon="2.407">
        <ele>334</ele>
        <time>2018-04-12T13:15:21Z</time>
      </trkpt>
      <trkpt lat="46.1861" lon="2.40698">
        <ele>334</ele>
        <time>2018-04-12T13:15:24Z</time>
      </trkpt>
      <trkpt lat="46.18613" lon="2.40694">
        <ele>334</ele>
        <time>2018-04-12T13:15:27Z</time>
      </trkpt>
      <trkpt lat="46.18618" lon="2.4069">
        <ele>334</ele>
        <time>2018-04-12T13:15:30Z</time>
      </trkpt>
      <trkpt lat="46.18621" lon="2.40686">
        <ele>334</ele>
        <time>2018-04-12T13:15:33Z</time>
      </trkpt>
      <trkpt lat="46.18625" lon="2.40682">
        <ele>334</ele>
        <time>2018-04-12T13:15:36Z</time>
      </trkpt>
      <trkpt lat="46.18627" lon="2.40677">
        <ele>334</ele>
        <time>2018-04-12T13:15:39Z</time>
      </trkpt>
      <trkpt lat="46.1863" lon="2.40672">
        <ele>334</ele>
        <time>2018-04-12T13:15:42Z</time>
      </trkpt>
      <trkpt lat="46.18633" lon="2.40667">
        <ele>334</ele>
        <time>2018-04-12T13:15:45Z</time>
      </trkpt>
      <trkpt lat="46.18634" lon="2.40662">
        <ele>334</ele>
        <time>2018-04-12T13:15:48Z</time>
      </trkpt>
      <trkpt lat="46.18636" lon="2.40657">
        <ele>334</ele>
        <time>2018-04-12T13:15:51Z</time>
      </trkpt>
      <trkpt lat="46.18638" lon="2.40652">
        <ele>334</ele>
        <time>2018-04-12T13:15:54Z</time>
      </trkpt>
      <trkpt lat="46.18639" lon="2.40648">
        <ele>334</ele>
        <time>2018-04-12T13:15:57Z</time>
      </trkpt>
      <trkpt lat="46.18641" lon="2.40643">
        <ele>334</ele>
        <time>2018-04-12T13:16:00Z</time>
      </trkpt>
      <trkpt lat="46.18643" lon="2.40638">
        <ele>334</ele>
        <time>2018-04-12T13:16:04Z</time>
      </trkpt>
      <trkpt lat="46.18643" lon="2.40636">
        <ele>334</ele>
        <time>2018-04-12T13:16:07Z</time>
      </trkpt>
      <trkpt lat="46.18644" lon="2.40631">
        <ele>334</ele>
        <time>2018-04-12T13:16:10Z</time>
      </trkpt>
      <trkpt lat="46.18646" lon="2.40627">
        <ele>334</ele>
        <time>2018-04-12T13:16:13Z</time>
      </trkpt>
      <trkpt lat="46.18648" lon="2.40622">
        <ele>334</ele>
        <time>2018-04-12T13:16:16Z</time>
      </trkpt>
      <trkpt lat="46.1865" lon="2.40618">
        <ele>334</ele>
        <time>2018-04-12T13:16:19Z</time>
      </trkpt>
      <trkpt lat="46.18652" lon="2.40613">
        <ele>333</ele>
        <time>2018-04-12T13:16:22Z</time>
      </trkpt>
      <trkpt lat="46.18654" lon="2.40608">
        <ele>333</ele>
        <time>2018-04-12T13:16:25Z</time>
      </trkpt>
      <trkpt lat="46.18656" lon="2.40603">
        <ele>333</ele>
        <time>2018-04-12T13:16:28Z</time>
      </trkpt>
      <trkpt lat="46.18658" lon="2.40598">
        <ele>333</ele>
        <time>2018-04-12T13:16:31Z</time>
      </trkpt>
      <trkpt lat="46.1866" lon="2.40594">
        <ele>333</ele>
        <time>2018-04-12T13:16:34Z</time>
      </trkpt>
      <trkpt lat="46.18662" lon="2.40589">
        <ele>333</ele>
        <time>2018-04-12T13:16:37Z</time>
      </trkpt>
      <trkpt lat="46.18665" lon="2.40585">
        <ele>333</ele>
        <time>2018-04-12T13:16:40Z</time>
      </trkpt>
      <trkpt lat="46.18667" lon="2.4058">
        <ele>334</ele>
        <time>2018-04-12T13:16:43Z</time>
      </trkpt>
      <trkpt lat="46.18671" lon="2.40575">
        <ele>336</ele>
        <time>2018-04-12T13:16:47Z</time>
      </trkpt>
      <trkpt lat="46.18674" lon="2.4057">
        <ele>337</ele>
        <time>2018-04-12T13:16:51Z</time>
      </trkpt>
      <trkpt lat="46.18677" lon="2.40567">
        <ele>338</ele>
        <time>2018-04-12T13:16:54Z</time>
      </trkpt>
      <trkpt lat="46.1868" lon="2.40565">
        <ele>338</ele>
        <time>2018-04-12T13:16:57Z</time>
      </trkpt>
      <trkpt lat="46.18684" lon="2.40563">
        <ele>339</ele>
        <time>2018-04-12T13:17:00Z</time>
      </trkpt>
      <trkpt lat="46.18688" lon="2.40561">
        <ele>339</ele>
        <time>2018-04-12T13:17:03Z</time>
      </trkpt>
      <trkpt lat="46.18692" lon="2.4056">
        <ele>340</ele>
        <time>2018-04-12T13:17:06Z</time>
      </trkpt>
      <trkpt lat="46.18697" lon="2.40559">
        <ele>340</ele>
        <time>2018-04-12T13:17:09Z</time>
      </trkpt>
      <trkpt lat="46.18701" lon="2.4056">
        <ele>341</ele>
        <time>2018-04-12T13:17:12Z</time>
      </trkpt>
      <trkpt lat="46.18705" lon="2.40562">
        <ele>341</ele>
        <time>2018-04-12T13:17:15Z</time>
      </trkpt>
      <trkpt lat="46.18709" lon="2.40564">
        <ele>341</ele>
        <time>2018-04-12T13:17:18Z</time>
      </trkpt>
      <trkpt lat="46.18713" lon="2.40565">
        <ele>342</ele>
        <time>2018-04-12T13:17:21Z</time>
      </trkpt>
      <trkpt lat="46.18718" lon="2.40567">
        <ele>342</ele>
        <time>2018-04-12T13:17:24Z</time>
      </trkpt>
      <trkpt lat="46.18721" lon="2.40569">
        <ele>343</ele>
        <time>2018-04-12T13:17:27Z</time>
      </trkpt>
      <trkpt lat="46.18726" lon="2.40571">
        <ele>343</ele>
        <time>2018-04-12T13:17:30Z</time>
      </trkpt>
      <trkpt lat="46.18729" lon="2.40574">
        <ele>344</ele>
        <time>2018-04-12T13:17:33Z</time>
      </trkpt>
      <trkpt lat="46.18733" lon="2.40578">
        <ele>344</ele>
        <time>2018-04-12T13:17:36Z</time>
      </trkpt>
      <trkpt lat="46.18737" lon="2.40584">
        <ele>343</ele>
        <time>2018-04-12T13:17:40Z</time>
      </trkpt>
      <trkpt lat="46.18741" lon="2.40589">
        <ele>344</ele>
        <time>2018-04-12T13:17:44Z</time>
      </trkpt>
      <trkpt lat="46.18743" lon="2.40594">
        <ele>344</ele>
        <time>2018-04-12T13:17:47Z</time>
      </trkpt>
      <trkpt lat="46.18745" lon="2.40599">
        <ele>343</ele>
        <time>2018-04-12T13:17:50Z</time>
      </trkpt>
      <trkpt lat="46.18747" lon="2.40604">
        <ele>342</ele>
        <time>2018-04-12T13:17:53Z</time>
      </trkpt>
      <trkpt lat="46.1875" lon="2.4061">
        <ele>350</ele>
        <time>2018-04-12T13:17:57Z</time>
      </trkpt>
      <trkpt lat="46.18752" lon="2.40615">
        <ele>350</ele>
        <time>2018-04-12T13:18:00Z</time>
      </trkpt>
      <trkpt lat="46.18753" lon="2.4062">
        <ele>350</ele>
        <time>2018-04-12T13:18:03Z</time>
      </trkpt>
      <trkpt lat="46.18754" lon="2.40624">
        <ele>349</ele>
        <time>2018-04-12T13:18:06Z</time>
      </trkpt>
      <trkpt lat="46.18755" lon="2.40629">
        <ele>349</ele>
        <time>2018-04-12T13:18:09Z</time>
      </trkpt>
      <trkpt lat="46.18756" lon="2.40635">
        <ele>349</ele>
        <time>2018-04-12T13:18:12Z</time>
      </trkpt>
      <trkpt lat="46.18757" lon="2.4064">
        <ele>348</ele>
        <time>2018-04-12T13:18:15Z</time>
      </trkpt>
      <trkpt lat="46.18758" lon="2.40646">
        <ele>347</ele>
        <time>2018-04-12T13:18:18Z</time>
      </trkpt>
      <trkpt lat="46.18763" lon="2.40648">
        <ele>348</ele>
        <time>2018-04-12T13:18:22Z</time>
      </trkpt>
      <trkpt lat="46.18766" lon="2.40649">
        <ele>348</ele>
        <time>2018-04-12T13:18:25Z</time>
      </trkpt>
      <trkpt lat="46.18773" lon="2.4065">
        <ele>349</ele>
        <time>2018-04-12T13:18:28Z</time>
      </trkpt>
      <trkpt lat="46.18778" lon="2.40651">
        <ele>349</ele>
        <time>2018-04-12T13:18:32Z</time>
      </trkpt>
      <trkpt lat="46.18783" lon="2.40652">
        <ele>350</ele>
        <time>2018-04-12T13:18:35Z</time>
      </trkpt>
      <trkpt lat="46.18786" lon="2.40653">
        <ele>350</ele>
        <time>2018-04-12T13:18:39Z</time>
      </trkpt>
      <trkpt lat="46.1879" lon="2.40653">
        <ele>351</ele>
        <time>2018-04-12T13:18:42Z</time>
      </trkpt>
      <trkpt lat="46.18794" lon="2.40654">
        <ele>351</ele>
        <time>2018-04-12T13:18:45Z</time>
      </trkpt>
      <trkpt lat="46.18798" lon="2.40655">
        <ele>352</ele>
        <time>2018-04-12T13:18:48Z</time>
      </trkpt>
      <trkpt lat="46.18802" lon="2.40656">
        <ele>352</ele>
        <time>2018-04-12T13:18:52Z</time>
      </trkpt>
      <trkpt lat="46.18805" lon="2.40655">
        <ele>353</ele>
        <time>2018-04-12T13:18:55Z</time>
      </trkpt>
      <trkpt lat="46.18809" lon="2.40656">
        <ele>353</ele>
        <time>2018-04-12T13:18:59Z</time>
      </trkpt>
      <trkpt lat="46.18813" lon="2.40655">
        <ele>353</ele>
        <time>2018-04-12T13:19:03Z</time>
      </trkpt>
      <trkpt lat="46.18816" lon="2.40655">
        <ele>354</ele>
        <time>2018-04-12T13:19:06Z</time>
      </trkpt>
      <trkpt lat="46.1882" lon="2.40656">
        <ele>354</ele>
        <time>2018-04-12T13:19:10Z</time>
      </trkpt>
      <trkpt lat="46.18823" lon="2.40657">
        <ele>354</ele>
        <time>2018-04-12T13:19:13Z</time>
      </trkpt>
      <trkpt lat="46.18826" lon="2.40655">
        <ele>354</ele>
        <time>2018-04-12T13:19:17Z</time>
      </trkpt>
      <trkpt lat="46.18829" lon="2.40654">
        <ele>354</ele>
        <time>2018-04-12T13:19:20Z</time>
      </trkpt>
      <trkpt lat="46.18833" lon="2.40654">
        <ele>354</ele>
        <time>2018-04-12T13:19:23Z</time>
      </trkpt>
      <trkpt lat="46.18838" lon="2.40654">
        <ele>357</ele>
        <time>2018-04-12T13:19:26Z</time>
      </trkpt>
      <trkpt lat="46.18844" lon="2.40653">
        <ele>358</ele>
        <time>2018-04-12T13:19:29Z</time>
      </trkpt>
      <trkpt lat="46.18848" lon="2.40654">
        <ele>358</ele>
        <time>2018-04-12T13:19:33Z</time>
      </trkpt>
      <trkpt lat="46.18852" lon="2.40654">
        <ele>358</ele>
        <time>2018-04-12T13:19:37Z</time>
      </trkpt>
      <trkpt lat="46.18856" lon="2.40655">
        <ele>358</ele>
        <time>2018-04-12T13:19:40Z</time>
      </trkpt>
      <trkpt lat="46.18859" lon="2.40656">
        <ele>358</ele>
        <time>2018-04-12T13:19:43Z</time>
      </trkpt>
      <trkpt lat="46.18862" lon="2.40655">
        <ele>358</ele>
        <time>2018-04-12T13:19:47Z</time>
      </trkpt>
      <trkpt lat="46.18865" lon="2.40655">
        <ele>359</ele>
        <time>2018-04-12T13:19:50Z</time>
      </trkpt>
      <trkpt lat="46.18868" lon="2.40654">
        <ele>359</ele>
        <time>2018-04-12T13:19:53Z</time>
      </trkpt>
      <trkpt lat="46.18871" lon="2.40653">
        <ele>359</ele>
        <time>2018-04-12T13:19:56Z</time>
      </trkpt>
      <trkpt lat="46.18877" lon="2.40652">
        <ele>359</ele>
        <time>2018-04-12T13:20:00Z</time>
      </trkpt>
      <trkpt lat="46.18882" lon="2.40649">
        <ele>359</ele>
        <time>2018-04-12T13:20:03Z</time>
      </trkpt>
      <trkpt lat="46.18888" lon="2.40647">
        <ele>359</ele>
        <time>2018-04-12T13:20:07Z</time>
      </trkpt>
      <trkpt lat="46.18891" lon="2.40647">
        <ele>359</ele>
        <time>2018-04-12T13:20:10Z</time>
      </trkpt>
      <trkpt lat="46.18895" lon="2.40646">
        <ele>359</ele>
        <time>2018-04-12T13:20:13Z</time>
      </trkpt>
      <trkpt lat="46.18898" lon="2.40645">
        <ele>359</ele>
        <time>2018-04-12T13:20:18Z</time>
      </trkpt>
      <trkpt lat="46.18902" lon="2.40644">
        <ele>359</ele>
        <time>2018-04-12T13:20:21Z</time>
      </trkpt>
      <trkpt lat="46.18905" lon="2.40644">
        <ele>358</ele>
        <time>2018-04-12T13:20:24Z</time>
      </trkpt>
      <trkpt lat="46.18908" lon="2.40641">
        <ele>359</ele>
        <time>2018-04-12T13:20:29Z</time>
      </trkpt>
      <trkpt lat="46.1891" lon="2.40639">
        <ele>359</ele>
        <time>2018-04-12T13:20:32Z</time>
      </trkpt>
      <trkpt lat="46.18911" lon="2.40635">
        <ele>359</ele>
        <time>2018-04-12T13:20:36Z</time>
      </trkpt>
      <trkpt lat="46.18915" lon="2.40632">
        <ele>359</ele>
        <time>2018-04-12T13:20:39Z</time>
      </trkpt>
      <trkpt lat="46.18919" lon="2.40628">
        <ele>363</ele>
        <time>2018-04-12T13:20:42Z</time>
      </trkpt>
      <trkpt lat="46.18923" lon="2.40624">
        <ele>363</ele>
        <time>2018-04-12T13:20:46Z</time>
      </trkpt>
      <trkpt lat="46.18926" lon="2.4062">
        <ele>363</ele>
        <time>2018-04-12T13:20:49Z</time>
      </trkpt>
      <trkpt lat="46.18929" lon="2.40617">
        <ele>364</ele>
        <time>2018-04-12T13:20:52Z</time>
      </trkpt>
      <trkpt lat="46.18931" lon="2.40612">
        <ele>364</ele>
        <time>2018-04-12T13:20:56Z</time>
      </trkpt>
      <trkpt lat="46.18933" lon="2.40608">
        <ele>364</ele>
        <time>2018-04-12T13:20:59Z</time>
      </trkpt>
      <trkpt lat="46.18934" lon="2.40603">
        <ele>364</ele>
        <time>2018-04-12T13:21:03Z</time>
      </trkpt>
      <trkpt lat="46.18935" lon="2.40598">
        <ele>364</ele>
        <time>2018-04-12T13:21:07Z</time>
      </trkpt>
      <trkpt lat="46.18937" lon="2.40593">
        <ele>364</ele>
        <time>2018-04-12T13:21:10Z</time>
      </trkpt>
      <trkpt lat="46.18937" lon="2.40587">
        <ele>364</ele>
        <time>2018-04-12T13:21:13Z</time>
      </trkpt>
      <trkpt lat="46.18938" lon="2.40582">
        <ele>366</ele>
        <time>2018-04-12T13:21:16Z</time>
      </trkpt>
      <trkpt lat="46.18939" lon="2.40576">
        <ele>366</ele>
        <time>2018-04-12T13:21:19Z</time>
      </trkpt>
      <trkpt lat="46.18939" lon="2.40572">
        <ele>366</ele>
        <time>2018-04-12T13:21:22Z</time>
      </trkpt>
      <trkpt lat="46.1894" lon="2.40567">
        <ele>366</ele>
        <time>2018-04-12T13:21:25Z</time>
      </trkpt>
      <trkpt lat="46.1894" lon="2.40563">
        <ele>366</ele>
        <time>2018-04-12T13:21:28Z</time>
      </trkpt>
      <trkpt lat="46.18941" lon="2.40559">
        <ele>366</ele>
        <time>2018-04-12T13:21:31Z</time>
      </trkpt>
      <trkpt lat="46.1894" lon="2.40554">
        <ele>366</ele>
        <time>2018-04-12T13:21:34Z</time>
      </trkpt>
      <trkpt lat="46.18941" lon="2.40549">
        <ele>366</ele>
        <time>2018-04-12T13:21:37Z</time>
      </trkpt>
      <trkpt lat="46.18941" lon="2.40544">
        <ele>366</ele>
        <time>2018-04-12T13:21:40Z</time>
      </trkpt>
      <trkpt lat="46.18942" lon="2.40539">
        <ele>367</ele>
        <time>2018-04-12T13:21:43Z</time>
      </trkpt>
      <trkpt lat="46.18943" lon="2.40533">
        <ele>367</ele>
        <time>2018-04-12T13:21:47Z</time>
      </trkpt>
      <trkpt lat="46.18945" lon="2.40528">
        <ele>367</ele>
        <time>2018-04-12T13:21:50Z</time>
      </trkpt>
      <trkpt lat="46.18947" lon="2.40524">
        <ele>367</ele>
        <time>2018-04-12T13:21:53Z</time>
      </trkpt>
      <trkpt lat="46.18948" lon="2.40519">
        <ele>367</ele>
        <time>2018-04-12T13:21:57Z</time>
      </trkpt>
      <trkpt lat="46.18948" lon="2.40513">
        <ele>367</ele>
        <time>2018-04-12T13:22:01Z</time>
      </trkpt>
      <trkpt lat="46.18949" lon="2.40508">
        <ele>367</ele>
        <time>2018-04-12T13:22:05Z</time>
      </trkpt>
      <trkpt lat="46.1895" lon="2.40503">
        <ele>367</ele>
        <time>2018-04-12T13:22:08Z</time>
      </trkpt>
      <trkpt lat="46.18951" lon="2.40497">
        <ele>367</ele>
        <time>2018-04-12T13:22:12Z</time>
      </trkpt>
      <trkpt lat="46.18955" lon="2.40491">
        <ele>367</ele>
        <time>2018-04-12T13:22:16Z</time>
      </trkpt>
      <trkpt lat="46.18955" lon="2.40487">
        <ele>367</ele>
        <time>2018-04-12T13:22:19Z</time>
      </trkpt>
      <trkpt lat="46.18956" lon="2.40482">
        <ele>367</ele>
        <time>2018-04-12T13:22:22Z</time>
      </trkpt>
      <trkpt lat="46.18956" lon="2.40477">
        <ele>367</ele>
        <time>2018-04-12T13:22:25Z</time>
      </trkpt>
      <trkpt lat="46.18956" lon="2.40472">
        <ele>367</ele>
        <time>2018-04-12T13:22:28Z</time>
      </trkpt>
      <trkpt lat="46.18956" lon="2.40467">
        <ele>367</ele>
        <time>2018-04-12T13:22:31Z</time>
      </trkpt>
      <trkpt lat="46.18957" lon="2.40462">
        <ele>367</ele>
        <time>2018-04-12T13:22:34Z</time>
      </trkpt>
      <trkpt lat="46.18958" lon="2.40455">
        <ele>367</ele>
        <time>2018-04-12T13:22:38Z</time>
      </trkpt>
      <trkpt lat="46.18959" lon="2.40451">
        <ele>367</ele>
        <time>2018-04-12T13:22:41Z</time>
      </trkpt>
      <trkpt lat="46.1896" lon="2.40447">
        <ele>367</ele>
        <time>2018-04-12T13:22:44Z</time>
      </trkpt>
      <trkpt lat="46.18961" lon="2.40442">
        <ele>367</ele>
        <time>2018-04-12T13:22:47Z</time>
      </trkpt>
      <trkpt lat="46.18961" lon="2.40437">
        <ele>367</ele>
        <time>2018-04-12T13:22:50Z</time>
      </trkpt>
      <trkpt lat="46.18962" lon="2.40432">
        <ele>367</ele>
        <time>2018-04-12T13:22:53Z</time>
      </trkpt>
      <trkpt lat="46.18963" lon="2.40427">
        <ele>368</ele>
        <time>2018-04-12T13:22:57Z</time>
      </trkpt>
      <trkpt lat="46.18964" lon="2.40423">
        <ele>368</ele>
        <time>2018-04-12T13:23:01Z</time>
      </trkpt>
      <trkpt lat="46.18966" lon="2.40418">
        <ele>368</ele>
        <time>2018-04-12T13:23:05Z</time>
      </trkpt>
      <trkpt lat="46.18967" lon="2.40413">
        <ele>369</ele>
        <time>2018-04-12T13:23:09Z</time>
      </trkpt>
      <trkpt lat="46.18969" lon="2.40408">
        <ele>369</ele>
        <time>2018-04-12T13:23:13Z</time>
      </trkpt>
      <trkpt lat="46.18971" lon="2.40403">
        <ele>370</ele>
        <time>2018-04-12T13:23:17Z</time>
      </trkpt>
      <trkpt lat="46.18973" lon="2.404">
        <ele>370</ele>
        <time>2018-04-12T13:23:21Z</time>
      </trkpt>
      <trkpt lat="46.18974" lon="2.40395">
        <ele>370</ele>
        <time>2018-04-12T13:23:24Z</time>
      </trkpt>
      <trkpt lat="46.18976" lon="2.40391">
        <ele>370</ele>
        <time>2018-04-12T13:23:27Z</time>
      </trkpt>
      <trkpt lat="46.18978" lon="2.40386">
        <ele>370</ele>
        <time>2018-04-12T13:23:30Z</time>
      </trkpt>
      <trkpt lat="46.1898" lon="2.40382">
        <ele>370</ele>
        <time>2018-04-12T13:23:33Z</time>
      </trkpt>
      <trkpt lat="46.1898" lon="2.40377">
        <ele>370</ele>
        <time>2018-04-12T13:23:36Z</time>
      </trkpt>
      <trkpt lat="46.18983" lon="2.40372">
        <ele>371</ele>
        <time>2018-04-12T13:23:40Z</time>
      </trkpt>
      <trkpt lat="46.18985" lon="2.40368">
        <ele>371</ele>
        <time>2018-04-12T13:23:43Z</time>
      </trkpt>
      <trkpt lat="46.18986" lon="2.40364">
        <ele>371</ele>
        <time>2018-04-12T13:23:48Z</time>
      </trkpt>
      <trkpt lat="46.18985" lon="2.40363">
        <ele>371</ele>
        <time>2018-04-12T13:23:53Z</time>
      </trkpt>
      <trkpt lat="46.18986" lon="2.40361">
        <ele>371</ele>
        <time>2018-04-12T13:24:04Z</time>
      </trkpt>
      <trkpt lat="46.18987" lon="2.40361">
        <ele>372</ele>
        <time>2018-04-12T13:24:10Z</time>
      </trkpt>
      <trkpt lat="46.18987" lon="2.40359">
        <ele>372</ele>
        <time>2018-04-12T13:24:27Z</time>
      </trkpt>
      <trkpt lat="46.18985" lon="2.40358">
        <ele>372</ele>
        <time>2018-04-12T13:24:36Z</time>
      </trkpt>
      <trkpt lat="46.18984" lon="2.40357">
        <ele>372</ele>
        <time>2018-04-12T13:24:48Z</time>
      </trkpt>
      <trkpt lat="46.18985" lon="2.40356">
        <ele>372</ele>
        <time>2018-04-12T13:24:56Z</time>
      </trkpt>
      <trkpt lat="46.18987" lon="2.40351">
        <ele>372</ele>
        <time>2018-04-12T13:25:00Z</time>
      </trkpt>
      <trkpt lat="46.18989" lon="2.40347">
        <ele>373</ele>
        <time>2018-04-12T13:25:04Z</time>
      </trkpt>
      <trkpt lat="46.1899" lon="2.40343">
        <ele>374</ele>
        <time>2018-04-12T13:25:07Z</time>
      </trkpt>
      <trkpt lat="46.18992" lon="2.40338">
        <ele>374</ele>
        <time>2018-04-12T13:25:11Z</time>
      </trkpt>
      <trkpt lat="46.18995" lon="2.40334">
        <ele>375</ele>
        <time>2018-04-12T13:25:15Z</time>
      </trkpt>
      <trkpt lat="46.18996" lon="2.4033">
        <ele>377</ele>
        <time>2018-04-12T13:25:18Z</time>
      </trkpt>
      <trkpt lat="46.18998" lon="2.40325">
        <ele>376</ele>
        <time>2018-04-12T13:25:21Z</time>
      </trkpt>
      <trkpt lat="46.19" lon="2.4032">
        <ele>376</ele>
        <time>2018-04-12T13:25:25Z</time>
      </trkpt>
      <trkpt lat="46.19001" lon="2.40314">
        <ele>382</ele>
        <time>2018-04-12T13:25:29Z</time>
      </trkpt>
      <trkpt lat="46.19003" lon="2.40308">
        <ele>383</ele>
        <time>2018-04-12T13:25:32Z</time>
      </trkpt>
      <trkpt lat="46.19004" lon="2.40303">
        <ele>383</ele>
        <time>2018-04-12T13:25:35Z</time>
      </trkpt>
      <trkpt lat="46.19004" lon="2.40298">
        <ele>384</ele>
        <time>2018-04-12T13:25:38Z</time>
      </trkpt>
      <trkpt lat="46.19005" lon="2.40294">
        <ele>384</ele>
        <time>2018-04-12T13:25:42Z</time>
      </trkpt>
      <trkpt lat="46.19005" lon="2.4029">
        <ele>384</ele>
        <time>2018-04-12T13:25:45Z</time>
      </trkpt>
      <trkpt lat="46.19005" lon="2.40285">
        <ele>385</ele>
        <time>2018-04-12T13:25:48Z</time>
      </trkpt>
      <trkpt lat="46.19005" lon="2.40279">
        <ele>385</ele>
        <time>2018-04-12T13:25:51Z</time>
      </trkpt>
      <trkpt lat="46.19005" lon="2.40274">
        <ele>385</ele>
        <time>2018-04-12T13:25:54Z</time>
      </trkpt>
      <trkpt lat="46.19006" lon="2.40269">
        <ele>385</ele>
        <time>2018-04-12T13:25:57Z</time>
      </trkpt>
      <trkpt lat="46.19006" lon="2.40264">
        <ele>385</ele>
        <time>2018-04-12T13:26:00Z</time>
      </trkpt>
      <trkpt lat="46.19006" lon="2.40258">
        <ele>385</ele>
        <time>2018-04-12T13:26:03Z</time>
      </trkpt>
      <trkpt lat="46.19006" lon="2.40253">
        <ele>385</ele>
        <time>2018-04-12T13:26:06Z</time>
      </trkpt>
      <trkpt lat="46.19006" lon="2.40247">
        <ele>385</ele>
        <time>2018-04-12T13:26:09Z</time>
      </trkpt>
      <trkpt lat="46.19006" lon="2.40242">
        <ele>386</ele>
        <time>2018-04-12T13:26:12Z</time>
      </trkpt>
      <trkpt lat="46.19006" lon="2.40237">
        <ele>386</ele>
        <time>2018-04-12T13:26:15Z</time>
      </trkpt>
      <trkpt lat="46.19006" lon="2.4023">
        <ele>387</ele>
        <time>2018-04-12T13:26:18Z</time>
      </trkpt>
      <trkpt lat="46.19006" lon="2.40224">
        <ele>387</ele>
        <time>2018-04-12T13:26:21Z</time>
      </trkpt>
      <trkpt lat="46.19005" lon="2.4022">
        <ele>387</ele>
        <time>2018-04-12T13:26:25Z</time>
      </trkpt>
      <trkpt lat="46.19005" lon="2.40215">
        <ele>388</ele>
        <time>2018-04-12T13:26:29Z</time>
      </trkpt>
      <trkpt lat="46.19004" lon="2.40209">
        <ele>388</ele>
        <time>2018-04-12T13:26:32Z</time>
      </trkpt>
      <trkpt lat="46.19004" lon="2.40204">
        <ele>388</ele>
        <time>2018-04-12T13:26:36Z</time>
      </trkpt>
      <trkpt lat="46.19003" lon="2.402">
        <ele>388</ele>
        <time>2018-04-12T13:26:40Z</time>
      </trkpt>
      <trkpt lat="46.19003" lon="2.40195">
        <ele>388</ele>
        <time>2018-04-12T13:26:44Z</time>
      </trkpt>
      <trkpt lat="46.19003" lon="2.4019">
        <ele>388</ele>
        <time>2018-04-12T13:26:48Z</time>
      </trkpt>
      <trkpt lat="46.19002" lon="2.40185">
        <ele>388</ele>
        <time>2018-04-12T13:26:51Z</time>
      </trkpt>
      <trkpt lat="46.19001" lon="2.40179">
        <ele>388</ele>
        <time>2018-04-12T13:26:54Z</time>
      </trkpt>
      <trkpt lat="46.19" lon="2.40174">
        <ele>387</ele>
        <time>2018-04-12T13:26:57Z</time>
      </trkpt>
      <trkpt lat="46.19" lon="2.40169">
        <ele>387</ele>
        <time>2018-04-12T13:27:00Z</time>
      </trkpt>
      <trkpt lat="46.18999" lon="2.40163">
        <ele>387</ele>
        <time>2018-04-12T13:27:03Z</time>
      </trkpt>
      <trkpt lat="46.18998" lon="2.40158">
        <ele>387</ele>
        <time>2018-04-12T13:27:06Z</time>
      </trkpt>
      <trkpt lat="46.18999" lon="2.40153">
        <ele>387</ele>
        <time>2018-04-12T13:27:10Z</time>
      </trkpt>
      <trkpt lat="46.19" lon="2.40148">
        <ele>387</ele>
        <time>2018-04-12T13:27:13Z</time>
      </trkpt>
      <trkpt lat="46.19" lon="2.40143">
        <ele>387</ele>
        <time>2018-04-12T13:27:16Z</time>
      </trkpt>
      <trkpt lat="46.19" lon="2.40137">
        <ele>390</ele>
        <time>2018-04-12T13:27:20Z</time>
      </trkpt>
      <trkpt lat="46.19" lon="2.40131">
        <ele>390</ele>
        <time>2018-04-12T13:27:23Z</time>
      </trkpt>
      <trkpt lat="46.19001" lon="2.40127">
        <ele>390</ele>
        <time>2018-04-12T13:27:26Z</time>
      </trkpt>
      <trkpt lat="46.19002" lon="2.40123">
        <ele>390</ele>
        <time>2018-04-12T13:27:29Z</time>
      </trkpt>
      <trkpt lat="46.19004" lon="2.40118">
        <ele>391</ele>
        <time>2018-04-12T13:27:33Z</time>
      </trkpt>
      <trkpt lat="46.19005" lon="2.40114">
        <ele>391</ele>
        <time>2018-04-12T13:27:36Z</time>
      </trkpt>
      <trkpt lat="46.19006" lon="2.4011">
        <ele>391</ele>
        <time>2018-04-12T13:27:39Z</time>
      </trkpt>
      <trkpt lat="46.19008" lon="2.40105">
        <ele>391</ele>
        <time>2018-04-12T13:27:42Z</time>
      </trkpt>
      <trkpt lat="46.1901" lon="2.40099">
        <ele>391</ele>
        <time>2018-04-12T13:27:46Z</time>
      </trkpt>
      <trkpt lat="46.19011" lon="2.40094">
        <ele>391</ele>
        <time>2018-04-12T13:27:49Z</time>
      </trkpt>
      <trkpt lat="46.19012" lon="2.4009">
        <ele>391</ele>
        <time>2018-04-12T13:27:52Z</time>
      </trkpt>
      <trkpt lat="46.19013" lon="2.40085">
        <ele>391</ele>
        <time>2018-04-12T13:27:55Z</time>
      </trkpt>
      <trkpt lat="46.19013" lon="2.40079">
        <ele>393</ele>
        <time>2018-04-12T13:27:58Z</time>
      </trkpt>
      <trkpt lat="46.19014" lon="2.40074">
        <ele>393</ele>
        <time>2018-04-12T13:28:01Z</time>
      </trkpt>
      <trkpt lat="46.19016" lon="2.40069">
        <ele>393</ele>
        <time>2018-04-12T13:28:04Z</time>
      </trkpt>
      <trkpt lat="46.19017" lon="2.40064">
        <ele>394</ele>
        <time>2018-04-12T13:28:07Z</time>
      </trkpt>
      <trkpt lat="46.19018" lon="2.40059">
        <ele>394</ele>
        <time>2018-04-12T13:28:10Z</time>
      </trkpt>
      <trkpt lat="46.19019" lon="2.40053">
        <ele>394</ele>
        <time>2018-04-12T13:28:13Z</time>
      </trkpt>
      <trkpt lat="46.1902" lon="2.40048">
        <ele>394</ele>
        <time>2018-04-12T13:28:16Z</time>
      </trkpt>
      <trkpt lat="46.19021" lon="2.40043">
        <ele>395</ele>
        <time>2018-04-12T13:28:19Z</time>
      </trkpt>
      <trkpt lat="46.19022" lon="2.40038">
        <ele>395</ele>
        <time>2018-04-12T13:28:22Z</time>
      </trkpt>
      <trkpt lat="46.19022" lon="2.40034">
        <ele>395</ele>
        <time>2018-04-12T13:28:25Z</time>
      </trkpt>
      <trkpt lat="46.19023" lon="2.40029">
        <ele>395</ele>
        <time>2018-04-12T13:28:28Z</time>
      </trkpt>
      <trkpt lat="46.19024" lon="2.40025">
        <ele>395</ele>
        <time>2018-04-12T13:28:31Z</time>
      </trkpt>
      <trkpt lat="46.19024" lon="2.4002">
        <ele>395</ele>
        <time>2018-04-12T13:28:34Z</time>
      </trkpt>
      <trkpt lat="46.19025" lon="2.40014">
        <ele>395</ele>
        <time>2018-04-12T13:28:38Z</time>
      </trkpt>
      <trkpt lat="46.19027" lon="2.40009">
        <ele>395</ele>
        <time>2018-04-12T13:28:42Z</time>
      </trkpt>
      <trkpt lat="46.19028" lon="2.40005">
        <ele>396</ele>
        <time>2018-04-12T13:28:45Z</time>
      </trkpt>
      <trkpt lat="46.19029" lon="2.4">
        <ele>397</ele>
        <time>2018-04-12T13:28:48Z</time>
      </trkpt>
      <trkpt lat="46.19029" lon="2.39994">
        <ele>397</ele>
        <time>2018-04-12T13:28:51Z</time>
      </trkpt>
      <trkpt lat="46.19028" lon="2.39988">
        <ele>397</ele>
        <time>2018-04-12T13:28:54Z</time>
      </trkpt>
      <trkpt lat="46.19029" lon="2.39983">
        <ele>397</ele>
        <time>2018-04-12T13:28:57Z</time>
      </trkpt>
      <trkpt lat="46.19029" lon="2.39978">
        <ele>397</ele>
        <time>2018-04-12T13:29:00Z</time>
      </trkpt>
      <trkpt lat="46.1903" lon="2.39973">
        <ele>397</ele>
        <time>2018-04-12T13:29:03Z</time>
      </trkpt>
      <trkpt lat="46.1903" lon="2.39968">
        <ele>398</ele>
        <time>2018-04-12T13:29:06Z</time>
      </trkpt>
      <trkpt lat="46.19032" lon="2.39962">
        <ele>398</ele>
        <time>2018-04-12T13:29:10Z</time>
      </trkpt>
      <trkpt lat="46.19033" lon="2.39958">
        <ele>398</ele>
        <time>2018-04-12T13:29:13Z</time>
      </trkpt>
      <trkpt lat="46.19034" lon="2.39953">
        <ele>398</ele>
        <time>2018-04-12T13:29:16Z</time>
      </trkpt>
      <trkpt lat="46.19035" lon="2.39949">
        <ele>398</ele>
        <time>2018-04-12T13:29:19Z</time>
      </trkpt>
      <trkpt lat="46.19035" lon="2.39944">
        <ele>398</ele>
        <time>2018-04-12T13:29:22Z</time>
      </trkpt>
      <trkpt lat="46.19036" lon="2.39939">
        <ele>398</ele>
        <time>2018-04-12T13:29:25Z</time>
      </trkpt>
      <trkpt lat="46.19036" lon="2.39934">
        <ele>398</ele>
        <time>2018-04-12T13:29:28Z</time>
      </trkpt>
      <trkpt lat="46.19037" lon="2.39931">
        <ele>398</ele>
        <time>2018-04-12T13:29:31Z</time>
      </trkpt>
      <trkpt lat="46.19036" lon="2.39929">
        <ele>398</ele>
        <time>2018-04-12T13:29:35Z</time>
      </trkpt>
      <trkpt lat="46.19036" lon="2.39924">
        <ele>398</ele>
        <time>2018-04-12T13:29:38Z</time>
      </trkpt>
      <trkpt lat="46.19036" lon="2.39919">
        <ele>398</ele>
        <time>2018-04-12T13:29:42Z</time>
      </trkpt>
      <trkpt lat="46.19036" lon="2.39913">
        <ele>399</ele>
        <time>2018-04-12T13:29:46Z</time>
      </trkpt>
      <trkpt lat="46.19036" lon="2.39912">
        <ele>399</ele>
        <time>2018-04-12T13:29:59Z</time>
      </trkpt>
      <trkpt lat="46.19037" lon="2.39907">
        <ele>399</ele>
        <time>2018-04-12T13:30:02Z</time>
      </trkpt>
      <trkpt lat="46.19036" lon="2.39902">
        <ele>399</ele>
        <time>2018-04-12T13:30:05Z</time>
      </trkpt>
      <trkpt lat="46.19037" lon="2.39898">
        <ele>399</ele>
        <time>2018-04-12T13:30:08Z</time>
      </trkpt>
      <trkpt lat="46.19038" lon="2.39893">
        <ele>399</ele>
        <time>2018-04-12T13:30:11Z</time>
      </trkpt>
      <trkpt lat="46.19038" lon="2.39887">
        <ele>399</ele>
        <time>2018-04-12T13:30:15Z</time>
      </trkpt>
      <trkpt lat="46.19039" lon="2.39882">
        <ele>399</ele>
        <time>2018-04-12T13:30:19Z</time>
      </trkpt>
      <trkpt lat="46.19043" lon="2.39877">
        <ele>399</ele>
        <time>2018-04-12T13:30:23Z</time>
      </trkpt>
      <trkpt lat="46.19047" lon="2.39873">
        <ele>399</ele>
        <time>2018-04-12T13:30:27Z</time>
      </trkpt>
      <trkpt lat="46.19049" lon="2.39868">
        <ele>399</ele>
        <time>2018-04-12T13:30:31Z</time>
      </trkpt>
      <trkpt lat="46.19051" lon="2.39863">
        <ele>399</ele>
        <time>2018-04-12T13:30:35Z</time>
      </trkpt>
      <trkpt lat="46.19051" lon="2.39859">
        <ele>399</ele>
        <time>2018-04-12T13:30:38Z</time>
      </trkpt>
      <trkpt lat="46.1905" lon="2.39855">
        <ele>399</ele>
        <time>2018-04-12T13:30:41Z</time>
      </trkpt>
      <trkpt lat="46.1905" lon="2.39849">
        <ele>399</ele>
        <time>2018-04-12T13:30:45Z</time>
      </trkpt>
      <trkpt lat="46.19049" lon="2.39847">
        <ele>399</ele>
        <time>2018-04-12T13:30:50Z</time>
      </trkpt>
      <trkpt lat="46.19048" lon="2.39843">
        <ele>400</ele>
        <time>2018-04-12T13:30:53Z</time>
      </trkpt>
      <trkpt lat="46.19046" lon="2.39837">
        <ele>400</ele>
        <time>2018-04-12T13:30:56Z</time>
      </trkpt>
      <trkpt lat="46.19043" lon="2.39834">
        <ele>400</ele>
        <time>2018-04-12T13:31:00Z</time>
      </trkpt>
      <trkpt lat="46.19039" lon="2.39834">
        <ele>400</ele>
        <time>2018-04-12T13:31:03Z</time>
      </trkpt>
      <trkpt lat="46.19036" lon="2.39834">
        <ele>400</ele>
        <time>2018-04-12T13:31:06Z</time>
      </trkpt>
      <trkpt lat="46.19032" lon="2.39837">
        <ele>400</ele>
        <time>2018-04-12T13:31:10Z</time>
      </trkpt>
      <trkpt lat="46.19029" lon="2.3984">
        <ele>400</ele>
        <time>2018-04-12T13:31:13Z</time>
      </trkpt>
      <trkpt lat="46.19025" lon="2.39844">
        <ele>400</ele>
        <time>2018-04-12T13:31:17Z</time>
      </trkpt>
      <trkpt lat="46.19025" lon="2.39843">
        <ele>400</ele>
        <time>2018-04-12T13:31:27Z</time>
      </trkpt>
      <trkpt lat="46.19027" lon="2.39841">
        <ele>400</ele>
        <time>2018-04-12T13:31:30Z</time>
      </trkpt>
      <trkpt lat="46.1903" lon="2.39837">
        <ele>400</ele>
        <time>2018-04-12T13:31:34Z</time>
      </trkpt>
      <trkpt lat="46.19033" lon="2.39833">
        <ele>400</ele>
        <time>2018-04-12T13:31:38Z</time>
      </trkpt>
      <trkpt lat="46.19037" lon="2.39831">
        <ele>400</ele>
        <time>2018-04-12T13:31:41Z</time>
      </trkpt>
      <trkpt lat="46.1904" lon="2.39826">
        <ele>400</ele>
        <time>2018-04-12T13:31:45Z</time>
      </trkpt>
      <trkpt lat="46.19043" lon="2.39822">
        <ele>400</ele>
        <time>2018-04-12T13:31:48Z</time>
      </trkpt>
      <trkpt lat="46.19046" lon="2.39816">
        <ele>400</ele>
        <time>2018-04-12T13:31:52Z</time>
      </trkpt>
      <trkpt lat="46.19048" lon="2.39811">
        <ele>400</ele>
        <time>2018-04-12T13:31:55Z</time>
      </trkpt>
      <trkpt lat="46.19049" lon="2.39806">
        <ele>400</ele>
        <time>2018-04-12T13:31:58Z</time>
      </trkpt>
      <trkpt lat="46.1905" lon="2.398">
        <ele>400</ele>
        <time>2018-04-12T13:32:02Z</time>
      </trkpt>
      <trkpt lat="46.19049" lon="2.39793">
        <ele>400</ele>
        <time>2018-04-12T13:32:05Z</time>
      </trkpt>
      <trkpt lat="46.19048" lon="2.39788">
        <ele>400</ele>
        <time>2018-04-12T13:32:08Z</time>
      </trkpt>
      <trkpt lat="46.19045" lon="2.39784">
        <ele>401</ele>
        <time>2018-04-12T13:32:12Z</time>
      </trkpt>
      <trkpt lat="46.1904" lon="2.39783">
        <ele>401</ele>
        <time>2018-04-12T13:32:16Z</time>
      </trkpt>
      <trkpt lat="46.19037" lon="2.39783">
        <ele>401</ele>
        <time>2018-04-12T13:32:20Z</time>
      </trkpt>
      <trkpt lat="46.19033" lon="2.39784">
        <ele>401</ele>
        <time>2018-04-12T13:32:23Z</time>
      </trkpt>
      <trkpt lat="46.1903" lon="2.39785">
        <ele>401</ele>
        <time>2018-04-12T13:32:26Z</time>
      </trkpt>
      <trkpt lat="46.19026" lon="2.39786">
        <ele>401</ele>
        <time>2018-04-12T13:32:29Z</time>
      </trkpt>
      <trkpt lat="46.19022" lon="2.39787">
        <ele>401</ele>
        <time>2018-04-12T13:32:32Z</time>
      </trkpt>
      <trkpt lat="46.19019" lon="2.39788">
        <ele>401</ele>
        <time>2018-04-12T13:32:35Z</time>
      </trkpt>
      <trkpt lat="46.19015" lon="2.39788">
        <ele>401</ele>
        <time>2018-04-12T13:32:38Z</time>
      </trkpt>
      <trkpt lat="46.19012" lon="2.3979">
        <ele>401</ele>
        <time>2018-04-12T13:32:41Z</time>
      </trkpt>
      <trkpt lat="46.19008" lon="2.39793">
        <ele>401</ele>
        <time>2018-04-12T13:32:44Z</time>
      </trkpt>
      <trkpt lat="46.19005" lon="2.39795">
        <ele>401</ele>
        <time>2018-04-12T13:32:47Z</time>
      </trkpt>
      <trkpt lat="46.19001" lon="2.39797">
        <ele>401</ele>
        <time>2018-04-12T13:32:50Z</time>
      </trkpt>
      <trkpt lat="46.18997" lon="2.39797">
        <ele>400</ele>
        <time>2018-04-12T13:32:53Z</time>
      </trkpt>
      <trkpt lat="46.18993" lon="2.39794">
        <ele>400</ele>
        <time>2018-04-12T13:32:56Z</time>
      </trkpt>
      <trkpt lat="46.1899" lon="2.3979">
        <ele>400</ele>
        <time>2018-04-12T13:32:59Z</time>
      </trkpt>
      <trkpt lat="46.18988" lon="2.39786">
        <ele>400</ele>
        <time>2018-04-12T13:33:02Z</time>
      </trkpt>
      <trkpt lat="46.18985" lon="2.39781">
        <ele>400</ele>
        <time>2018-04-12T13:33:05Z</time>
      </trkpt>
      <trkpt lat="46.18982" lon="2.39776">
        <ele>400</ele>
        <time>2018-04-12T13:33:08Z</time>
      </trkpt>
      <trkpt lat="46.1898" lon="2.39772">
        <ele>400</ele>
        <time>2018-04-12T13:33:11Z</time>
      </trkpt>
      <trkpt lat="46.18977" lon="2.39767">
        <ele>400</ele>
        <time>2018-04-12T13:33:14Z</time>
      </trkpt>
      <trkpt lat="46.18975" lon="2.39763">
        <ele>400</ele>
        <time>2018-04-12T13:33:17Z</time>
      </trkpt>
      <trkpt lat="46.18972" lon="2.39759">
        <ele>400</ele>
        <time>2018-04-12T13:33:20Z</time>
      </trkpt>
      <trkpt lat="46.18968" lon="2.39755">
        <ele>400</ele>
        <time>2018-04-12T13:33:24Z</time>
      </trkpt>
      <trkpt lat="46.18964" lon="2.39752">
        <ele>400</ele>
        <time>2018-04-12T13:33:27Z</time>
      </trkpt>
      <trkpt lat="46.18961" lon="2.3975">
        <ele>401</ele>
        <time>2018-04-12T13:33:30Z</time>
      </trkpt>
      <trkpt lat="46.18957" lon="2.39746">
        <ele>401</ele>
        <time>2018-04-12T13:33:34Z</time>
      </trkpt>
      <trkpt lat="46.18953" lon="2.39744">
        <ele>401</ele>
        <time>2018-04-12T13:33:38Z</time>
      </trkpt>
      <trkpt lat="46.18953" lon="2.39741">
        <ele>401</ele>
        <time>2018-04-12T13:33:46Z</time>
      </trkpt>
      <trkpt lat="46.18952" lon="2.39736">
        <ele>401</ele>
        <time>2018-04-12T13:33:49Z</time>
      </trkpt>
      <trkpt lat="46.1895" lon="2.39732">
        <ele>401</ele>
        <time>2018-04-12T13:33:52Z</time>
      </trkpt>
      <trkpt lat="46.18947" lon="2.39727">
        <ele>400</ele>
        <time>2018-04-12T13:33:55Z</time>
      </trkpt>
      <trkpt lat="46.18945" lon="2.39722">
        <ele>400</ele>
        <time>2018-04-12T13:33:58Z</time>
      </trkpt>
      <trkpt lat="46.18942" lon="2.39719">
        <ele>400</ele>
        <time>2018-04-12T13:34:01Z</time>
      </trkpt>
      <trkpt lat="46.18938" lon="2.39715">
        <ele>400</ele>
        <time>2018-04-12T13:34:04Z</time>
      </trkpt>
      <trkpt lat="46.18936" lon="2.39709">
        <ele>400</ele>
        <time>2018-04-12T13:34:07Z</time>
      </trkpt>
      <trkpt lat="46.18934" lon="2.39704">
        <ele>400</ele>
        <time>2018-04-12T13:34:10Z</time>
      </trkpt>
      <trkpt lat="46.1893" lon="2.39699">
        <ele>400</ele>
        <time>2018-04-12T13:34:13Z</time>
      </trkpt>
      <trkpt lat="46.18928" lon="2.39694">
        <ele>400</ele>
        <time>2018-04-12T13:34:16Z</time>
      </trkpt>
      <trkpt lat="46.18925" lon="2.39689">
        <ele>400</ele>
        <time>2018-04-12T13:34:19Z</time>
      </trkpt>
      <trkpt lat="46.18922" lon="2.39683">
        <ele>400</ele>
        <time>2018-04-12T13:34:22Z</time>
      </trkpt>
      <trkpt lat="46.1892" lon="2.39678">
        <ele>400</ele>
        <time>2018-04-12T13:34:25Z</time>
      </trkpt>
      <trkpt lat="46.18917" lon="2.39673">
        <ele>400</ele>
        <time>2018-04-12T13:34:28Z</time>
      </trkpt>
      <trkpt lat="46.18914" lon="2.39668">
        <ele>400</ele>
        <time>2018-04-12T13:34:31Z</time>
      </trkpt>
      <trkpt lat="46.18912" lon="2.39663">
        <ele>400</ele>
        <time>2018-04-12T13:34:34Z</time>
      </trkpt>
      <trkpt lat="46.1891" lon="2.39658">
        <ele>400</ele>
        <time>2018-04-12T13:34:37Z</time>
      </trkpt>
      <trkpt lat="46.18907" lon="2.39653">
        <ele>400</ele>
        <time>2018-04-12T13:34:40Z</time>
      </trkpt>
      <trkpt lat="46.18905" lon="2.39647">
        <ele>400</ele>
        <time>2018-04-12T13:34:43Z</time>
      </trkpt>
      <trkpt lat="46.18902" lon="2.39642">
        <ele>400</ele>
        <time>2018-04-12T13:34:46Z</time>
      </trkpt>
      <trkpt lat="46.189" lon="2.39637">
        <ele>400</ele>
        <time>2018-04-12T13:34:49Z</time>
      </trkpt>
      <trkpt lat="46.18898" lon="2.39631">
        <ele>400</ele>
        <time>2018-04-12T13:34:52Z</time>
      </trkpt>
      <trkpt lat="46.18896" lon="2.39626">
        <ele>400</ele>
        <time>2018-04-12T13:34:55Z</time>
      </trkpt>
      <trkpt lat="46.18893" lon="2.39621">
        <ele>400</ele>
        <time>2018-04-12T13:34:58Z</time>
      </trkpt>
      <trkpt lat="46.18891" lon="2.39616">
        <ele>400</ele>
        <time>2018-04-12T13:35:01Z</time>
      </trkpt>
      <trkpt lat="46.1889" lon="2.3961">
        <ele>400</ele>
        <time>2018-04-12T13:35:04Z</time>
      </trkpt>
      <trkpt lat="46.18887" lon="2.39605">
        <ele>400</ele>
        <time>2018-04-12T13:35:07Z</time>
      </trkpt>
      <trkpt lat="46.18885" lon="2.39599">
        <ele>400</ele>
        <time>2018-04-12T13:35:10Z</time>
      </trkpt>
      <trkpt lat="46.18883" lon="2.39594">
        <ele>401</ele>
        <time>2018-04-12T13:35:13Z</time>
      </trkpt>
      <trkpt lat="46.18881" lon="2.39589">
        <ele>401</ele>
        <time>2018-04-12T13:35:16Z</time>
      </trkpt>
      <trkpt lat="46.18879" lon="2.39584">
        <ele>401</ele>
        <time>2018-04-12T13:35:19Z</time>
      </trkpt>
      <trkpt lat="46.18877" lon="2.39579">
        <ele>402</ele>
        <time>2018-04-12T13:35:22Z</time>
      </trkpt>
      <trkpt lat="46.18875" lon="2.39574">
        <ele>402</ele>
        <time>2018-04-12T13:35:25Z</time>
      </trkpt>
      <trkpt lat="46.18873" lon="2.39569">
        <ele>402</ele>
        <time>2018-04-12T13:35:28Z</time>
      </trkpt>
      <trkpt lat="46.18871" lon="2.39563">
        <ele>402</ele>
        <time>2018-04-12T13:35:31Z</time>
      </trkpt>
      <trkpt lat="46.18869" lon="2.39559">
        <ele>402</ele>
        <time>2018-04-12T13:35:34Z</time>
      </trkpt>
      <trkpt lat="46.18867" lon="2.39554">
        <ele>402</ele>
        <time>2018-04-12T13:35:37Z</time>
      </trkpt>
      <trkpt lat="46.18865" lon="2.39548">
        <ele>402</ele>
        <time>2018-04-12T13:35:40Z</time>
      </trkpt>
      <trkpt lat="46.18863" lon="2.39543">
        <ele>402</ele>
        <time>2018-04-12T13:35:43Z</time>
      </trkpt>
      <trkpt lat="46.18861" lon="2.39538">
        <ele>402</ele>
        <time>2018-04-12T13:35:46Z</time>
      </trkpt>
      <trkpt lat="46.18859" lon="2.39533">
        <ele>402</ele>
        <time>2018-04-12T13:35:49Z</time>
      </trkpt>
      <trkpt lat="46.18857" lon="2.39527">
        <ele>403</ele>
        <time>2018-04-12T13:35:52Z</time>
      </trkpt>
      <trkpt lat="46.18855" lon="2.39522">
        <ele>403</ele>
        <time>2018-04-12T13:35:55Z</time>
      </trkpt>
      <trkpt lat="46.18853" lon="2.39516">
        <ele>403</ele>
        <time>2018-04-12T13:35:58Z</time>
      </trkpt>
      <trkpt lat="46.1885" lon="2.39511">
        <ele>403</ele>
        <time>2018-04-12T13:36:01Z</time>
      </trkpt>
      <trkpt lat="46.18848" lon="2.39506">
        <ele>403</ele>
        <time>2018-04-12T13:36:04Z</time>
      </trkpt>
      <trkpt lat="46.18846" lon="2.395">
        <ele>403</ele>
        <time>2018-04-12T13:36:07Z</time>
      </trkpt>
      <trkpt lat="46.18844" lon="2.39494">
        <ele>404</ele>
        <time>2018-04-12T13:36:10Z</time>
      </trkpt>
      <trkpt lat="46.18842" lon="2.39489">
        <ele>404</ele>
        <time>2018-04-12T13:36:13Z</time>
      </trkpt>
      <trkpt lat="46.1884" lon="2.39484">
        <ele>404</ele>
        <time>2018-04-12T13:36:16Z</time>
      </trkpt>
      <trkpt lat="46.18837" lon="2.39478">
        <ele>404</ele>
        <time>2018-04-12T13:36:19Z</time>
      </trkpt>
      <trkpt lat="46.18834" lon="2.39472">
        <ele>405</ele>
        <time>2018-04-12T13:36:22Z</time>
      </trkpt>
      <trkpt lat="46.18832" lon="2.39467">
        <ele>406</ele>
        <time>2018-04-12T13:36:25Z</time>
      </trkpt>
      <trkpt lat="46.1883" lon="2.39462">
        <ele>406</ele>
        <time>2018-04-12T13:36:28Z</time>
      </trkpt>
      <trkpt lat="46.18828" lon="2.39456">
        <ele>406</ele>
        <time>2018-04-12T13:36:31Z</time>
      </trkpt>
      <trkpt lat="46.18826" lon="2.39451">
        <ele>406</ele>
        <time>2018-04-12T13:36:34Z</time>
      </trkpt>
      <trkpt lat="46.18824" lon="2.39445">
        <ele>406</ele>
        <time>2018-04-12T13:36:37Z</time>
      </trkpt>
      <trkpt lat="46.18822" lon="2.3944">
        <ele>407</ele>
        <time>2018-04-12T13:36:40Z</time>
      </trkpt>
      <trkpt lat="46.1882" lon="2.39435">
        <ele>407</ele>
        <time>2018-04-12T13:36:43Z</time>
      </trkpt>
      <trkpt lat="46.18818" lon="2.3943">
        <ele>407</ele>
        <time>2018-04-12T13:36:46Z</time>
      </trkpt>
      <trkpt lat="46.18816" lon="2.39424">
        <ele>407</ele>
        <time>2018-04-12T13:36:49Z</time>
      </trkpt>
      <trkpt lat="46.18814" lon="2.39419">
        <ele>407</ele>
        <time>2018-04-12T13:36:52Z</time>
      </trkpt>
      <trkpt lat="46.18812" lon="2.39413">
        <ele>407</ele>
        <time>2018-04-12T13:36:55Z</time>
      </trkpt>
      <trkpt lat="46.1881" lon="2.39408">
        <ele>408</ele>
        <time>2018-04-12T13:36:58Z</time>
      </trkpt>
      <trkpt lat="46.18808" lon="2.39402">
        <ele>408</ele>
        <time>2018-04-12T13:37:01Z</time>
      </trkpt>
      <trkpt lat="46.18805" lon="2.39397">
        <ele>408</ele>
        <time>2018-04-12T13:37:04Z</time>
      </trkpt>
      <trkpt lat="46.18804" lon="2.39391">
        <ele>408</ele>
        <time>2018-04-12T13:37:07Z</time>
      </trkpt>
      <trkpt lat="46.18804" lon="2.39385">
        <ele>408</ele>
        <time>2018-04-12T13:37:10Z</time>
      </trkpt>
      <trkpt lat="46.18803" lon="2.39379">
        <ele>408</ele>
        <time>2018-04-12T13:37:13Z</time>
      </trkpt>
      <trkpt lat="46.18802" lon="2.39373">
        <ele>408</ele>
        <time>2018-04-12T13:37:16Z</time>
      </trkpt>
      <trkpt lat="46.18803" lon="2.39367">
        <ele>408</ele>
        <time>2018-04-12T13:37:19Z</time>
      </trkpt>
      <trkpt lat="46.18805" lon="2.39362">
        <ele>408</ele>
        <time>2018-04-12T13:37:22Z</time>
      </trkpt>
      <trkpt lat="46.18808" lon="2.39358">
        <ele>408</ele>
        <time>2018-04-12T13:37:25Z</time>
      </trkpt>
      <trkpt lat="46.18811" lon="2.39352">
        <ele>408</ele>
        <time>2018-04-12T13:37:29Z</time>
      </trkpt>
      <trkpt lat="46.18815" lon="2.39348">
        <ele>408</ele>
        <time>2018-04-12T13:37:32Z</time>
      </trkpt>
      <trkpt lat="46.18818" lon="2.39344">
        <ele>408</ele>
        <time>2018-04-12T13:37:35Z</time>
      </trkpt>
      <trkpt lat="46.18821" lon="2.3934">
        <ele>408</ele>
        <time>2018-04-12T13:37:38Z</time>
      </trkpt>
      <trkpt lat="46.18824" lon="2.39336">
        <ele>408</ele>
        <time>2018-04-12T13:37:41Z</time>
      </trkpt>
      <trkpt lat="46.18828" lon="2.39331">
        <ele>408</ele>
        <time>2018-04-12T13:37:45Z</time>
      </trkpt>
      <trkpt lat="46.18831" lon="2.39327">
        <ele>408</ele>
        <time>2018-04-12T13:37:48Z</time>
      </trkpt>
      <trkpt lat="46.18835" lon="2.39322">
        <ele>407</ele>
        <time>2018-04-12T13:37:52Z</time>
      </trkpt>
      <trkpt lat="46.18838" lon="2.39318">
        <ele>407</ele>
        <time>2018-04-12T13:37:55Z</time>
      </trkpt>
      <trkpt lat="46.18842" lon="2.39313">
        <ele>407</ele>
        <time>2018-04-12T13:37:59Z</time>
      </trkpt>
      <trkpt lat="46.18845" lon="2.39308">
        <ele>407</ele>
        <time>2018-04-12T13:38:03Z</time>
      </trkpt>
      <trkpt lat="46.18848" lon="2.39304">
        <ele>407</ele>
        <time>2018-04-12T13:38:06Z</time>
      </trkpt>
      <trkpt lat="46.18852" lon="2.393">
        <ele>406</ele>
        <time>2018-04-12T13:38:09Z</time>
      </trkpt>
      <trkpt lat="46.18855" lon="2.39295">
        <ele>406</ele>
        <time>2018-04-12T13:38:12Z</time>
      </trkpt>
      <trkpt lat="46.18858" lon="2.39291">
        <ele>406</ele>
        <time>2018-04-12T13:38:15Z</time>
      </trkpt>
      <trkpt lat="46.18861" lon="2.39286">
        <ele>406</ele>
        <time>2018-04-12T13:38:18Z</time>
      </trkpt>
      <trkpt lat="46.18864" lon="2.39282">
        <ele>406</ele>
        <time>2018-04-12T13:38:21Z</time>
      </trkpt>
      <trkpt lat="46.18868" lon="2.39277">
        <ele>406</ele>
        <time>2018-04-12T13:38:24Z</time>
      </trkpt>
      <trkpt lat="46.18873" lon="2.39272">
        <ele>406</ele>
        <time>2018-04-12T13:38:28Z</time>
      </trkpt>
      <trkpt lat="46.18876" lon="2.39267">
        <ele>406</ele>
        <time>2018-04-12T13:38:32Z</time>
      </trkpt>
      <trkpt lat="46.18879" lon="2.39263">
        <ele>406</ele>
        <time>2018-04-12T13:38:35Z</time>
      </trkpt>
      <trkpt lat="46.18883" lon="2.39258">
        <ele>406</ele>
        <time>2018-04-12T13:38:39Z</time>
      </trkpt>
      <trkpt lat="46.18887" lon="2.39252">
        <ele>405</ele>
        <time>2018-04-12T13:38:43Z</time>
      </trkpt>
      <trkpt lat="46.18891" lon="2.39248">
        <ele>405</ele>
        <time>2018-04-12T13:38:46Z</time>
      </trkpt>
      <trkpt lat="46.18895" lon="2.39244">
        <ele>405</ele>
        <time>2018-04-12T13:38:49Z</time>
      </trkpt>
      <trkpt lat="46.189" lon="2.39241">
        <ele>405</ele>
        <time>2018-04-12T13:38:52Z</time>
      </trkpt>
      <trkpt lat="46.18903" lon="2.39236">
        <ele>405</ele>
        <time>2018-04-12T13:38:55Z</time>
      </trkpt>
      <trkpt lat="46.18907" lon="2.39232">
        <ele>405</ele>
        <time>2018-04-12T13:38:58Z</time>
      </trkpt>
      <trkpt lat="46.1891" lon="2.39228">
        <ele>405</ele>
        <time>2018-04-12T13:39:01Z</time>
      </trkpt>
      <trkpt lat="46.18913" lon="2.39223">
        <ele>405</ele>
        <time>2018-04-12T13:39:04Z</time>
      </trkpt>
      <trkpt lat="46.18917" lon="2.39219">
        <ele>402</ele>
        <time>2018-04-12T13:39:07Z</time>
      </trkpt>
      <trkpt lat="46.1892" lon="2.39215">
        <ele>402</ele>
        <time>2018-04-12T13:39:10Z</time>
      </trkpt>
      <trkpt lat="46.18923" lon="2.3921">
        <ele>402</ele>
        <time>2018-04-12T13:39:13Z</time>
      </trkpt>
      <trkpt lat="46.18926" lon="2.39206">
        <ele>402</ele>
        <time>2018-04-12T13:39:16Z</time>
      </trkpt>
      <trkpt lat="46.18928" lon="2.392">
        <ele>402</ele>
        <time>2018-04-12T13:39:19Z</time>
      </trkpt>
      <trkpt lat="46.18929" lon="2.39195">
        <ele>402</ele>
        <time>2018-04-12T13:39:22Z</time>
      </trkpt>
      <trkpt lat="46.18929" lon="2.39188">
        <ele>402</ele>
        <time>2018-04-12T13:39:25Z</time>
      </trkpt>
      <trkpt lat="46.18929" lon="2.39181">
        <ele>403</ele>
        <time>2018-04-12T13:39:29Z</time>
      </trkpt>
      <trkpt lat="46.1893" lon="2.39175">
        <ele>403</ele>
        <time>2018-04-12T13:39:32Z</time>
      </trkpt>
      <trkpt lat="46.18931" lon="2.39169">
        <ele>403</ele>
        <time>2018-04-12T13:39:35Z</time>
      </trkpt>
      <trkpt lat="46.18933" lon="2.39163">
        <ele>402</ele>
        <time>2018-04-12T13:39:38Z</time>
      </trkpt>
      <trkpt lat="46.18934" lon="2.39157">
        <ele>402</ele>
        <time>2018-04-12T13:39:41Z</time>
      </trkpt>
      <trkpt lat="46.18934" lon="2.39152">
        <ele>402</ele>
        <time>2018-04-12T13:39:44Z</time>
      </trkpt>
      <trkpt lat="46.18936" lon="2.39147">
        <ele>402</ele>
        <time>2018-04-12T13:39:47Z</time>
      </trkpt>
      <trkpt lat="46.18938" lon="2.39142">
        <ele>401</ele>
        <time>2018-04-12T13:39:50Z</time>
      </trkpt>
      <trkpt lat="46.18942" lon="2.39137">
        <ele>401</ele>
        <time>2018-04-12T13:39:53Z</time>
      </trkpt>
      <trkpt lat="46.18944" lon="2.39133">
        <ele>401</ele>
        <time>2018-04-12T13:39:56Z</time>
      </trkpt>
      <trkpt lat="46.18946" lon="2.39128">
        <ele>401</ele>
        <time>2018-04-12T13:39:59Z</time>
      </trkpt>
      <trkpt lat="46.18949" lon="2.39123">
        <ele>401</ele>
        <time>2018-04-12T13:40:02Z</time>
      </trkpt>
      <trkpt lat="46.1895" lon="2.39118">
        <ele>401</ele>
        <time>2018-04-12T13:40:05Z</time>
      </trkpt>
      <trkpt lat="46.18953" lon="2.39113">
        <ele>400</ele>
        <time>2018-04-12T13:40:08Z</time>
      </trkpt>
      <trkpt lat="46.18955" lon="2.39108">
        <ele>400</ele>
        <time>2018-04-12T13:40:11Z</time>
      </trkpt>
      <trkpt lat="46.18957" lon="2.39102">
        <ele>400</ele>
        <time>2018-04-12T13:40:14Z</time>
      </trkpt>
      <trkpt lat="46.18959" lon="2.39097">
        <ele>400</ele>
        <time>2018-04-12T13:40:17Z</time>
      </trkpt>
      <trkpt lat="46.18961" lon="2.39092">
        <ele>400</ele>
        <time>2018-04-12T13:40:20Z</time>
      </trkpt>
      <trkpt lat="46.18963" lon="2.39086">
        <ele>400</ele>
        <time>2018-04-12T13:40:23Z</time>
      </trkpt>
      <trkpt lat="46.18965" lon="2.39081">
        <ele>399</ele>
        <time>2018-04-12T13:40:26Z</time>
      </trkpt>
      <trkpt lat="46.18967" lon="2.39075">
        <ele>399</ele>
        <time>2018-04-12T13:40:29Z</time>
      </trkpt>
      <trkpt lat="46.18969" lon="2.39069">
        <ele>399</ele>
        <time>2018-04-12T13:40:32Z</time>
      </trkpt>
      <trkpt lat="46.18971" lon="2.39064">
        <ele>399</ele>
        <time>2018-04-12T13:40:35Z</time>
      </trkpt>
      <trkpt lat="46.18973" lon="2.39059">
        <ele>399</ele>
        <time>2018-04-12T13:40:38Z</time>
      </trkpt>
      <trkpt lat="46.18975" lon="2.39054">
        <ele>399</ele>
        <time>2018-04-12T13:40:41Z</time>
      </trkpt>
      <trkpt lat="46.18977" lon="2.39048">
        <ele>399</ele>
        <time>2018-04-12T13:40:44Z</time>
      </trkpt>
      <trkpt lat="46.18979" lon="2.39041">
        <ele>399</ele>
        <time>2018-04-12T13:40:47Z</time>
      </trkpt>
      <trkpt lat="46.1898" lon="2.39036">
        <ele>399</ele>
        <time>2018-04-12T13:40:50Z</time>
      </trkpt>
      <trkpt lat="46.18983" lon="2.39031">
        <ele>399</ele>
        <time>2018-04-12T13:40:53Z</time>
      </trkpt>
      <trkpt lat="46.18984" lon="2.39026">
        <ele>399</ele>
        <time>2018-04-12T13:40:56Z</time>
      </trkpt>
      <trkpt lat="46.18988" lon="2.3902">
        <ele>399</ele>
        <time>2018-04-12T13:41:00Z</time>
      </trkpt>
      <trkpt lat="46.1899" lon="2.39015">
        <ele>399</ele>
        <time>2018-04-12T13:41:03Z</time>
      </trkpt>
      <trkpt lat="46.18992" lon="2.39009">
        <ele>399</ele>
        <time>2018-04-12T13:41:07Z</time>
      </trkpt>
      <trkpt lat="46.18994" lon="2.39006">
        <ele>399</ele>
        <time>2018-04-12T13:41:11Z</time>
      </trkpt>
      <trkpt lat="46.18995" lon="2.39001">
        <ele>399</ele>
        <time>2018-04-12T13:41:14Z</time>
      </trkpt>
      <trkpt lat="46.18996" lon="2.38995">
        <ele>399</ele>
        <time>2018-04-12T13:41:17Z</time>
      </trkpt>
      <trkpt lat="46.18998" lon="2.3899">
        <ele>399</ele>
        <time>2018-04-12T13:41:20Z</time>
      </trkpt>
      <trkpt lat="46.18999" lon="2.38984">
        <ele>400</ele>
        <time>2018-04-12T13:41:23Z</time>
      </trkpt>
      <trkpt lat="46.19" lon="2.38978">
        <ele>397</ele>
        <time>2018-04-12T13:41:26Z</time>
      </trkpt>
      <trkpt lat="46.19001" lon="2.38972">
        <ele>397</ele>
        <time>2018-04-12T13:41:29Z</time>
      </trkpt>
      <trkpt lat="46.19003" lon="2.38967">
        <ele>397</ele>
        <time>2018-04-12T13:41:32Z</time>
      </trkpt>
      <trkpt lat="46.19006" lon="2.38964">
        <ele>397</ele>
        <time>2018-04-12T13:41:36Z</time>
      </trkpt>
      <trkpt lat="46.19012" lon="2.38962">
        <ele>397</ele>
        <time>2018-04-12T13:41:41Z</time>
      </trkpt>
      <trkpt lat="46.19016" lon="2.38962">
        <ele>397</ele>
        <time>2018-04-12T13:41:45Z</time>
      </trkpt>
      <trkpt lat="46.19019" lon="2.38961">
        <ele>397</ele>
        <time>2018-04-12T13:41:49Z</time>
      </trkpt>
      <trkpt lat="46.19023" lon="2.38962">
        <ele>396</ele>
        <time>2018-04-12T13:41:52Z</time>
      </trkpt>
      <trkpt lat="46.19027" lon="2.38961">
        <ele>396</ele>
        <time>2018-04-12T13:41:55Z</time>
      </trkpt>
      <trkpt lat="46.19031" lon="2.3896">
        <ele>396</ele>
        <time>2018-04-12T13:41:58Z</time>
      </trkpt>
      <trkpt lat="46.19036" lon="2.3896">
        <ele>396</ele>
        <time>2018-04-12T13:42:02Z</time>
      </trkpt>
      <trkpt lat="46.19041" lon="2.38959">
        <ele>396</ele>
        <time>2018-04-12T13:42:05Z</time>
      </trkpt>
      <trkpt lat="46.19047" lon="2.38959">
        <ele>396</ele>
        <time>2018-04-12T13:42:08Z</time>
      </trkpt>
      <trkpt lat="46.19053" lon="2.38959">
        <ele>395</ele>
        <time>2018-04-12T13:42:12Z</time>
      </trkpt>
      <trkpt lat="46.19058" lon="2.38959">
        <ele>395</ele>
        <time>2018-04-12T13:42:15Z</time>
      </trkpt>
      <trkpt lat="46.19063" lon="2.38958">
        <ele>395</ele>
        <time>2018-04-12T13:42:18Z</time>
      </trkpt>
      <trkpt lat="46.19069" lon="2.38957">
        <ele>395</ele>
        <time>2018-04-12T13:42:22Z</time>
      </trkpt>
      <trkpt lat="46.19074" lon="2.38957">
        <ele>395</ele>
        <time>2018-04-12T13:42:25Z</time>
      </trkpt>
      <trkpt lat="46.19078" lon="2.38956">
        <ele>395</ele>
        <time>2018-04-12T13:42:28Z</time>
      </trkpt>
      <trkpt lat="46.19083" lon="2.38954">
        <ele>395</ele>
        <time>2018-04-12T13:42:32Z</time>
      </trkpt>
      <trkpt lat="46.19089" lon="2.38953">
        <ele>391</ele>
        <time>2018-04-12T13:42:35Z</time>
      </trkpt>
      <trkpt lat="46.19094" lon="2.38952">
        <ele>391</ele>
        <time>2018-04-12T13:42:38Z</time>
      </trkpt>
      <trkpt lat="46.191" lon="2.38949">
        <ele>391</ele>
        <time>2018-04-12T13:42:42Z</time>
      </trkpt>
      <trkpt lat="46.19104" lon="2.38946">
        <ele>391</ele>
        <time>2018-04-12T13:42:45Z</time>
      </trkpt>
      <trkpt lat="46.19109" lon="2.38945">
        <ele>391</ele>
        <time>2018-04-12T13:42:48Z</time>
      </trkpt>
      <trkpt lat="46.19114" lon="2.38944">
        <ele>391</ele>
        <time>2018-04-12T13:42:52Z</time>
      </trkpt>
      <trkpt lat="46.19119" lon="2.38943">
        <ele>391</ele>
        <time>2018-04-12T13:42:55Z</time>
      </trkpt>
      <trkpt lat="46.19123" lon="2.38941">
        <ele>391</ele>
        <time>2018-04-12T13:42:58Z</time>
      </trkpt>
      <trkpt lat="46.19129" lon="2.38942">
        <ele>390</ele>
        <time>2018-04-12T13:43:03Z</time>
      </trkpt>
      <trkpt lat="46.19134" lon="2.38939">
        <ele>390</ele>
        <time>2018-04-12T13:43:08Z</time>
      </trkpt>
      <trkpt lat="46.1914" lon="2.38937">
        <ele>390</ele>
        <time>2018-04-12T13:43:12Z</time>
      </trkpt>
      <trkpt lat="46.19144" lon="2.38935">
        <ele>390</ele>
        <time>2018-04-12T13:43:15Z</time>
      </trkpt>
      <trkpt lat="46.19149" lon="2.38933">
        <ele>390</ele>
        <time>2018-04-12T13:43:18Z</time>
      </trkpt>
      <trkpt lat="46.19154" lon="2.38929">
        <ele>390</ele>
        <time>2018-04-12T13:43:22Z</time>
      </trkpt>
      <trkpt lat="46.19158" lon="2.38927">
        <ele>390</ele>
        <time>2018-04-12T13:43:25Z</time>
      </trkpt>
      <trkpt lat="46.19162" lon="2.38925">
        <ele>390</ele>
        <time>2018-04-12T13:43:28Z</time>
      </trkpt>
      <trkpt lat="46.19167" lon="2.3892">
        <ele>389</ele>
        <time>2018-04-12T13:43:32Z</time>
      </trkpt>
      <trkpt lat="46.19171" lon="2.38917">
        <ele>389</ele>
        <time>2018-04-12T13:43:36Z</time>
      </trkpt>
      <trkpt lat="46.19172" lon="2.38917">
        <ele>389</ele>
        <time>2018-04-12T13:43:39Z</time>
      </trkpt>
      <trkpt lat="46.19175" lon="2.38915">
        <ele>389</ele>
        <time>2018-04-12T13:43:43Z</time>
      </trkpt>
      <trkpt lat="46.19177" lon="2.38914">
        <ele>389</ele>
        <time>2018-04-12T13:43:48Z</time>
      </trkpt>
      <trkpt lat="46.19178" lon="2.38913">
        <ele>389</ele>
        <time>2018-04-12T13:43:54Z</time>
      </trkpt>
      <trkpt lat="46.19179" lon="2.38913">
        <ele>389</ele>
        <time>2018-04-12T13:43:58Z</time>
      </trkpt>
      <trkpt lat="46.1918" lon="2.38915">
        <ele>389</ele>
        <time>2018-04-12T13:44:01Z</time>
      </trkpt>
      <trkpt lat="46.19183" lon="2.38917">
        <ele>388</ele>
        <time>2018-04-12T13:44:05Z</time>
      </trkpt>
      <trkpt lat="46.19186" lon="2.38917">
        <ele>388</ele>
        <time>2018-04-12T13:44:09Z</time>
      </trkpt>
      <trkpt lat="46.19187" lon="2.38916">
        <ele>388</ele>
        <time>2018-04-12T13:44:21Z</time>
      </trkpt>
      <trkpt lat="46.19189" lon="2.38916">
        <ele>388</ele>
        <time>2018-04-12T13:44:54Z</time>
      </trkpt>
      <trkpt lat="46.1919" lon="2.38918">
        <ele>387</ele>
        <time>2018-04-12T13:45:00Z</time>
      </trkpt>
      <trkpt lat="46.19193" lon="2.38922">
        <ele>387</ele>
        <time>2018-04-12T13:45:04Z</time>
      </trkpt>
      <trkpt lat="46.19197" lon="2.38925">
        <ele>387</ele>
        <time>2018-04-12T13:45:08Z</time>
      </trkpt>
      <trkpt lat="46.19201" lon="2.38928">
        <ele>387</ele>
        <time>2018-04-12T13:45:12Z</time>
      </trkpt>
      <trkpt lat="46.19206" lon="2.38932">
        <ele>386</ele>
        <time>2018-04-12T13:45:16Z</time>
      </trkpt>
      <trkpt lat="46.1921" lon="2.38935">
        <ele>386</ele>
        <time>2018-04-12T13:45:20Z</time>
      </trkpt>
      <trkpt lat="46.19214" lon="2.38938">
        <ele>386</ele>
        <time>2018-04-12T13:45:23Z</time>
      </trkpt>
      <trkpt lat="46.19217" lon="2.38941">
        <ele>386</ele>
        <time>2018-04-12T13:45:26Z</time>
      </trkpt>
      <trkpt lat="46.19223" lon="2.38945">
        <ele>386</ele>
        <time>2018-04-12T13:45:31Z</time>
      </trkpt>
      <trkpt lat="46.19227" lon="2.38947">
        <ele>385</ele>
        <time>2018-04-12T13:45:34Z</time>
      </trkpt>
      <trkpt lat="46.19231" lon="2.3895">
        <ele>385</ele>
        <time>2018-04-12T13:45:37Z</time>
      </trkpt>
      <trkpt lat="46.19235" lon="2.38954">
        <ele>385</ele>
        <time>2018-04-12T13:45:41Z</time>
      </trkpt>
      <trkpt lat="46.19239" lon="2.38957">
        <ele>385</ele>
        <time>2018-04-12T13:45:44Z</time>
      </trkpt>
      <trkpt lat="46.19243" lon="2.3896">
        <ele>385</ele>
        <time>2018-04-12T13:45:47Z</time>
      </trkpt>
      <trkpt lat="46.19247" lon="2.38963">
        <ele>385</ele>
        <time>2018-04-12T13:45:50Z</time>
      </trkpt>
      <trkpt lat="46.19251" lon="2.38967">
        <ele>383</ele>
        <time>2018-04-12T13:45:53Z</time>
      </trkpt>
      <trkpt lat="46.19255" lon="2.3897">
        <ele>383</ele>
        <time>2018-04-12T13:45:56Z</time>
      </trkpt>
      <trkpt lat="46.1926" lon="2.38973">
        <ele>383</ele>
        <time>2018-04-12T13:46:00Z</time>
      </trkpt>
      <trkpt lat="46.19264" lon="2.38976">
        <ele>383</ele>
        <time>2018-04-12T13:46:03Z</time>
      </trkpt>
      <trkpt lat="46.19268" lon="2.38979">
        <ele>383</ele>
        <time>2018-04-12T13:46:06Z</time>
      </trkpt>
      <trkpt lat="46.19272" lon="2.38983">
        <ele>383</ele>
        <time>2018-04-12T13:46:10Z</time>
      </trkpt>
      <trkpt lat="46.19276" lon="2.38987">
        <ele>383</ele>
        <time>2018-04-12T13:46:14Z</time>
      </trkpt>
      <trkpt lat="46.1928" lon="2.38988">
        <ele>383</ele>
        <time>2018-04-12T13:46:17Z</time>
      </trkpt>
      <trkpt lat="46.19284" lon="2.38991">
        <ele>383</ele>
        <time>2018-04-12T13:46:20Z</time>
      </trkpt>
      <trkpt lat="46.19287" lon="2.38994">
        <ele>383</ele>
        <time>2018-04-12T13:46:23Z</time>
      </trkpt>
      <trkpt lat="46.19291" lon="2.38996">
        <ele>383</ele>
        <time>2018-04-12T13:46:26Z</time>
      </trkpt>
      <trkpt lat="46.19295" lon="2.38999">
        <ele>383</ele>
        <time>2018-04-12T13:46:29Z</time>
      </trkpt>
      <trkpt lat="46.19298" lon="2.39002">
        <ele>380</ele>
        <time>2018-04-12T13:46:33Z</time>
      </trkpt>
      <trkpt lat="46.19301" lon="2.39003">
        <ele>380</ele>
        <time>2018-04-12T13:46:37Z</time>
      </trkpt>
      <trkpt lat="46.19304" lon="2.39004">
        <ele>380</ele>
        <time>2018-04-12T13:46:40Z</time>
      </trkpt>
      <trkpt lat="46.19309" lon="2.39005">
        <ele>380</ele>
        <time>2018-04-12T13:46:43Z</time>
      </trkpt>
      <trkpt lat="46.19315" lon="2.39006">
        <ele>380</ele>
        <time>2018-04-12T13:46:46Z</time>
      </trkpt>
      <trkpt lat="46.19318" lon="2.39007">
        <ele>380</ele>
        <time>2018-04-12T13:46:49Z</time>
      </trkpt>
      <trkpt lat="46.19322" lon="2.39009">
        <ele>380</ele>
        <time>2018-04-12T13:46:52Z</time>
      </trkpt>
      <trkpt lat="46.19326" lon="2.3901">
        <ele>380</ele>
        <time>2018-04-12T13:46:55Z</time>
      </trkpt>
      <trkpt lat="46.19332" lon="2.39012">
        <ele>380</ele>
        <time>2018-04-12T13:46:59Z</time>
      </trkpt>
      <trkpt lat="46.19336" lon="2.39015">
        <ele>380</ele>
        <time>2018-04-12T13:47:02Z</time>
      </trkpt>
      <trkpt lat="46.19339" lon="2.39018">
        <ele>380</ele>
        <time>2018-04-12T13:47:05Z</time>
      </trkpt>
      <trkpt lat="46.19343" lon="2.39021">
        <ele>380</ele>
        <time>2018-04-12T13:47:08Z</time>
      </trkpt>
      <trkpt lat="46.19347" lon="2.39023">
        <ele>379</ele>
        <time>2018-04-12T13:47:11Z</time>
      </trkpt>
      <trkpt lat="46.1935" lon="2.39025">
        <ele>379</ele>
        <time>2018-04-12T13:47:14Z</time>
      </trkpt>
      <trkpt lat="46.19354" lon="2.39027">
        <ele>379</ele>
        <time>2018-04-12T13:47:17Z</time>
      </trkpt>
      <trkpt lat="46.19357" lon="2.39029">
        <ele>379</ele>
        <time>2018-04-12T13:47:20Z</time>
      </trkpt>
      <trkpt lat="46.19361" lon="2.39031">
        <ele>379</ele>
        <time>2018-04-12T13:47:23Z</time>
      </trkpt>
      <trkpt lat="46.19364" lon="2.39033">
        <ele>379</ele>
        <time>2018-04-12T13:47:26Z</time>
      </trkpt>
      <trkpt lat="46.19368" lon="2.39037">
        <ele>379</ele>
        <time>2018-04-12T13:47:29Z</time>
      </trkpt>
      <trkpt lat="46.19372" lon="2.3904">
        <ele>379</ele>
        <time>2018-04-12T13:47:32Z</time>
      </trkpt>
      <trkpt lat="46.19375" lon="2.39042">
        <ele>379</ele>
        <time>2018-04-12T13:47:35Z</time>
      </trkpt>
      <trkpt lat="46.19379" lon="2.39045">
        <ele>379</ele>
        <time>2018-04-12T13:47:38Z</time>
      </trkpt>
      <trkpt lat="46.19383" lon="2.39048">
        <ele>379</ele>
        <time>2018-04-12T13:47:41Z</time>
      </trkpt>
      <trkpt lat="46.19387" lon="2.3905">
        <ele>378</ele>
        <time>2018-04-12T13:47:44Z</time>
      </trkpt>
      <trkpt lat="46.19391" lon="2.39053">
        <ele>378</ele>
        <time>2018-04-12T13:47:47Z</time>
      </trkpt>
      <trkpt lat="46.19395" lon="2.39057">
        <ele>378</ele>
        <time>2018-04-12T13:47:51Z</time>
      </trkpt>
      <trkpt lat="46.19399" lon="2.39059">
        <ele>378</ele>
        <time>2018-04-12T13:47:54Z</time>
      </trkpt>
      <trkpt lat="46.19404" lon="2.39062">
        <ele>378</ele>
        <time>2018-04-12T13:47:57Z</time>
      </trkpt>
      <trkpt lat="46.19408" lon="2.39065">
        <ele>377</ele>
        <time>2018-04-12T13:48:00Z</time>
      </trkpt>
      <trkpt lat="46.19413" lon="2.39069">
        <ele>377</ele>
        <time>2018-04-12T13:48:03Z</time>
      </trkpt>
      <trkpt lat="46.19417" lon="2.39074">
        <ele>376</ele>
        <time>2018-04-12T13:48:07Z</time>
      </trkpt>
      <trkpt lat="46.19421" lon="2.39076">
        <ele>376</ele>
        <time>2018-04-12T13:48:10Z</time>
      </trkpt>
      <trkpt lat="46.19425" lon="2.39079">
        <ele>376</ele>
        <time>2018-04-12T13:48:13Z</time>
      </trkpt>
      <trkpt lat="46.19428" lon="2.39082">
        <ele>376</ele>
        <time>2018-04-12T13:48:16Z</time>
      </trkpt>
      <trkpt lat="46.19432" lon="2.39085">
        <ele>374</ele>
        <time>2018-04-12T13:48:19Z</time>
      </trkpt>
      <trkpt lat="46.19436" lon="2.39088">
        <ele>374</ele>
        <time>2018-04-12T13:48:22Z</time>
      </trkpt>
      <trkpt lat="46.19439" lon="2.3909">
        <ele>374</ele>
        <time>2018-04-12T13:48:25Z</time>
      </trkpt>
      <trkpt lat="46.19442" lon="2.39092">
        <ele>374</ele>
        <time>2018-04-12T13:48:28Z</time>
      </trkpt>
      <trkpt lat="46.19447" lon="2.39095">
        <ele>374</ele>
        <time>2018-04-12T13:48:32Z</time>
      </trkpt>
      <trkpt lat="46.19451" lon="2.39098">
        <ele>374</ele>
        <time>2018-04-12T13:48:35Z</time>
      </trkpt>
      <trkpt lat="46.19455" lon="2.391">
        <ele>374</ele>
        <time>2018-04-12T13:48:38Z</time>
      </trkpt>
      <trkpt lat="46.19458" lon="2.39103">
        <ele>374</ele>
        <time>2018-04-12T13:48:41Z</time>
      </trkpt>
      <trkpt lat="46.19463" lon="2.39105">
        <ele>374</ele>
        <time>2018-04-12T13:48:44Z</time>
      </trkpt>
      <trkpt lat="46.19466" lon="2.39107">
        <ele>374</ele>
        <time>2018-04-12T13:48:47Z</time>
      </trkpt>
      <trkpt lat="46.1947" lon="2.3911">
        <ele>373</ele>
        <time>2018-04-12T13:48:50Z</time>
      </trkpt>
      <trkpt lat="46.19474" lon="2.39112">
        <ele>373</ele>
        <time>2018-04-12T13:48:53Z</time>
      </trkpt>
      <trkpt lat="46.19477" lon="2.39114">
        <ele>373</ele>
        <time>2018-04-12T13:48:56Z</time>
      </trkpt>
      <trkpt lat="46.19481" lon="2.39118">
        <ele>373</ele>
        <time>2018-04-12T13:48:59Z</time>
      </trkpt>
      <trkpt lat="46.19486" lon="2.39121">
        <ele>373</ele>
        <time>2018-04-12T13:49:02Z</time>
      </trkpt>
      <trkpt lat="46.1949" lon="2.39123">
        <ele>373</ele>
        <time>2018-04-12T13:49:05Z</time>
      </trkpt>
      <trkpt lat="46.19495" lon="2.39127">
        <ele>373</ele>
        <time>2018-04-12T13:49:08Z</time>
      </trkpt>
      <trkpt lat="46.19501" lon="2.3913">
        <ele>370</ele>
        <time>2018-04-12T13:49:11Z</time>
      </trkpt>
      <trkpt lat="46.19505" lon="2.39132">
        <ele>370</ele>
        <time>2018-04-12T13:49:14Z</time>
      </trkpt>
      <trkpt lat="46.19509" lon="2.39136">
        <ele>370</ele>
        <time>2018-04-12T13:49:18Z</time>
      </trkpt>
      <trkpt lat="46.19513" lon="2.39139">
        <ele>370</ele>
        <time>2018-04-12T13:49:21Z</time>
      </trkpt>
      <trkpt lat="46.19519" lon="2.39142">
        <ele>369</ele>
        <time>2018-04-12T13:49:24Z</time>
      </trkpt>
      <trkpt lat="46.19522" lon="2.39145">
        <ele>369</ele>
        <time>2018-04-12T13:49:27Z</time>
      </trkpt>
      <trkpt lat="46.19526" lon="2.39148">
        <ele>369</ele>
        <time>2018-04-12T13:49:31Z</time>
      </trkpt>
      <trkpt lat="46.19529" lon="2.39152">
        <ele>369</ele>
        <time>2018-04-12T13:49:35Z</time>
      </trkpt>
      <trkpt lat="46.19532" lon="2.39155">
        <ele>369</ele>
        <time>2018-04-12T13:49:39Z</time>
      </trkpt>
      <trkpt lat="46.19535" lon="2.3916">
        <ele>369</ele>
        <time>2018-04-12T13:49:42Z</time>
      </trkpt>
      <trkpt lat="46.19538" lon="2.39164">
        <ele>369</ele>
        <time>2018-04-12T13:49:45Z</time>
      </trkpt>
      <trkpt lat="46.1954" lon="2.39169">
        <ele>366</ele>
        <time>2018-04-12T13:49:49Z</time>
      </trkpt>
      <trkpt lat="46.19543" lon="2.39175">
        <ele>366</ele>
        <time>2018-04-12T13:49:53Z</time>
      </trkpt>
      <trkpt lat="46.19545" lon="2.39178">
        <ele>366</ele>
        <time>2018-04-12T13:49:56Z</time>
      </trkpt>
      <trkpt lat="46.19547" lon="2.39185">
        <ele>366</ele>
        <time>2018-04-12T13:50:00Z</time>
      </trkpt>
      <trkpt lat="46.1955" lon="2.39189">
        <ele>366</ele>
        <time>2018-04-12T13:50:03Z</time>
      </trkpt>
      <trkpt lat="46.19555" lon="2.39195">
        <ele>366</ele>
        <time>2018-04-12T13:50:07Z</time>
      </trkpt>
      <trkpt lat="46.19558" lon="2.39199">
        <ele>366</ele>
        <time>2018-04-12T13:50:10Z</time>
      </trkpt>
      <trkpt lat="46.19561" lon="2.39204">
        <ele>365</ele>
        <time>2018-04-12T13:50:13Z</time>
      </trkpt>
      <trkpt lat="46.19564" lon="2.39208">
        <ele>365</ele>
        <time>2018-04-12T13:50:16Z</time>
      </trkpt>
      <trkpt lat="46.19568" lon="2.39214">
        <ele>365</ele>
        <time>2018-04-12T13:50:19Z</time>
      </trkpt>
      <trkpt lat="46.19569" lon="2.3922">
        <ele>365</ele>
        <time>2018-04-12T13:50:22Z</time>
      </trkpt>
      <trkpt lat="46.19571" lon="2.39226">
        <ele>365</ele>
        <time>2018-04-12T13:50:25Z</time>
      </trkpt>
      <trkpt lat="46.19574" lon="2.3923">
        <ele>364</ele>
        <time>2018-04-12T13:50:28Z</time>
      </trkpt>
      <trkpt lat="46.19577" lon="2.39236">
        <ele>364</ele>
        <time>2018-04-12T13:50:31Z</time>
      </trkpt>
      <trkpt lat="46.19579" lon="2.39242">
        <ele>363</ele>
        <time>2018-04-12T13:50:34Z</time>
      </trkpt>
      <trkpt lat="46.19582" lon="2.39247">
        <ele>363</ele>
        <time>2018-04-12T13:50:38Z</time>
      </trkpt>
      <trkpt lat="46.19584" lon="2.39253">
        <ele>362</ele>
        <time>2018-04-12T13:50:41Z</time>
      </trkpt>
      <trkpt lat="46.19586" lon="2.39259">
        <ele>361</ele>
        <time>2018-04-12T13:50:45Z</time>
      </trkpt>
      <trkpt lat="46.19587" lon="2.39264">
        <ele>361</ele>
        <time>2018-04-12T13:50:48Z</time>
      </trkpt>
      <trkpt lat="46.19587" lon="2.39269">
        <ele>360</ele>
        <time>2018-04-12T13:50:51Z</time>
      </trkpt>
      <trkpt lat="46.19587" lon="2.39274">
        <ele>360</ele>
        <time>2018-04-12T13:50:54Z</time>
      </trkpt>
      <trkpt lat="46.19587" lon="2.39279">
        <ele>360</ele>
        <time>2018-04-12T13:50:58Z</time>
      </trkpt>
      <trkpt lat="46.19587" lon="2.39283">
        <ele>360</ele>
        <time>2018-04-12T13:51:02Z</time>
      </trkpt>
      <trkpt lat="46.19587" lon="2.39287">
        <ele>360</ele>
        <time>2018-04-12T13:51:06Z</time>
      </trkpt>
      <trkpt lat="46.19587" lon="2.39292">
        <ele>360</ele>
        <time>2018-04-12T13:51:10Z</time>
      </trkpt>
      <trkpt lat="46.19589" lon="2.39298">
        <ele>360</ele>
        <time>2018-04-12T13:51:13Z</time>
      </trkpt>
      <trkpt lat="46.1959" lon="2.39303">
        <ele>360</ele>
        <time>2018-04-12T13:51:16Z</time>
      </trkpt>
      <trkpt lat="46.19591" lon="2.39308">
        <ele>360</ele>
        <time>2018-04-12T13:51:19Z</time>
      </trkpt>
      <trkpt lat="46.19593" lon="2.39312">
        <ele>360</ele>
        <time>2018-04-12T13:51:23Z</time>
      </trkpt>
      <trkpt lat="46.19593" lon="2.39314">
        <ele>360</ele>
        <time>2018-04-12T13:51:26Z</time>
      </trkpt>
      <trkpt lat="46.19595" lon="2.39318">
        <ele>360</ele>
        <time>2018-04-12T13:51:30Z</time>
      </trkpt>
      <trkpt lat="46.19598" lon="2.39321">
        <ele>360</ele>
        <time>2018-04-12T13:51:34Z</time>
      </trkpt>
      <trkpt lat="46.19601" lon="2.39327">
        <ele>360</ele>
        <time>2018-04-12T13:51:38Z</time>
      </trkpt>
      <trkpt lat="46.19605" lon="2.39332">
        <ele>360</ele>
        <time>2018-04-12T13:51:42Z</time>
      </trkpt>
      <trkpt lat="46.19609" lon="2.39336">
        <ele>359</ele>
        <time>2018-04-12T13:51:46Z</time>
      </trkpt>
      <trkpt lat="46.19612" lon="2.3934">
        <ele>358</ele>
        <time>2018-04-12T13:51:49Z</time>
      </trkpt>
      <trkpt lat="46.19615" lon="2.39343">
        <ele>358</ele>
        <time>2018-04-12T13:51:52Z</time>
      </trkpt>
      <trkpt lat="46.19619" lon="2.39348">
        <ele>358</ele>
        <time>2018-04-12T13:51:56Z</time>
      </trkpt>
      <trkpt lat="46.19623" lon="2.39352">
        <ele>358</ele>
        <time>2018-04-12T13:51:59Z</time>
      </trkpt>
      <trkpt lat="46.19626" lon="2.39356">
        <ele>358</ele>
        <time>2018-04-12T13:52:02Z</time>
      </trkpt>
      <trkpt lat="46.19627" lon="2.3936">
        <ele>357</ele>
        <time>2018-04-12T13:52:06Z</time>
      </trkpt>
      <trkpt lat="46.19629" lon="2.39364">
        <ele>357</ele>
        <time>2018-04-12T13:52:10Z</time>
      </trkpt>
      <trkpt lat="46.1963" lon="2.39366">
        <ele>357</ele>
        <time>2018-04-12T13:52:13Z</time>
      </trkpt>
      <trkpt lat="46.19632" lon="2.39368">
        <ele>357</ele>
        <time>2018-04-12T13:52:16Z</time>
      </trkpt>
      <trkpt lat="46.19635" lon="2.39369">
        <ele>357</ele>
        <time>2018-04-12T13:52:20Z</time>
      </trkpt>
      <trkpt lat="46.19638" lon="2.39372">
        <ele>357</ele>
        <time>2018-04-12T13:52:24Z</time>
      </trkpt>
      <trkpt lat="46.19642" lon="2.39374">
        <ele>357</ele>
        <time>2018-04-12T13:52:27Z</time>
      </trkpt>
      <trkpt lat="46.19645" lon="2.39377">
        <ele>357</ele>
        <time>2018-04-12T13:52:31Z</time>
      </trkpt>
      <trkpt lat="46.19649" lon="2.39379">
        <ele>357</ele>
        <time>2018-04-12T13:52:35Z</time>
      </trkpt>
      <trkpt lat="46.19652" lon="2.3938">
        <ele>357</ele>
        <time>2018-04-12T13:52:41Z</time>
      </trkpt>
      <trkpt lat="46.19653" lon="2.39383">
        <ele>357</ele>
        <time>2018-04-12T13:52:44Z</time>
      </trkpt>
      <trkpt lat="46.19654" lon="2.39388">
        <ele>357</ele>
        <time>2018-04-12T13:52:47Z</time>
      </trkpt>
      <trkpt lat="46.19653" lon="2.39393">
        <ele>357</ele>
        <time>2018-04-12T13:52:50Z</time>
      </trkpt>
      <trkpt lat="46.19654" lon="2.39397">
        <ele>356</ele>
        <time>2018-04-12T13:52:53Z</time>
      </trkpt>
      <trkpt lat="46.19655" lon="2.39402">
        <ele>356</ele>
        <time>2018-04-12T13:52:56Z</time>
      </trkpt>
      <trkpt lat="46.19656" lon="2.39406">
        <ele>356</ele>
        <time>2018-04-12T13:52:59Z</time>
      </trkpt>
      <trkpt lat="46.19657" lon="2.3941">
        <ele>356</ele>
        <time>2018-04-12T13:53:02Z</time>
      </trkpt>
      <trkpt lat="46.19658" lon="2.39415">
        <ele>356</ele>
        <time>2018-04-12T13:53:05Z</time>
      </trkpt>
      <trkpt lat="46.19659" lon="2.3942">
        <ele>356</ele>
        <time>2018-04-12T13:53:08Z</time>
      </trkpt>
      <trkpt lat="46.19659" lon="2.39426">
        <ele>356</ele>
        <time>2018-04-12T13:53:11Z</time>
      </trkpt>
      <trkpt lat="46.19661" lon="2.39431">
        <ele>356</ele>
        <time>2018-04-12T13:53:14Z</time>
      </trkpt>
      <trkpt lat="46.19661" lon="2.39437">
        <ele>357</ele>
        <time>2018-04-12T13:53:17Z</time>
      </trkpt>
      <trkpt lat="46.19662" lon="2.39443">
        <ele>357</ele>
        <time>2018-04-12T13:53:20Z</time>
      </trkpt>
      <trkpt lat="46.19663" lon="2.39448">
        <ele>357</ele>
        <time>2018-04-12T13:53:23Z</time>
      </trkpt>
      <trkpt lat="46.19664" lon="2.39455">
        <ele>357</ele>
        <time>2018-04-12T13:53:26Z</time>
      </trkpt>
      <trkpt lat="46.19665" lon="2.39461">
        <ele>357</ele>
        <time>2018-04-12T13:53:29Z</time>
      </trkpt>
      <trkpt lat="46.19666" lon="2.39467">
        <ele>357</ele>
        <time>2018-04-12T13:53:32Z</time>
      </trkpt>
      <trkpt lat="46.19667" lon="2.39473">
        <ele>356</ele>
        <time>2018-04-12T13:53:35Z</time>
      </trkpt>
      <trkpt lat="46.19666" lon="2.39479">
        <ele>357</ele>
        <time>2018-04-12T13:53:38Z</time>
      </trkpt>
      <trkpt lat="46.19666" lon="2.39485">
        <ele>357</ele>
        <time>2018-04-12T13:53:41Z</time>
      </trkpt>
      <trkpt lat="46.19666" lon="2.39492">
        <ele>357</ele>
        <time>2018-04-12T13:53:44Z</time>
      </trkpt>
      <trkpt lat="46.19665" lon="2.39498">
        <ele>357</ele>
        <time>2018-04-12T13:53:47Z</time>
      </trkpt>
      <trkpt lat="46.19664" lon="2.39503">
        <ele>357</ele>
        <time>2018-04-12T13:53:50Z</time>
      </trkpt>
      <trkpt lat="46.19663" lon="2.39509">
        <ele>358</ele>
        <time>2018-04-12T13:53:53Z</time>
      </trkpt>
      <trkpt lat="46.19662" lon="2.39515">
        <ele>358</ele>
        <time>2018-04-12T13:53:56Z</time>
      </trkpt>
      <trkpt lat="46.19661" lon="2.3952">
        <ele>358</ele>
        <time>2018-04-12T13:53:59Z</time>
      </trkpt>
      <trkpt lat="46.19659" lon="2.39526">
        <ele>359</ele>
        <time>2018-04-12T13:54:02Z</time>
      </trkpt>
      <trkpt lat="46.19656" lon="2.39529">
        <ele>359</ele>
        <time>2018-04-12T13:54:06Z</time>
      </trkpt>
      <trkpt lat="46.19657" lon="2.39534">
        <ele>359</ele>
        <time>2018-04-12T13:54:09Z</time>
      </trkpt>
      <trkpt lat="46.19658" lon="2.39538">
        <ele>359</ele>
        <time>2018-04-12T13:54:12Z</time>
      </trkpt>
      <trkpt lat="46.19659" lon="2.39543">
        <ele>359</ele>
        <time>2018-04-12T13:54:16Z</time>
      </trkpt>
      <trkpt lat="46.19655" lon="2.39545">
        <ele>359</ele>
        <time>2018-04-12T13:54:20Z</time>
      </trkpt>
      <trkpt lat="46.19652" lon="2.39549">
        <ele>359</ele>
        <time>2018-04-12T13:54:24Z</time>
      </trkpt>
      <trkpt lat="46.1965" lon="2.39553">
        <ele>359</ele>
        <time>2018-04-12T13:54:27Z</time>
      </trkpt>
      <trkpt lat="46.19648" lon="2.39559">
        <ele>359</ele>
        <time>2018-04-12T13:54:30Z</time>
      </trkpt>
      <trkpt lat="46.19647" lon="2.39564">
        <ele>359</ele>
        <time>2018-04-12T13:54:33Z</time>
      </trkpt>
      <trkpt lat="46.19645" lon="2.39569">
        <ele>359</ele>
        <time>2018-04-12T13:54:36Z</time>
      </trkpt>
      <trkpt lat="46.19643" lon="2.39574">
        <ele>359</ele>
        <time>2018-04-12T13:54:39Z</time>
      </trkpt>
      <trkpt lat="46.19641" lon="2.3958">
        <ele>359</ele>
        <time>2018-04-12T13:54:42Z</time>
      </trkpt>
      <trkpt lat="46.19639" lon="2.39585">
        <ele>361</ele>
        <time>2018-04-12T13:54:45Z</time>
      </trkpt>
      <trkpt lat="46.19637" lon="2.3959">
        <ele>361</ele>
        <time>2018-04-12T13:54:48Z</time>
      </trkpt>
      <trkpt lat="46.19635" lon="2.39595">
        <ele>362</ele>
        <time>2018-04-12T13:54:51Z</time>
      </trkpt>
      <trkpt lat="46.19634" lon="2.396">
        <ele>362</ele>
        <time>2018-04-12T13:54:54Z</time>
      </trkpt>
      <trkpt lat="46.19632" lon="2.39606">
        <ele>362</ele>
        <time>2018-04-12T13:54:58Z</time>
      </trkpt>
      <trkpt lat="46.1963" lon="2.39611">
        <ele>362</ele>
        <time>2018-04-12T13:55:01Z</time>
      </trkpt>
      <trkpt lat="46.19628" lon="2.39616">
        <ele>363</ele>
        <time>2018-04-12T13:55:04Z</time>
      </trkpt>
      <trkpt lat="46.19627" lon="2.3962">
        <ele>363</ele>
        <time>2018-04-12T13:55:07Z</time>
      </trkpt>
      <trkpt lat="46.19625" lon="2.39625">
        <ele>363</ele>
        <time>2018-04-12T13:55:10Z</time>
      </trkpt>
      <trkpt lat="46.19623" lon="2.3963">
        <ele>363</ele>
        <time>2018-04-12T13:55:13Z</time>
      </trkpt>
      <trkpt lat="46.19621" lon="2.39635">
        <ele>363</ele>
        <time>2018-04-12T13:55:16Z</time>
      </trkpt>
      <trkpt lat="46.1962" lon="2.3964">
        <ele>364</ele>
        <time>2018-04-12T13:55:19Z</time>
      </trkpt>
      <trkpt lat="46.19618" lon="2.39646">
        <ele>364</ele>
        <time>2018-04-12T13:55:22Z</time>
      </trkpt>
      <trkpt lat="46.19617" lon="2.39653">
        <ele>364</ele>
        <time>2018-04-12T13:55:25Z</time>
      </trkpt>
      <trkpt lat="46.19615" lon="2.39658">
        <ele>364</ele>
        <time>2018-04-12T13:55:28Z</time>
      </trkpt>
      <trkpt lat="46.19614" lon="2.39663">
        <ele>365</ele>
        <time>2018-04-12T13:55:31Z</time>
      </trkpt>
      <trkpt lat="46.19612" lon="2.39668">
        <ele>367</ele>
        <time>2018-04-12T13:55:34Z</time>
      </trkpt>
      <trkpt lat="46.1961" lon="2.39673">
        <ele>367</ele>
        <time>2018-04-12T13:55:37Z</time>
      </trkpt>
      <trkpt lat="46.19608" lon="2.39679">
        <ele>367</ele>
        <time>2018-04-12T13:55:41Z</time>
      </trkpt>
      <trkpt lat="46.19606" lon="2.39684">
        <ele>367</ele>
        <time>2018-04-12T13:55:44Z</time>
      </trkpt>
      <trkpt lat="46.19605" lon="2.39688">
        <ele>367</ele>
        <time>2018-04-12T13:55:47Z</time>
      </trkpt>
      <trkpt lat="46.19603" lon="2.39694">
        <ele>367</ele>
        <time>2018-04-12T13:55:51Z</time>
      </trkpt>
      <trkpt lat="46.19601" lon="2.397">
        <ele>367</ele>
        <time>2018-04-12T13:55:55Z</time>
      </trkpt>
      <trkpt lat="46.19599" lon="2.39704">
        <ele>367</ele>
        <time>2018-04-12T13:55:58Z</time>
      </trkpt>
      <trkpt lat="46.19598" lon="2.39709">
        <ele>367</ele>
        <time>2018-04-12T13:56:01Z</time>
      </trkpt>
      <trkpt lat="46.19595" lon="2.39715">
        <ele>367</ele>
        <time>2018-04-12T13:56:05Z</time>
      </trkpt>
      <trkpt lat="46.19594" lon="2.3972">
        <ele>367</ele>
        <time>2018-04-12T13:56:09Z</time>
      </trkpt>
      <trkpt lat="46.19593" lon="2.39725">
        <ele>368</ele>
        <time>2018-04-12T13:56:12Z</time>
      </trkpt>
      <trkpt lat="46.19591" lon="2.3973">
        <ele>368</ele>
        <time>2018-04-12T13:56:15Z</time>
      </trkpt>
      <trkpt lat="46.1959" lon="2.39736">
        <ele>368</ele>
        <time>2018-04-12T13:56:18Z</time>
      </trkpt>
      <trkpt lat="46.19589" lon="2.39742">
        <ele>368</ele>
        <time>2018-04-12T13:56:21Z</time>
      </trkpt>
      <trkpt lat="46.19588" lon="2.39747">
        <ele>369</ele>
        <time>2018-04-12T13:56:24Z</time>
      </trkpt>
      <trkpt lat="46.19586" lon="2.39753">
        <ele>369</ele>
        <time>2018-04-12T13:56:27Z</time>
      </trkpt>
      <trkpt lat="46.19584" lon="2.39761">
        <ele>369</ele>
        <time>2018-04-12T13:56:30Z</time>
      </trkpt>
      <trkpt lat="46.19583" lon="2.39766">
        <ele>371</ele>
        <time>2018-04-12T13:56:33Z</time>
      </trkpt>
      <trkpt lat="46.19582" lon="2.39772">
        <ele>371</ele>
        <time>2018-04-12T13:56:36Z</time>
      </trkpt>
      <trkpt lat="46.1958" lon="2.39779">
        <ele>372</ele>
        <time>2018-04-12T13:56:39Z</time>
      </trkpt>
      <trkpt lat="46.19579" lon="2.39785">
        <ele>372</ele>
        <time>2018-04-12T13:56:42Z</time>
      </trkpt>
      <trkpt lat="46.19578" lon="2.3979">
        <ele>372</ele>
        <time>2018-04-12T13:56:45Z</time>
      </trkpt>
      <trkpt lat="46.19577" lon="2.39796">
        <ele>372</ele>
        <time>2018-04-12T13:56:48Z</time>
      </trkpt>
      <trkpt lat="46.19576" lon="2.39801">
        <ele>372</ele>
        <time>2018-04-12T13:56:51Z</time>
      </trkpt>
      <trkpt lat="46.19575" lon="2.39807">
        <ele>372</ele>
        <time>2018-04-12T13:56:54Z</time>
      </trkpt>
      <trkpt lat="46.19574" lon="2.39812">
        <ele>372</ele>
        <time>2018-04-12T13:56:57Z</time>
      </trkpt>
      <trkpt lat="46.19573" lon="2.39817">
        <ele>372</ele>
        <time>2018-04-12T13:57:00Z</time>
      </trkpt>
      <trkpt lat="46.19572" lon="2.39822">
        <ele>372</ele>
        <time>2018-04-12T13:57:03Z</time>
      </trkpt>
      <trkpt lat="46.19571" lon="2.39827">
        <ele>372</ele>
        <time>2018-04-12T13:57:06Z</time>
      </trkpt>
      <trkpt lat="46.1957" lon="2.39832">
        <ele>372</ele>
        <time>2018-04-12T13:57:09Z</time>
      </trkpt>
      <trkpt lat="46.19569" lon="2.39837">
        <ele>372</ele>
        <time>2018-04-12T13:57:12Z</time>
      </trkpt>
      <trkpt lat="46.19569" lon="2.39843">
        <ele>372</ele>
        <time>2018-04-12T13:57:15Z</time>
      </trkpt>
      <trkpt lat="46.19566" lon="2.39851">
        <ele>373</ele>
        <time>2018-04-12T13:57:18Z</time>
      </trkpt>
      <trkpt lat="46.19565" lon="2.39858">
        <ele>373</ele>
        <time>2018-04-12T13:57:21Z</time>
      </trkpt>
      <trkpt lat="46.19563" lon="2.39864">
        <ele>373</ele>
        <time>2018-04-12T13:57:24Z</time>
      </trkpt>
      <trkpt lat="46.19561" lon="2.3987">
        <ele>373</ele>
        <time>2018-04-12T13:57:27Z</time>
      </trkpt>
      <trkpt lat="46.1956" lon="2.39874">
        <ele>373</ele>
        <time>2018-04-12T13:57:30Z</time>
      </trkpt>
      <trkpt lat="46.19558" lon="2.39879">
        <ele>374</ele>
        <time>2018-04-12T13:57:33Z</time>
      </trkpt>
      <trkpt lat="46.19557" lon="2.39883">
        <ele>374</ele>
        <time>2018-04-12T13:57:36Z</time>
      </trkpt>
      <trkpt lat="46.19555" lon="2.39888">
        <ele>374</ele>
        <time>2018-04-12T13:57:39Z</time>
      </trkpt>
      <trkpt lat="46.19554" lon="2.39892">
        <ele>374</ele>
        <time>2018-04-12T13:57:42Z</time>
      </trkpt>
      <trkpt lat="46.19552" lon="2.39897">
        <ele>374</ele>
        <time>2018-04-12T13:57:45Z</time>
      </trkpt>
      <trkpt lat="46.1955" lon="2.39902">
        <ele>374</ele>
        <time>2018-04-12T13:57:48Z</time>
      </trkpt>
      <trkpt lat="46.19548" lon="2.39908">
        <ele>374</ele>
        <time>2018-04-12T13:57:51Z</time>
      </trkpt>
      <trkpt lat="46.19545" lon="2.39913">
        <ele>374</ele>
        <time>2018-04-12T13:57:54Z</time>
      </trkpt>
      <trkpt lat="46.19544" lon="2.39917">
        <ele>374</ele>
        <time>2018-04-12T13:57:57Z</time>
      </trkpt>
      <trkpt lat="46.19541" lon="2.39922">
        <ele>375</ele>
        <time>2018-04-12T13:58:00Z</time>
      </trkpt>
      <trkpt lat="46.19539" lon="2.39928">
        <ele>375</ele>
        <time>2018-04-12T13:58:03Z</time>
      </trkpt>
      <trkpt lat="46.19537" lon="2.39933">
        <ele>375</ele>
        <time>2018-04-12T13:58:06Z</time>
      </trkpt>
      <trkpt lat="46.19535" lon="2.39938">
        <ele>375</ele>
        <time>2018-04-12T13:58:09Z</time>
      </trkpt>
      <trkpt lat="46.19532" lon="2.39943">
        <ele>375</ele>
        <time>2018-04-12T13:58:12Z</time>
      </trkpt>
      <trkpt lat="46.1953" lon="2.39949">
        <ele>375</ele>
        <time>2018-04-12T13:58:15Z</time>
      </trkpt>
      <trkpt lat="46.19528" lon="2.39955">
        <ele>375</ele>
        <time>2018-04-12T13:58:18Z</time>
      </trkpt>
      <trkpt lat="46.19526" lon="2.3996">
        <ele>375</ele>
        <time>2018-04-12T13:58:21Z</time>
      </trkpt>
      <trkpt lat="46.19523" lon="2.39965">
        <ele>375</ele>
        <time>2018-04-12T13:58:24Z</time>
      </trkpt>
      <trkpt lat="46.19521" lon="2.39971">
        <ele>375</ele>
        <time>2018-04-12T13:58:27Z</time>
      </trkpt>
      <trkpt lat="46.19519" lon="2.39976">
        <ele>375</ele>
        <time>2018-04-12T13:58:30Z</time>
      </trkpt>
      <trkpt lat="46.19517" lon="2.39981">
        <ele>375</ele>
        <time>2018-04-12T13:58:33Z</time>
      </trkpt>
      <trkpt lat="46.19515" lon="2.39986">
        <ele>374</ele>
        <time>2018-04-12T13:58:36Z</time>
      </trkpt>
      <trkpt lat="46.19513" lon="2.39991">
        <ele>374</ele>
        <time>2018-04-12T13:58:39Z</time>
      </trkpt>
      <trkpt lat="46.19511" lon="2.39997">
        <ele>374</ele>
        <time>2018-04-12T13:58:42Z</time>
      </trkpt>
      <trkpt lat="46.19508" lon="2.40002">
        <ele>375</ele>
        <time>2018-04-12T13:58:45Z</time>
      </trkpt>
      <trkpt lat="46.19505" lon="2.40006">
        <ele>375</ele>
        <time>2018-04-12T13:58:48Z</time>
      </trkpt>
      <trkpt lat="46.19503" lon="2.40011">
        <ele>375</ele>
        <time>2018-04-12T13:58:51Z</time>
      </trkpt>
      <trkpt lat="46.195" lon="2.40015">
        <ele>375</ele>
        <time>2018-04-12T13:58:54Z</time>
      </trkpt>
      <trkpt lat="46.19497" lon="2.4002">
        <ele>375</ele>
        <time>2018-04-12T13:58:57Z</time>
      </trkpt>
      <trkpt lat="46.19493" lon="2.40026">
        <ele>376</ele>
        <time>2018-04-12T13:59:01Z</time>
      </trkpt>
      <trkpt lat="46.1949" lon="2.40031">
        <ele>376</ele>
        <time>2018-04-12T13:59:04Z</time>
      </trkpt>
      <trkpt lat="46.19488" lon="2.40036">
        <ele>376</ele>
        <time>2018-04-12T13:59:07Z</time>
      </trkpt>
      <trkpt lat="46.19486" lon="2.40041">
        <ele>376</ele>
        <time>2018-04-12T13:59:10Z</time>
      </trkpt>
      <trkpt lat="46.19484" lon="2.40046">
        <ele>376</ele>
        <time>2018-04-12T13:59:13Z</time>
      </trkpt>
      <trkpt lat="46.19482" lon="2.40051">
        <ele>376</ele>
        <time>2018-04-12T13:59:16Z</time>
      </trkpt>
      <trkpt lat="46.1948" lon="2.40056">
        <ele>376</ele>
        <time>2018-04-12T13:59:19Z</time>
      </trkpt>
      <trkpt lat="46.19479" lon="2.40061">
        <ele>376</ele>
        <time>2018-04-12T13:59:22Z</time>
      </trkpt>
      <trkpt lat="46.19477" lon="2.40066">
        <ele>376</ele>
        <time>2018-04-12T13:59:25Z</time>
      </trkpt>
      <trkpt lat="46.19476" lon="2.40071">
        <ele>376</ele>
        <time>2018-04-12T13:59:28Z</time>
      </trkpt>
      <trkpt lat="46.19474" lon="2.40076">
        <ele>376</ele>
        <time>2018-04-12T13:59:31Z</time>
      </trkpt>
      <trkpt lat="46.19473" lon="2.40081">
        <ele>376</ele>
        <time>2018-04-12T13:59:34Z</time>
      </trkpt>
      <trkpt lat="46.19471" lon="2.40086">
        <ele>377</ele>
        <time>2018-04-12T13:59:37Z</time>
      </trkpt>
      <trkpt lat="46.1947" lon="2.40092">
        <ele>377</ele>
        <time>2018-04-12T13:59:40Z</time>
      </trkpt>
      <trkpt lat="46.19469" lon="2.40097">
        <ele>377</ele>
        <time>2018-04-12T13:59:43Z</time>
      </trkpt>
      <trkpt lat="46.19467" lon="2.40102">
        <ele>377</ele>
        <time>2018-04-12T13:59:46Z</time>
      </trkpt>
      <trkpt lat="46.19466" lon="2.40107">
        <ele>377</ele>
        <time>2018-04-12T13:59:49Z</time>
      </trkpt>
      <trkpt lat="46.19464" lon="2.40112">
        <ele>377</ele>
        <time>2018-04-12T13:59:52Z</time>
      </trkpt>
      <trkpt lat="46.19463" lon="2.40118">
        <ele>378</ele>
        <time>2018-04-12T13:59:55Z</time>
      </trkpt>
      <trkpt lat="46.19461" lon="2.40123">
        <ele>378</ele>
        <time>2018-04-12T13:59:58Z</time>
      </trkpt>
      <trkpt lat="46.1946" lon="2.40128">
        <ele>378</ele>
        <time>2018-04-12T14:00:01Z</time>
      </trkpt>
      <trkpt lat="46.19458" lon="2.40133">
        <ele>378</ele>
        <time>2018-04-12T14:00:04Z</time>
      </trkpt>
      <trkpt lat="46.19457" lon="2.40139">
        <ele>378</ele>
        <time>2018-04-12T14:00:07Z</time>
      </trkpt>
      <trkpt lat="46.19455" lon="2.40144">
        <ele>378</ele>
        <time>2018-04-12T14:00:10Z</time>
      </trkpt>
      <trkpt lat="46.19453" lon="2.40149">
        <ele>378</ele>
        <time>2018-04-12T14:00:13Z</time>
      </trkpt>
      <trkpt lat="46.19451" lon="2.40154">
        <ele>378</ele>
        <time>2018-04-12T14:00:16Z</time>
      </trkpt>
      <trkpt lat="46.1945" lon="2.40159">
        <ele>378</ele>
        <time>2018-04-12T14:00:19Z</time>
      </trkpt>
      <trkpt lat="46.19448" lon="2.40164">
        <ele>378</ele>
        <time>2018-04-12T14:00:22Z</time>
      </trkpt>
      <trkpt lat="46.19445" lon="2.40169">
        <ele>379</ele>
        <time>2018-04-12T14:00:25Z</time>
      </trkpt>
      <trkpt lat="46.19443" lon="2.40174">
        <ele>379</ele>
        <time>2018-04-12T14:00:28Z</time>
      </trkpt>
      <trkpt lat="46.19441" lon="2.40178">
        <ele>379</ele>
        <time>2018-04-12T14:00:31Z</time>
      </trkpt>
      <trkpt lat="46.19439" lon="2.40183">
        <ele>379</ele>
        <time>2018-04-12T14:00:34Z</time>
      </trkpt>
      <trkpt lat="46.19436" lon="2.40188">
        <ele>379</ele>
        <time>2018-04-12T14:00:37Z</time>
      </trkpt>
      <trkpt lat="46.19434" lon="2.40193">
        <ele>379</ele>
        <time>2018-04-12T14:00:40Z</time>
      </trkpt>
      <trkpt lat="46.19431" lon="2.40197">
        <ele>379</ele>
        <time>2018-04-12T14:00:43Z</time>
      </trkpt>
      <trkpt lat="46.19428" lon="2.40203">
        <ele>379</ele>
        <time>2018-04-12T14:00:47Z</time>
      </trkpt>
      <trkpt lat="46.19424" lon="2.40207">
        <ele>380</ele>
        <time>2018-04-12T14:00:50Z</time>
      </trkpt>
      <trkpt lat="46.19421" lon="2.40211">
        <ele>380</ele>
        <time>2018-04-12T14:00:53Z</time>
      </trkpt>
      <trkpt lat="46.19418" lon="2.40216">
        <ele>380</ele>
        <time>2018-04-12T14:00:56Z</time>
      </trkpt>
      <trkpt lat="46.19416" lon="2.4022">
        <ele>383</ele>
        <time>2018-04-12T14:00:59Z</time>
      </trkpt>
      <trkpt lat="46.19413" lon="2.40224">
        <ele>383</ele>
        <time>2018-04-12T14:01:02Z</time>
      </trkpt>
      <trkpt lat="46.1941" lon="2.40229">
        <ele>382</ele>
        <time>2018-04-12T14:01:05Z</time>
      </trkpt>
      <trkpt lat="46.19407" lon="2.40234">
        <ele>382</ele>
        <time>2018-04-12T14:01:08Z</time>
      </trkpt>
      <trkpt lat="46.19405" lon="2.40238">
        <ele>382</ele>
        <time>2018-04-12T14:01:11Z</time>
      </trkpt>
      <trkpt lat="46.19403" lon="2.40243">
        <ele>382</ele>
        <time>2018-04-12T14:01:14Z</time>
      </trkpt>
      <trkpt lat="46.19401" lon="2.40247">
        <ele>382</ele>
        <time>2018-04-12T14:01:17Z</time>
      </trkpt>
      <trkpt lat="46.194" lon="2.40252">
        <ele>383</ele>
        <time>2018-04-12T14:01:20Z</time>
      </trkpt>
      <trkpt lat="46.19398" lon="2.40257">
        <ele>383</ele>
        <time>2018-04-12T14:01:23Z</time>
      </trkpt>
      <trkpt lat="46.19397" lon="2.40261">
        <ele>384</ele>
        <time>2018-04-12T14:01:26Z</time>
      </trkpt>
      <trkpt lat="46.19395" lon="2.40266">
        <ele>384</ele>
        <time>2018-04-12T14:01:29Z</time>
      </trkpt>
      <trkpt lat="46.19395" lon="2.4027">
        <ele>384</ele>
        <time>2018-04-12T14:01:32Z</time>
      </trkpt>
      <trkpt lat="46.19394" lon="2.40276">
        <ele>384</ele>
        <time>2018-04-12T14:01:36Z</time>
      </trkpt>
      <trkpt lat="46.19393" lon="2.4028">
        <ele>385</ele>
        <time>2018-04-12T14:01:39Z</time>
      </trkpt>
      <trkpt lat="46.19391" lon="2.40286">
        <ele>385</ele>
        <time>2018-04-12T14:01:43Z</time>
      </trkpt>
      <trkpt lat="46.1939" lon="2.4029">
        <ele>385</ele>
        <time>2018-04-12T14:01:46Z</time>
      </trkpt>
      <trkpt lat="46.19389" lon="2.40294">
        <ele>385</ele>
        <time>2018-04-12T14:01:49Z</time>
      </trkpt>
      <trkpt lat="46.19387" lon="2.403">
        <ele>385</ele>
        <time>2018-04-12T14:01:52Z</time>
      </trkpt>
      <trkpt lat="46.19384" lon="2.40305">
        <ele>385</ele>
        <time>2018-04-12T14:01:55Z</time>
      </trkpt>
      <trkpt lat="46.19382" lon="2.40309">
        <ele>385</ele>
        <time>2018-04-12T14:01:58Z</time>
      </trkpt>
      <trkpt lat="46.19379" lon="2.40314">
        <ele>386</ele>
        <time>2018-04-12T14:02:01Z</time>
      </trkpt>
      <trkpt lat="46.19375" lon="2.40319">
        <ele>386</ele>
        <time>2018-04-12T14:02:05Z</time>
      </trkpt>
      <trkpt lat="46.19371" lon="2.40323">
        <ele>386</ele>
        <time>2018-04-12T14:02:09Z</time>
      </trkpt>
      <trkpt lat="46.19367" lon="2.40328">
        <ele>387</ele>
        <time>2018-04-12T14:02:13Z</time>
      </trkpt>
      <trkpt lat="46.19364" lon="2.40331">
        <ele>387</ele>
        <time>2018-04-12T14:02:16Z</time>
      </trkpt>
      <trkpt lat="46.19361" lon="2.40333">
        <ele>387</ele>
        <time>2018-04-12T14:02:19Z</time>
      </trkpt>
      <trkpt lat="46.19358" lon="2.40335">
        <ele>388</ele>
        <time>2018-04-12T14:02:22Z</time>
      </trkpt>
      <trkpt lat="46.19355" lon="2.40338">
        <ele>389</ele>
        <time>2018-04-12T14:02:25Z</time>
      </trkpt>
      <trkpt lat="46.19351" lon="2.40343">
        <ele>389</ele>
        <time>2018-04-12T14:02:28Z</time>
      </trkpt>
      <trkpt lat="46.19347" lon="2.40348">
        <ele>389</ele>
        <time>2018-04-12T14:02:32Z</time>
      </trkpt>
      <trkpt lat="46.19344" lon="2.40353">
        <ele>389</ele>
        <time>2018-04-12T14:02:35Z</time>
      </trkpt>
      <trkpt lat="46.1934" lon="2.40358">
        <ele>389</ele>
        <time>2018-04-12T14:02:38Z</time>
      </trkpt>
      <trkpt lat="46.19337" lon="2.40363">
        <ele>389</ele>
        <time>2018-04-12T14:02:41Z</time>
      </trkpt>
      <trkpt lat="46.19334" lon="2.40367">
        <ele>389</ele>
        <time>2018-04-12T14:02:44Z</time>
      </trkpt>
      <trkpt lat="46.19331" lon="2.40375">
        <ele>393</ele>
        <time>2018-04-12T14:02:47Z</time>
      </trkpt>
      <trkpt lat="46.19329" lon="2.4038">
        <ele>393</ele>
        <time>2018-04-12T14:02:50Z</time>
      </trkpt>
      <trkpt lat="46.19328" lon="2.40385">
        <ele>393</ele>
        <time>2018-04-12T14:02:53Z</time>
      </trkpt>
      <trkpt lat="46.19327" lon="2.40391">
        <ele>392</ele>
        <time>2018-04-12T14:02:56Z</time>
      </trkpt>
      <trkpt lat="46.19326" lon="2.40397">
        <ele>392</ele>
        <time>2018-04-12T14:02:59Z</time>
      </trkpt>
      <trkpt lat="46.19326" lon="2.40403">
        <ele>392</ele>
        <time>2018-04-12T14:03:02Z</time>
      </trkpt>
      <trkpt lat="46.19326" lon="2.40408">
        <ele>392</ele>
        <time>2018-04-12T14:03:05Z</time>
      </trkpt>
      <trkpt lat="46.19326" lon="2.40415">
        <ele>392</ele>
        <time>2018-04-12T14:03:08Z</time>
      </trkpt>
      <trkpt lat="46.19327" lon="2.40422">
        <ele>392</ele>
        <time>2018-04-12T14:03:11Z</time>
      </trkpt>
      <trkpt lat="46.19327" lon="2.4043">
        <ele>393</ele>
        <time>2018-04-12T14:03:14Z</time>
      </trkpt>
      <trkpt lat="46.19327" lon="2.40437">
        <ele>393</ele>
        <time>2018-04-12T14:03:17Z</time>
      </trkpt>
      <trkpt lat="46.19327" lon="2.40443">
        <ele>393</ele>
        <time>2018-04-12T14:03:20Z</time>
      </trkpt>
      <trkpt lat="46.19328" lon="2.40449">
        <ele>394</ele>
        <time>2018-04-12T14:03:23Z</time>
      </trkpt>
      <trkpt lat="46.19328" lon="2.40455">
        <ele>394</ele>
        <time>2018-04-12T14:03:26Z</time>
      </trkpt>
      <trkpt lat="46.19329" lon="2.40461">
        <ele>394</ele>
        <time>2018-04-12T14:03:29Z</time>
      </trkpt>
      <trkpt lat="46.1933" lon="2.40467">
        <ele>394</ele>
        <time>2018-04-12T14:03:32Z</time>
      </trkpt>
      <trkpt lat="46.1933" lon="2.40472">
        <ele>394</ele>
        <time>2018-04-12T14:03:35Z</time>
      </trkpt>
      <trkpt lat="46.19331" lon="2.40477">
        <ele>394</ele>
        <time>2018-04-12T14:03:38Z</time>
      </trkpt>
      <trkpt lat="46.19332" lon="2.40483">
        <ele>394</ele>
        <time>2018-04-12T14:03:41Z</time>
      </trkpt>
      <trkpt lat="46.19333" lon="2.40489">
        <ele>394</ele>
        <time>2018-04-12T14:03:44Z</time>
      </trkpt>
      <trkpt lat="46.19334" lon="2.40495">
        <ele>393</ele>
        <time>2018-04-12T14:03:47Z</time>
      </trkpt>
      <trkpt lat="46.19335" lon="2.40501">
        <ele>394</ele>
        <time>2018-04-12T14:03:50Z</time>
      </trkpt>
      <trkpt lat="46.19335" lon="2.40507">
        <ele>394</ele>
        <time>2018-04-12T14:03:53Z</time>
      </trkpt>
      <trkpt lat="46.19336" lon="2.40513">
        <ele>395</ele>
        <time>2018-04-12T14:03:56Z</time>
      </trkpt>
      <trkpt lat="46.19337" lon="2.4052">
        <ele>395</ele>
        <time>2018-04-12T14:03:59Z</time>
      </trkpt>
      <trkpt lat="46.19337" lon="2.40526">
        <ele>395</ele>
        <time>2018-04-12T14:04:02Z</time>
      </trkpt>
      <trkpt lat="46.19338" lon="2.40532">
        <ele>395</ele>
        <time>2018-04-12T14:04:05Z</time>
      </trkpt>
      <trkpt lat="46.19339" lon="2.40538">
        <ele>396</ele>
        <time>2018-04-12T14:04:08Z</time>
      </trkpt>
      <trkpt lat="46.19339" lon="2.40544">
        <ele>396</ele>
        <time>2018-04-12T14:04:11Z</time>
      </trkpt>
      <trkpt lat="46.19339" lon="2.4055">
        <ele>396</ele>
        <time>2018-04-12T14:04:14Z</time>
      </trkpt>
      <trkpt lat="46.19339" lon="2.40556">
        <ele>396</ele>
        <time>2018-04-12T14:04:17Z</time>
      </trkpt>
      <trkpt lat="46.19339" lon="2.40561">
        <ele>396</ele>
        <time>2018-04-12T14:04:20Z</time>
      </trkpt>
      <trkpt lat="46.19339" lon="2.40567">
        <ele>396</ele>
        <time>2018-04-12T14:04:23Z</time>
      </trkpt>
      <trkpt lat="46.19339" lon="2.40572">
        <ele>397</ele>
        <time>2018-04-12T14:04:26Z</time>
      </trkpt>
      <trkpt lat="46.19338" lon="2.40577">
        <ele>397</ele>
        <time>2018-04-12T14:04:29Z</time>
      </trkpt>
      <trkpt lat="46.19337" lon="2.40582">
        <ele>397</ele>
        <time>2018-04-12T14:04:32Z</time>
      </trkpt>
      <trkpt lat="46.19336" lon="2.40588">
        <ele>397</ele>
        <time>2018-04-12T14:04:35Z</time>
      </trkpt>
      <trkpt lat="46.19335" lon="2.40593">
        <ele>397</ele>
        <time>2018-04-12T14:04:38Z</time>
      </trkpt>
      <trkpt lat="46.19334" lon="2.40597">
        <ele>398</ele>
        <time>2018-04-12T14:04:41Z</time>
      </trkpt>
      <trkpt lat="46.19332" lon="2.40603">
        <ele>396</ele>
        <time>2018-04-12T14:04:45Z</time>
      </trkpt>
      <trkpt lat="46.19331" lon="2.40608">
        <ele>396</ele>
        <time>2018-04-12T14:04:49Z</time>
      </trkpt>
      <trkpt lat="46.1933" lon="2.40612">
        <ele>396</ele>
        <time>2018-04-12T14:04:53Z</time>
      </trkpt>
      <trkpt lat="46.1933" lon="2.40614">
        <ele>396</ele>
        <time>2018-04-12T14:04:56Z</time>
      </trkpt>
      <trkpt lat="46.1933" lon="2.40615">
        <ele>396</ele>
        <time>2018-04-12T14:05:05Z</time>
      </trkpt>
      <trkpt lat="46.19329" lon="2.40617">
        <ele>396</ele>
        <time>2018-04-12T14:05:15Z</time>
      </trkpt>
      <trkpt lat="46.1933" lon="2.40622">
        <ele>395</ele>
        <time>2018-04-12T14:05:19Z</time>
      </trkpt>
      <trkpt lat="46.1933" lon="2.40626">
        <ele>395</ele>
        <time>2018-04-12T14:05:24Z</time>
      </trkpt>
      <trkpt lat="46.1933" lon="2.40628">
        <ele>395</ele>
        <time>2018-04-12T14:05:31Z</time>
      </trkpt>
      <trkpt lat="46.19331" lon="2.40633">
        <ele>395</ele>
        <time>2018-04-12T14:05:34Z</time>
      </trkpt>
      <trkpt lat="46.19333" lon="2.40638">
        <ele>395</ele>
        <time>2018-04-12T14:05:37Z</time>
      </trkpt>
      <trkpt lat="46.19335" lon="2.40644">
        <ele>397</ele>
        <time>2018-04-12T14:05:40Z</time>
      </trkpt>
      <trkpt lat="46.19336" lon="2.40649">
        <ele>397</ele>
        <time>2018-04-12T14:05:43Z</time>
      </trkpt>
      <trkpt lat="46.19338" lon="2.40654">
        <ele>397</ele>
        <time>2018-04-12T14:05:46Z</time>
      </trkpt>
      <trkpt lat="46.19339" lon="2.4066">
        <ele>396</ele>
        <time>2018-04-12T14:05:49Z</time>
      </trkpt>
      <trkpt lat="46.19339" lon="2.40666">
        <ele>396</ele>
        <time>2018-04-12T14:05:52Z</time>
      </trkpt>
      <trkpt lat="46.1934" lon="2.40671">
        <ele>396</ele>
        <time>2018-04-12T14:05:55Z</time>
      </trkpt>
      <trkpt lat="46.19341" lon="2.40677">
        <ele>397</ele>
        <time>2018-04-12T14:05:58Z</time>
      </trkpt>
      <trkpt lat="46.19341" lon="2.40683">
        <ele>397</ele>
        <time>2018-04-12T14:06:01Z</time>
      </trkpt>
      <trkpt lat="46.19342" lon="2.40689">
        <ele>397</ele>
        <time>2018-04-12T14:06:04Z</time>
      </trkpt>
      <trkpt lat="46.19342" lon="2.40695">
        <ele>398</ele>
        <time>2018-04-12T14:06:07Z</time>
      </trkpt>
      <trkpt lat="46.19343" lon="2.40701">
        <ele>398</ele>
        <time>2018-04-12T14:06:10Z</time>
      </trkpt>
      <trkpt lat="46.19344" lon="2.40707">
        <ele>398</ele>
        <time>2018-04-12T14:06:13Z</time>
      </trkpt>
      <trkpt lat="46.19344" lon="2.40713">
        <ele>398</ele>
        <time>2018-04-12T14:06:16Z</time>
      </trkpt>
      <trkpt lat="46.19345" lon="2.40719">
        <ele>398</ele>
        <time>2018-04-12T14:06:19Z</time>
      </trkpt>
      <trkpt lat="46.19345" lon="2.40725">
        <ele>397</ele>
        <time>2018-04-12T14:06:22Z</time>
      </trkpt>
      <trkpt lat="46.19346" lon="2.40731">
        <ele>397</ele>
        <time>2018-04-12T14:06:25Z</time>
      </trkpt>
      <trkpt lat="46.19346" lon="2.40737">
        <ele>396</ele>
        <time>2018-04-12T14:06:28Z</time>
      </trkpt>
      <trkpt lat="46.19347" lon="2.40744">
        <ele>396</ele>
        <time>2018-04-12T14:06:31Z</time>
      </trkpt>
      <trkpt lat="46.19346" lon="2.4075">
        <ele>396</ele>
        <time>2018-04-12T14:06:34Z</time>
      </trkpt>
      <trkpt lat="46.19346" lon="2.40756">
        <ele>396</ele>
        <time>2018-04-12T14:06:37Z</time>
      </trkpt>
      <trkpt lat="46.19347" lon="2.40762">
        <ele>397</ele>
        <time>2018-04-12T14:06:40Z</time>
      </trkpt>
      <trkpt lat="46.19347" lon="2.40768">
        <ele>397</ele>
        <time>2018-04-12T14:06:43Z</time>
      </trkpt>
      <trkpt lat="46.19348" lon="2.40774">
        <ele>398</ele>
        <time>2018-04-12T14:06:46Z</time>
      </trkpt>
      <trkpt lat="46.19348" lon="2.4078">
        <ele>398</ele>
        <time>2018-04-12T14:06:49Z</time>
      </trkpt>
      <trkpt lat="46.19347" lon="2.40787">
        <ele>398</ele>
        <time>2018-04-12T14:06:52Z</time>
      </trkpt>
      <trkpt lat="46.19348" lon="2.40793">
        <ele>398</ele>
        <time>2018-04-12T14:06:55Z</time>
      </trkpt>
      <trkpt lat="46.19348" lon="2.40799">
        <ele>398</ele>
        <time>2018-04-12T14:06:58Z</time>
      </trkpt>
      <trkpt lat="46.19348" lon="2.40806">
        <ele>398</ele>
        <time>2018-04-12T14:07:01Z</time>
      </trkpt>
      <trkpt lat="46.19348" lon="2.40813">
        <ele>397</ele>
        <time>2018-04-12T14:07:04Z</time>
      </trkpt>
      <trkpt lat="46.19348" lon="2.4082">
        <ele>397</ele>
        <time>2018-04-12T14:07:07Z</time>
      </trkpt>
      <trkpt lat="46.19349" lon="2.40826">
        <ele>397</ele>
        <time>2018-04-12T14:07:10Z</time>
      </trkpt>
      <trkpt lat="46.19349" lon="2.40833">
        <ele>396</ele>
        <time>2018-04-12T14:07:13Z</time>
      </trkpt>
      <trkpt lat="46.19349" lon="2.40839">
        <ele>396</ele>
        <time>2018-04-12T14:07:16Z</time>
      </trkpt>
      <trkpt lat="46.19349" lon="2.40846">
        <ele>397</ele>
        <time>2018-04-12T14:07:19Z</time>
      </trkpt>
      <trkpt lat="46.1935" lon="2.40852">
        <ele>397</ele>
        <time>2018-04-12T14:07:22Z</time>
      </trkpt>
      <trkpt lat="46.1935" lon="2.40859">
        <ele>397</ele>
        <time>2018-04-12T14:07:25Z</time>
      </trkpt>
      <trkpt lat="46.1935" lon="2.40865">
        <ele>397</ele>
        <time>2018-04-12T14:07:28Z</time>
      </trkpt>
      <trkpt lat="46.1935" lon="2.40872">
        <ele>397</ele>
        <time>2018-04-12T14:07:31Z</time>
      </trkpt>
      <trkpt lat="46.1935" lon="2.40879">
        <ele>397</ele>
        <time>2018-04-12T14:07:34Z</time>
      </trkpt>
      <trkpt lat="46.1935" lon="2.40885">
        <ele>397</ele>
        <time>2018-04-12T14:07:37Z</time>
      </trkpt>
      <trkpt lat="46.1935" lon="2.40892">
        <ele>397</ele>
        <time>2018-04-12T14:07:40Z</time>
      </trkpt>
      <trkpt lat="46.1935" lon="2.40898">
        <ele>396</ele>
        <time>2018-04-12T14:07:43Z</time>
      </trkpt>
      <trkpt lat="46.19351" lon="2.40904">
        <ele>396</ele>
        <time>2018-04-12T14:07:46Z</time>
      </trkpt>
      <trkpt lat="46.19351" lon="2.40911">
        <ele>396</ele>
        <time>2018-04-12T14:07:49Z</time>
      </trkpt>
      <trkpt lat="46.19351" lon="2.40917">
        <ele>395</ele>
        <time>2018-04-12T14:07:52Z</time>
      </trkpt>
      <trkpt lat="46.19351" lon="2.40923">
        <ele>395</ele>
        <time>2018-04-12T14:07:55Z</time>
      </trkpt>
      <trkpt lat="46.19352" lon="2.40929">
        <ele>396</ele>
        <time>2018-04-12T14:07:58Z</time>
      </trkpt>
      <trkpt lat="46.19351" lon="2.40935">
        <ele>396</ele>
        <time>2018-04-12T14:08:01Z</time>
      </trkpt>
      <trkpt lat="46.19351" lon="2.40941">
        <ele>396</ele>
        <time>2018-04-12T14:08:04Z</time>
      </trkpt>
      <trkpt lat="46.19351" lon="2.40947">
        <ele>397</ele>
        <time>2018-04-12T14:08:07Z</time>
      </trkpt>
      <trkpt lat="46.19351" lon="2.40954">
        <ele>397</ele>
        <time>2018-04-12T14:08:10Z</time>
      </trkpt>
      <trkpt lat="46.19351" lon="2.4096">
        <ele>397</ele>
        <time>2018-04-12T14:08:13Z</time>
      </trkpt>
      <trkpt lat="46.1935" lon="2.40966">
        <ele>397</ele>
        <time>2018-04-12T14:08:16Z</time>
      </trkpt>
      <trkpt lat="46.1935" lon="2.40972">
        <ele>397</ele>
        <time>2018-04-12T14:08:19Z</time>
      </trkpt>
      <trkpt lat="46.1935" lon="2.40978">
        <ele>396</ele>
        <time>2018-04-12T14:08:22Z</time>
      </trkpt>
      <trkpt lat="46.1935" lon="2.40984">
        <ele>396</ele>
        <time>2018-04-12T14:08:25Z</time>
      </trkpt>
      <trkpt lat="46.1935" lon="2.4099">
        <ele>395</ele>
        <time>2018-04-12T14:08:28Z</time>
      </trkpt>
      <trkpt lat="46.1935" lon="2.40996">
        <ele>395</ele>
        <time>2018-04-12T14:08:31Z</time>
      </trkpt>
      <trkpt lat="46.1935" lon="2.41002">
        <ele>396</ele>
        <time>2018-04-12T14:08:34Z</time>
      </trkpt>
      <trkpt lat="46.1935" lon="2.41008">
        <ele>396</ele>
        <time>2018-04-12T14:08:37Z</time>
      </trkpt>
      <trkpt lat="46.19349" lon="2.41014">
        <ele>396</ele>
        <time>2018-04-12T14:08:40Z</time>
      </trkpt>
      <trkpt lat="46.19349" lon="2.4102">
        <ele>397</ele>
        <time>2018-04-12T14:08:43Z</time>
      </trkpt>
      <trkpt lat="46.19348" lon="2.41026">
        <ele>397</ele>
        <time>2018-04-12T14:08:46Z</time>
      </trkpt>
      <trkpt lat="46.19347" lon="2.41032">
        <ele>398</ele>
        <time>2018-04-12T14:08:49Z</time>
      </trkpt>
      <trkpt lat="46.19347" lon="2.41038">
        <ele>398</ele>
        <time>2018-04-12T14:08:52Z</time>
      </trkpt>
      <trkpt lat="46.19346" lon="2.41044">
        <ele>398</ele>
        <time>2018-04-12T14:08:55Z</time>
      </trkpt>
      <trkpt lat="46.19346" lon="2.4105">
        <ele>398</ele>
        <time>2018-04-12T14:08:58Z</time>
      </trkpt>
      <trkpt lat="46.19344" lon="2.41056">
        <ele>398</ele>
        <time>2018-04-12T14:09:01Z</time>
      </trkpt>
      <trkpt lat="46.19344" lon="2.41062">
        <ele>397</ele>
        <time>2018-04-12T14:09:04Z</time>
      </trkpt>
      <trkpt lat="46.19342" lon="2.41069">
        <ele>397</ele>
        <time>2018-04-12T14:09:07Z</time>
      </trkpt>
      <trkpt lat="46.19341" lon="2.41075">
        <ele>396</ele>
        <time>2018-04-12T14:09:10Z</time>
      </trkpt>
      <trkpt lat="46.19341" lon="2.41081">
        <ele>396</ele>
        <time>2018-04-12T14:09:13Z</time>
      </trkpt>
      <trkpt lat="46.1934" lon="2.41087">
        <ele>396</ele>
        <time>2018-04-12T14:09:16Z</time>
      </trkpt>
      <trkpt lat="46.19339" lon="2.41093">
        <ele>397</ele>
        <time>2018-04-12T14:09:19Z</time>
      </trkpt>
      <trkpt lat="46.19339" lon="2.41099">
        <ele>398</ele>
        <time>2018-04-12T14:09:22Z</time>
      </trkpt>
      <trkpt lat="46.19338" lon="2.41106">
        <ele>398</ele>
        <time>2018-04-12T14:09:25Z</time>
      </trkpt>
      <trkpt lat="46.19337" lon="2.41111">
        <ele>399</ele>
        <time>2018-04-12T14:09:28Z</time>
      </trkpt>
      <trkpt lat="46.19336" lon="2.41117">
        <ele>399</ele>
        <time>2018-04-12T14:09:31Z</time>
      </trkpt>
      <trkpt lat="46.19335" lon="2.41123">
        <ele>399</ele>
        <time>2018-04-12T14:09:34Z</time>
      </trkpt>
      <trkpt lat="46.19334" lon="2.41129">
        <ele>399</ele>
        <time>2018-04-12T14:09:37Z</time>
      </trkpt>
      <trkpt lat="46.19333" lon="2.41136">
        <ele>392</ele>
        <time>2018-04-12T14:09:40Z</time>
      </trkpt>
      <trkpt lat="46.19332" lon="2.41142">
        <ele>392</ele>
        <time>2018-04-12T14:09:43Z</time>
      </trkpt>
      <trkpt lat="46.19331" lon="2.41149">
        <ele>393</ele>
        <time>2018-04-12T14:09:46Z</time>
      </trkpt>
      <trkpt lat="46.1933" lon="2.41154">
        <ele>393</ele>
        <time>2018-04-12T14:09:49Z</time>
      </trkpt>
      <trkpt lat="46.19328" lon="2.4116">
        <ele>394</ele>
        <time>2018-04-12T14:09:52Z</time>
      </trkpt>
      <trkpt lat="46.19327" lon="2.41165">
        <ele>394</ele>
        <time>2018-04-12T14:09:55Z</time>
      </trkpt>
      <trkpt lat="46.19326" lon="2.41169">
        <ele>394</ele>
        <time>2018-04-12T14:10:49Z</time>
      </trkpt>
      <trkpt lat="46.19326" lon="2.4117">
        <ele>394</ele>
        <time>2018-04-12T14:10:54Z</time>
      </trkpt>
      <trkpt lat="46.19325" lon="2.41172">
        <ele>394</ele>
        <time>2018-04-12T14:10:58Z</time>
      </trkpt>
      <trkpt lat="46.19324" lon="2.41174">
        <ele>393</ele>
        <time>2018-04-12T14:11:05Z</time>
      </trkpt>
      <trkpt lat="46.19324" lon="2.41179">
        <ele>393</ele>
        <time>2018-04-12T14:11:08Z</time>
      </trkpt>
      <trkpt lat="46.19322" lon="2.41184">
        <ele>393</ele>
        <time>2018-04-12T14:11:11Z</time>
      </trkpt>
      <trkpt lat="46.19322" lon="2.4119">
        <ele>392</ele>
        <time>2018-04-12T14:11:14Z</time>
      </trkpt>
      <trkpt lat="46.19321" lon="2.41196">
        <ele>392</ele>
        <time>2018-04-12T14:11:17Z</time>
      </trkpt>
      <trkpt lat="46.19321" lon="2.41202">
        <ele>392</ele>
        <time>2018-04-12T14:11:20Z</time>
      </trkpt>
      <trkpt lat="46.1932" lon="2.41208">
        <ele>392</ele>
        <time>2018-04-12T14:11:23Z</time>
      </trkpt>
      <trkpt lat="46.19319" lon="2.41214">
        <ele>392</ele>
        <time>2018-04-12T14:11:26Z</time>
      </trkpt>
      <trkpt lat="46.19318" lon="2.4122">
        <ele>392</ele>
        <time>2018-04-12T14:11:29Z</time>
      </trkpt>
      <trkpt lat="46.19318" lon="2.41225">
        <ele>392</ele>
        <time>2018-04-12T14:11:32Z</time>
      </trkpt>
      <trkpt lat="46.19317" lon="2.41231">
        <ele>392</ele>
        <time>2018-04-12T14:11:35Z</time>
      </trkpt>
      <trkpt lat="46.19315" lon="2.41236">
        <ele>392</ele>
        <time>2018-04-12T14:11:38Z</time>
      </trkpt>
      <trkpt lat="46.19314" lon="2.41244">
        <ele>392</ele>
        <time>2018-04-12T14:11:41Z</time>
      </trkpt>
      <trkpt lat="46.19313" lon="2.4125">
        <ele>392</ele>
        <time>2018-04-12T14:11:44Z</time>
      </trkpt>
      <trkpt lat="46.19311" lon="2.41255">
        <ele>391</ele>
        <time>2018-04-12T14:11:47Z</time>
      </trkpt>
      <trkpt lat="46.19311" lon="2.41261">
        <ele>391</ele>
        <time>2018-04-12T14:11:50Z</time>
      </trkpt>
      <trkpt lat="46.1931" lon="2.41266">
        <ele>390</ele>
        <time>2018-04-12T14:11:53Z</time>
      </trkpt>
      <trkpt lat="46.1931" lon="2.41271">
        <ele>390</ele>
        <time>2018-04-12T14:11:56Z</time>
      </trkpt>
      <trkpt lat="46.19309" lon="2.41278">
        <ele>390</ele>
        <time>2018-04-12T14:11:59Z</time>
      </trkpt>
      <trkpt lat="46.19308" lon="2.41283">
        <ele>390</ele>
        <time>2018-04-12T14:12:02Z</time>
      </trkpt>
      <trkpt lat="46.19307" lon="2.41289">
        <ele>390</ele>
        <time>2018-04-12T14:12:05Z</time>
      </trkpt>
      <trkpt lat="46.19307" lon="2.41296">
        <ele>389</ele>
        <time>2018-04-12T14:12:08Z</time>
      </trkpt>
      <trkpt lat="46.19306" lon="2.41302">
        <ele>389</ele>
        <time>2018-04-12T14:12:11Z</time>
      </trkpt>
      <trkpt lat="46.19305" lon="2.41309">
        <ele>389</ele>
        <time>2018-04-12T14:12:14Z</time>
      </trkpt>
      <trkpt lat="46.19304" lon="2.41315">
        <ele>389</ele>
        <time>2018-04-12T14:12:17Z</time>
      </trkpt>
      <trkpt lat="46.19302" lon="2.41322">
        <ele>389</ele>
        <time>2018-04-12T14:12:20Z</time>
      </trkpt>
      <trkpt lat="46.19302" lon="2.41328">
        <ele>389</ele>
        <time>2018-04-12T14:12:23Z</time>
      </trkpt>
      <trkpt lat="46.193" lon="2.41334">
        <ele>387</ele>
        <time>2018-04-12T14:12:26Z</time>
      </trkpt>
      <trkpt lat="46.19299" lon="2.4134">
        <ele>387</ele>
        <time>2018-04-12T14:12:29Z</time>
      </trkpt>
      <trkpt lat="46.19298" lon="2.41346">
        <ele>387</ele>
        <time>2018-04-12T14:12:32Z</time>
      </trkpt>
      <trkpt lat="46.19297" lon="2.41351">
        <ele>387</ele>
        <time>2018-04-12T14:12:35Z</time>
      </trkpt>
      <trkpt lat="46.19296" lon="2.41358">
        <ele>387</ele>
        <time>2018-04-12T14:12:38Z</time>
      </trkpt>
      <trkpt lat="46.19295" lon="2.41364">
        <ele>387</ele>
        <time>2018-04-12T14:12:41Z</time>
      </trkpt>
      <trkpt lat="46.19294" lon="2.41371">
        <ele>386</ele>
        <time>2018-04-12T14:12:44Z</time>
      </trkpt>
      <trkpt lat="46.19293" lon="2.41378">
        <ele>386</ele>
        <time>2018-04-12T14:12:47Z</time>
      </trkpt>
      <trkpt lat="46.19292" lon="2.41384">
        <ele>386</ele>
        <time>2018-04-12T14:12:50Z</time>
      </trkpt>
      <trkpt lat="46.19291" lon="2.41391">
        <ele>386</ele>
        <time>2018-04-12T14:12:53Z</time>
      </trkpt>
      <trkpt lat="46.1929" lon="2.41398">
        <ele>386</ele>
        <time>2018-04-12T14:12:56Z</time>
      </trkpt>
      <trkpt lat="46.19289" lon="2.41404">
        <ele>386</ele>
        <time>2018-04-12T14:12:59Z</time>
      </trkpt>
      <trkpt lat="46.19288" lon="2.41411">
        <ele>386</ele>
        <time>2018-04-12T14:13:02Z</time>
      </trkpt>
      <trkpt lat="46.19287" lon="2.41417">
        <ele>383</ele>
        <time>2018-04-12T14:13:05Z</time>
      </trkpt>
      <trkpt lat="46.19286" lon="2.41424">
        <ele>383</ele>
        <time>2018-04-12T14:13:08Z</time>
      </trkpt>
      <trkpt lat="46.19284" lon="2.4143">
        <ele>383</ele>
        <time>2018-04-12T14:13:11Z</time>
      </trkpt>
      <trkpt lat="46.19284" lon="2.41436">
        <ele>383</ele>
        <time>2018-04-12T14:13:14Z</time>
      </trkpt>
      <trkpt lat="46.19282" lon="2.41443">
        <ele>383</ele>
        <time>2018-04-12T14:13:17Z</time>
      </trkpt>
      <trkpt lat="46.19281" lon="2.41449">
        <ele>383</ele>
        <time>2018-04-12T14:13:20Z</time>
      </trkpt>
      <trkpt lat="46.1928" lon="2.41454">
        <ele>382</ele>
        <time>2018-04-12T14:13:23Z</time>
      </trkpt>
      <trkpt lat="46.19279" lon="2.4146">
        <ele>382</ele>
        <time>2018-04-12T14:13:26Z</time>
      </trkpt>
      <trkpt lat="46.19278" lon="2.41466">
        <ele>382</ele>
        <time>2018-04-12T14:13:29Z</time>
      </trkpt>
      <trkpt lat="46.19277" lon="2.41473">
        <ele>382</ele>
        <time>2018-04-12T14:13:32Z</time>
      </trkpt>
      <trkpt lat="46.19276" lon="2.41479">
        <ele>382</ele>
        <time>2018-04-12T14:13:35Z</time>
      </trkpt>
      <trkpt lat="46.19276" lon="2.41485">
        <ele>381</ele>
        <time>2018-04-12T14:13:38Z</time>
      </trkpt>
      <trkpt lat="46.19275" lon="2.41491">
        <ele>381</ele>
        <time>2018-04-12T14:13:41Z</time>
      </trkpt>
      <trkpt lat="46.19274" lon="2.41498">
        <ele>381</ele>
        <time>2018-04-12T14:13:44Z</time>
      </trkpt>
      <trkpt lat="46.19273" lon="2.41504">
        <ele>378</ele>
        <time>2018-04-12T14:13:47Z</time>
      </trkpt>
      <trkpt lat="46.19273" lon="2.4151">
        <ele>378</ele>
        <time>2018-04-12T14:13:50Z</time>
      </trkpt>
      <trkpt lat="46.19272" lon="2.41517">
        <ele>378</ele>
        <time>2018-04-12T14:13:53Z</time>
      </trkpt>
      <trkpt lat="46.19271" lon="2.41523">
        <ele>378</ele>
        <time>2018-04-12T14:13:56Z</time>
      </trkpt>
      <trkpt lat="46.19272" lon="2.41528">
        <ele>378</ele>
        <time>2018-04-12T14:13:59Z</time>
      </trkpt>
      <trkpt lat="46.19275" lon="2.41533">
        <ele>378</ele>
        <time>2018-04-12T14:14:02Z</time>
      </trkpt>
      <trkpt lat="46.19277" lon="2.41538">
        <ele>378</ele>
        <time>2018-04-12T14:14:05Z</time>
      </trkpt>
      <trkpt lat="46.1928" lon="2.41544">
        <ele>378</ele>
        <time>2018-04-12T14:14:08Z</time>
      </trkpt>
      <trkpt lat="46.19281" lon="2.4155">
        <ele>377</ele>
        <time>2018-04-12T14:14:11Z</time>
      </trkpt>
      <trkpt lat="46.19282" lon="2.41557">
        <ele>377</ele>
        <time>2018-04-12T14:14:14Z</time>
      </trkpt>
      <trkpt lat="46.19282" lon="2.41562">
        <ele>377</ele>
        <time>2018-04-12T14:14:17Z</time>
      </trkpt>
      <trkpt lat="46.19282" lon="2.41569">
        <ele>377</ele>
        <time>2018-04-12T14:14:20Z</time>
      </trkpt>
      <trkpt lat="46.19282" lon="2.41574">
        <ele>377</ele>
        <time>2018-04-12T14:14:23Z</time>
      </trkpt>
      <trkpt lat="46.19283" lon="2.4158">
        <ele>377</ele>
        <time>2018-04-12T14:14:26Z</time>
      </trkpt>
      <trkpt lat="46.19284" lon="2.41586">
        <ele>373</ele>
        <time>2018-04-12T14:14:29Z</time>
      </trkpt>
      <trkpt lat="46.19285" lon="2.41592">
        <ele>373</ele>
        <time>2018-04-12T14:14:32Z</time>
      </trkpt>
      <trkpt lat="46.19287" lon="2.41597">
        <ele>373</ele>
        <time>2018-04-12T14:14:35Z</time>
      </trkpt>
      <trkpt lat="46.19289" lon="2.41603">
        <ele>373</ele>
        <time>2018-04-12T14:14:38Z</time>
      </trkpt>
      <trkpt lat="46.19291" lon="2.41608">
        <ele>373</ele>
        <time>2018-04-12T14:14:41Z</time>
      </trkpt>
      <trkpt lat="46.19292" lon="2.41613">
        <ele>373</ele>
        <time>2018-04-12T14:14:44Z</time>
      </trkpt>
      <trkpt lat="46.19292" lon="2.41619">
        <ele>373</ele>
        <time>2018-04-12T14:14:47Z</time>
      </trkpt>
      <trkpt lat="46.19292" lon="2.41623">
        <ele>373</ele>
        <time>2018-04-12T14:14:50Z</time>
      </trkpt>
      <trkpt lat="46.1929" lon="2.41628">
        <ele>373</ele>
        <time>2018-04-12T14:14:54Z</time>
      </trkpt>
      <trkpt lat="46.19286" lon="2.4163">
        <ele>372</ele>
        <time>2018-04-12T14:14:58Z</time>
      </trkpt>
      <trkpt lat="46.19281" lon="2.41633">
        <ele>372</ele>
        <time>2018-04-12T14:15:02Z</time>
      </trkpt>
      <trkpt lat="46.19278" lon="2.41636">
        <ele>372</ele>
        <time>2018-04-12T14:15:05Z</time>
      </trkpt>
      <trkpt lat="46.19275" lon="2.41637">
        <ele>371</ele>
        <time>2018-04-12T14:15:09Z</time>
      </trkpt>
      <trkpt lat="46.19272" lon="2.41639">
        <ele>371</ele>
        <time>2018-04-12T14:15:12Z</time>
      </trkpt>
      <trkpt lat="46.19268" lon="2.41641">
        <ele>371</ele>
        <time>2018-04-12T14:15:15Z</time>
      </trkpt>
      <trkpt lat="46.19265" lon="2.41643">
        <ele>370</ele>
        <time>2018-04-12T14:15:18Z</time>
      </trkpt>
      <trkpt lat="46.19261" lon="2.41646">
        <ele>370</ele>
        <time>2018-04-12T14:15:21Z</time>
      </trkpt>
      <trkpt lat="46.19257" lon="2.41649">
        <ele>369</ele>
        <time>2018-04-12T14:15:24Z</time>
      </trkpt>
      <trkpt lat="46.19253" lon="2.41651">
        <ele>368</ele>
        <time>2018-04-12T14:15:27Z</time>
      </trkpt>
      <trkpt lat="46.19249" lon="2.41653">
        <ele>366</ele>
        <time>2018-04-12T14:15:30Z</time>
      </trkpt>
      <trkpt lat="46.19245" lon="2.41656">
        <ele>366</ele>
        <time>2018-04-12T14:15:33Z</time>
      </trkpt>
      <trkpt lat="46.19241" lon="2.41658">
        <ele>366</ele>
        <time>2018-04-12T14:15:36Z</time>
      </trkpt>
      <trkpt lat="46.19237" lon="2.41661">
        <ele>366</ele>
        <time>2018-04-12T14:15:39Z</time>
      </trkpt>
      <trkpt lat="46.19233" lon="2.41664">
        <ele>366</ele>
        <time>2018-04-12T14:15:42Z</time>
      </trkpt>
      <trkpt lat="46.1923" lon="2.41667">
        <ele>363</ele>
        <time>2018-04-12T14:15:45Z</time>
      </trkpt>
      <trkpt lat="46.19227" lon="2.41671">
        <ele>363</ele>
        <time>2018-04-12T14:15:48Z</time>
      </trkpt>
      <trkpt lat="46.19223" lon="2.41676">
        <ele>363</ele>
        <time>2018-04-12T14:15:51Z</time>
      </trkpt>
      <trkpt lat="46.1922" lon="2.4168">
        <ele>363</ele>
        <time>2018-04-12T14:15:54Z</time>
      </trkpt>
      <trkpt lat="46.19218" lon="2.41685">
        <ele>362</ele>
        <time>2018-04-12T14:15:57Z</time>
      </trkpt>
      <trkpt lat="46.19214" lon="2.4169">
        <ele>362</ele>
        <time>2018-04-12T14:16:00Z</time>
      </trkpt>
      <trkpt lat="46.19211" lon="2.41694">
        <ele>362</ele>
        <time>2018-04-12T14:16:03Z</time>
      </trkpt>
      <trkpt lat="46.19208" lon="2.41699">
        <ele>362</ele>
        <time>2018-04-12T14:16:06Z</time>
      </trkpt>
      <trkpt lat="46.19202" lon="2.41706">
        <ele>362</ele>
        <time>2018-04-12T14:16:10Z</time>
      </trkpt>
      <trkpt lat="46.19198" lon="2.41711">
        <ele>361</ele>
        <time>2018-04-12T14:16:14Z</time>
      </trkpt>
      <trkpt lat="46.19195" lon="2.41715">
        <ele>361</ele>
        <time>2018-04-12T14:16:17Z</time>
      </trkpt>
      <trkpt lat="46.1919" lon="2.4172">
        <ele>361</ele>
        <time>2018-04-12T14:16:21Z</time>
      </trkpt>
      <trkpt lat="46.19186" lon="2.41725">
        <ele>360</ele>
        <time>2018-04-12T14:16:25Z</time>
      </trkpt>
      <trkpt lat="46.19182" lon="2.41728">
        <ele>360</ele>
        <time>2018-04-12T14:16:28Z</time>
      </trkpt>
      <trkpt lat="46.19178" lon="2.41732">
        <ele>359</ele>
        <time>2018-04-12T14:16:31Z</time>
      </trkpt>
      <trkpt lat="46.19175" lon="2.41736">
        <ele>358</ele>
        <time>2018-04-12T14:16:34Z</time>
      </trkpt>
      <trkpt lat="46.19171" lon="2.4174">
        <ele>358</ele>
        <time>2018-04-12T14:16:37Z</time>
      </trkpt>
      <trkpt lat="46.19167" lon="2.41745">
        <ele>356</ele>
        <time>2018-04-12T14:16:41Z</time>
      </trkpt>
      <trkpt lat="46.19163" lon="2.4175">
        <ele>356</ele>
        <time>2018-04-12T14:16:45Z</time>
      </trkpt>
      <trkpt lat="46.19159" lon="2.41753">
        <ele>354</ele>
        <time>2018-04-12T14:16:48Z</time>
      </trkpt>
      <trkpt lat="46.19156" lon="2.41757">
        <ele>354</ele>
        <time>2018-04-12T14:16:51Z</time>
      </trkpt>
      <trkpt lat="46.19153" lon="2.41761">
        <ele>353</ele>
        <time>2018-04-12T14:16:54Z</time>
      </trkpt>
      <trkpt lat="46.19148" lon="2.41766">
        <ele>353</ele>
        <time>2018-04-12T14:16:58Z</time>
      </trkpt>
      <trkpt lat="46.19145" lon="2.41769">
        <ele>353</ele>
        <time>2018-04-12T14:17:01Z</time>
      </trkpt>
      <trkpt lat="46.19141" lon="2.41771">
        <ele>353</ele>
        <time>2018-04-12T14:17:04Z</time>
      </trkpt>
      <trkpt lat="46.19138" lon="2.41774">
        <ele>352</ele>
        <time>2018-04-12T14:17:07Z</time>
      </trkpt>
      <trkpt lat="46.19135" lon="2.41776">
        <ele>352</ele>
        <time>2018-04-12T14:17:10Z</time>
      </trkpt>
      <trkpt lat="46.19131" lon="2.41779">
        <ele>352</ele>
        <time>2018-04-12T14:17:13Z</time>
      </trkpt>
      <trkpt lat="46.19126" lon="2.41783">
        <ele>352</ele>
        <time>2018-04-12T14:17:16Z</time>
      </trkpt>
      <trkpt lat="46.19121" lon="2.41785">
        <ele>352</ele>
        <time>2018-04-12T14:17:19Z</time>
      </trkpt>
      <trkpt lat="46.19117" lon="2.41787">
        <ele>352</ele>
        <time>2018-04-12T14:17:22Z</time>
      </trkpt>
      <trkpt lat="46.19113" lon="2.41789">
        <ele>351</ele>
        <time>2018-04-12T14:17:25Z</time>
      </trkpt>
      <trkpt lat="46.1911" lon="2.41791">
        <ele>351</ele>
        <time>2018-04-12T14:17:28Z</time>
      </trkpt>
      <trkpt lat="46.19106" lon="2.41791">
        <ele>351</ele>
        <time>2018-04-12T14:17:32Z</time>
      </trkpt>
      <trkpt lat="46.19103" lon="2.41791">
        <ele>351</ele>
        <time>2018-04-12T14:17:35Z</time>
      </trkpt>
      <trkpt lat="46.19101" lon="2.41791">
        <ele>351</ele>
        <time>2018-04-12T14:17:38Z</time>
      </trkpt>
      <trkpt lat="46.191" lon="2.41792">
        <ele>351</ele>
        <time>2018-04-12T14:17:45Z</time>
      </trkpt>
      <trkpt lat="46.19099" lon="2.41793">
        <ele>351</ele>
        <time>2018-04-12T14:17:53Z</time>
      </trkpt>
      <trkpt lat="46.19098" lon="2.41795">
        <ele>351</ele>
        <time>2018-04-12T14:17:56Z</time>
      </trkpt>
      <trkpt lat="46.19096" lon="2.41798">
        <ele>350</ele>
        <time>2018-04-12T14:18:00Z</time>
      </trkpt>
      <trkpt lat="46.19096" lon="2.418">
        <ele>350</ele>
        <time>2018-04-12T14:18:03Z</time>
      </trkpt>
      <trkpt lat="46.19095" lon="2.41802">
        <ele>350</ele>
        <time>2018-04-12T14:18:07Z</time>
      </trkpt>
      <trkpt lat="46.19097" lon="2.41802">
        <ele>350</ele>
        <time>2018-04-12T14:18:11Z</time>
      </trkpt>
      <trkpt lat="46.191" lon="2.418">
        <ele>350</ele>
        <time>2018-04-12T14:18:15Z</time>
      </trkpt>
      <trkpt lat="46.19102" lon="2.41798">
        <ele>350</ele>
        <time>2018-04-12T14:18:18Z</time>
      </trkpt>
      <trkpt lat="46.19105" lon="2.41796">
        <ele>351</ele>
        <time>2018-04-12T14:18:21Z</time>
      </trkpt>
      <trkpt lat="46.1911" lon="2.41792">
        <ele>351</ele>
        <time>2018-04-12T14:18:25Z</time>
      </trkpt>
      <trkpt lat="46.19113" lon="2.4179">
        <ele>351</ele>
        <time>2018-04-12T14:18:28Z</time>
      </trkpt>
      <trkpt lat="46.19116" lon="2.41789">
        <ele>351</ele>
        <time>2018-04-12T14:18:31Z</time>
      </trkpt>
      <trkpt lat="46.1912" lon="2.41787">
        <ele>352</ele>
        <time>2018-04-12T14:18:34Z</time>
      </trkpt>
      <trkpt lat="46.19124" lon="2.41782">
        <ele>352</ele>
        <time>2018-04-12T14:18:38Z</time>
      </trkpt>
      <trkpt lat="46.19128" lon="2.41779">
        <ele>352</ele>
        <time>2018-04-12T14:18:41Z</time>
      </trkpt>
      <trkpt lat="46.19131" lon="2.41777">
        <ele>352</ele>
        <time>2018-04-12T14:18:44Z</time>
      </trkpt>
      <trkpt lat="46.19136" lon="2.41775">
        <ele>352</ele>
        <time>2018-04-12T14:18:48Z</time>
      </trkpt>
      <trkpt lat="46.19139" lon="2.41773">
        <ele>352</ele>
        <time>2018-04-12T14:18:51Z</time>
      </trkpt>
      <trkpt lat="46.19142" lon="2.41771">
        <ele>353</ele>
        <time>2018-04-12T14:18:54Z</time>
      </trkpt>
      <trkpt lat="46.19145" lon="2.41768">
        <ele>353</ele>
        <time>2018-04-12T14:18:57Z</time>
      </trkpt>
      <trkpt lat="46.19148" lon="2.41766">
        <ele>353</ele>
        <time>2018-04-12T14:19:00Z</time>
      </trkpt>
      <trkpt lat="46.19152" lon="2.41761">
        <ele>353</ele>
        <time>2018-04-12T14:19:04Z</time>
      </trkpt>
      <trkpt lat="46.19157" lon="2.41758">
        <ele>354</ele>
        <time>2018-04-12T14:19:08Z</time>
      </trkpt>
      <trkpt lat="46.19159" lon="2.41754">
        <ele>354</ele>
        <time>2018-04-12T14:19:11Z</time>
      </trkpt>
      <trkpt lat="46.19163" lon="2.4175">
        <ele>356</ele>
        <time>2018-04-12T14:19:15Z</time>
      </trkpt>
      <trkpt lat="46.19167" lon="2.41746">
        <ele>356</ele>
        <time>2018-04-12T14:19:19Z</time>
      </trkpt>
      <trkpt lat="46.19171" lon="2.41742">
        <ele>357</ele>
        <time>2018-04-12T14:19:23Z</time>
      </trkpt>
      <trkpt lat="46.19175" lon="2.41737">
        <ele>358</ele>
        <time>2018-04-12T14:19:27Z</time>
      </trkpt>
      <trkpt lat="46.19179" lon="2.41734">
        <ele>359</ele>
        <time>2018-04-12T14:19:31Z</time>
      </trkpt>
      <trkpt lat="46.19181" lon="2.41734">
        <ele>359</ele>
        <time>2018-04-12T14:19:35Z</time>
      </trkpt>
      <trkpt lat="46.19183" lon="2.4173">
        <ele>360</ele>
        <time>2018-04-12T14:19:39Z</time>
      </trkpt>
      <trkpt lat="46.19181" lon="2.41732">
        <ele>359</ele>
        <time>2018-04-12T14:19:47Z</time>
      </trkpt>
      <trkpt lat="46.19181" lon="2.41735">
        <ele>359</ele>
        <time>2018-04-12T14:19:51Z</time>
      </trkpt>
      <trkpt lat="46.19182" lon="2.41739">
        <ele>359</ele>
        <time>2018-04-12T14:19:55Z</time>
      </trkpt>
      <trkpt lat="46.19182" lon="2.41744">
        <ele>358</ele>
        <time>2018-04-12T14:19:59Z</time>
      </trkpt>
      <trkpt lat="46.19182" lon="2.41746">
        <ele>358</ele>
        <time>2018-04-12T14:20:02Z</time>
      </trkpt>
      <trkpt lat="46.19181" lon="2.41751">
        <ele>357</ele>
        <time>2018-04-12T14:20:05Z</time>
      </trkpt>
      <trkpt lat="46.1918" lon="2.41756">
        <ele>357</ele>
        <time>2018-04-12T14:20:08Z</time>
      </trkpt>
      <trkpt lat="46.19178" lon="2.41762">
        <ele>357</ele>
        <time>2018-04-12T14:20:12Z</time>
      </trkpt>
      <trkpt lat="46.19177" lon="2.41767">
        <ele>357</ele>
        <time>2018-04-12T14:20:15Z</time>
      </trkpt>
      <trkpt lat="46.19175" lon="2.41772">
        <ele>357</ele>
        <time>2018-04-12T14:20:18Z</time>
      </trkpt>
      <trkpt lat="46.19173" lon="2.41779">
        <ele>357</ele>
        <time>2018-04-12T14:20:22Z</time>
      </trkpt>
      <trkpt lat="46.1917" lon="2.41787">
        <ele>357</ele>
        <time>2018-04-12T14:20:26Z</time>
      </trkpt>
      <trkpt lat="46.19168" lon="2.41791">
        <ele>356</ele>
        <time>2018-04-12T14:20:29Z</time>
      </trkpt>
      <trkpt lat="46.19166" lon="2.41795">
        <ele>351</ele>
        <time>2018-04-12T14:20:32Z</time>
      </trkpt>
      <trkpt lat="46.19164" lon="2.418">
        <ele>351</ele>
        <time>2018-04-12T14:20:35Z</time>
      </trkpt>
      <trkpt lat="46.19161" lon="2.41806">
        <ele>350</ele>
        <time>2018-04-12T14:20:38Z</time>
      </trkpt>
      <trkpt lat="46.19159" lon="2.41811">
        <ele>350</ele>
        <time>2018-04-12T14:20:41Z</time>
      </trkpt>
      <trkpt lat="46.19157" lon="2.41816">
        <ele>350</ele>
        <time>2018-04-12T14:20:44Z</time>
      </trkpt>
      <trkpt lat="46.19156" lon="2.41822">
        <ele>349</ele>
        <time>2018-04-12T14:20:47Z</time>
      </trkpt>
      <trkpt lat="46.19154" lon="2.41827">
        <ele>349</ele>
        <time>2018-04-12T14:20:50Z</time>
      </trkpt>
      <trkpt lat="46.19153" lon="2.41832">
        <ele>349</ele>
        <time>2018-04-12T14:20:53Z</time>
      </trkpt>
      <trkpt lat="46.19151" lon="2.41837">
        <ele>346</ele>
        <time>2018-04-12T14:20:56Z</time>
      </trkpt>
      <trkpt lat="46.1915" lon="2.41842">
        <ele>345</ele>
        <time>2018-04-12T14:20:59Z</time>
      </trkpt>
      <trkpt lat="46.19149" lon="2.41847">
        <ele>345</ele>
        <time>2018-04-12T14:21:02Z</time>
      </trkpt>
      <trkpt lat="46.19146" lon="2.41852">
        <ele>345</ele>
        <time>2018-04-12T14:21:05Z</time>
      </trkpt>
      <trkpt lat="46.19143" lon="2.41856">
        <ele>344</ele>
        <time>2018-04-12T14:21:08Z</time>
      </trkpt>
      <trkpt lat="46.19141" lon="2.41861">
        <ele>344</ele>
        <time>2018-04-12T14:21:11Z</time>
      </trkpt>
      <trkpt lat="46.19138" lon="2.41866">
        <ele>344</ele>
        <time>2018-04-12T14:21:14Z</time>
      </trkpt>
      <trkpt lat="46.19136" lon="2.41872">
        <ele>344</ele>
        <time>2018-04-12T14:21:17Z</time>
      </trkpt>
      <trkpt lat="46.19134" lon="2.41876">
        <ele>343</ele>
        <time>2018-04-12T14:21:20Z</time>
      </trkpt>
      <trkpt lat="46.19132" lon="2.4188">
        <ele>343</ele>
        <time>2018-04-12T14:21:23Z</time>
      </trkpt>
      <trkpt lat="46.19128" lon="2.41887">
        <ele>343</ele>
        <time>2018-04-12T14:21:27Z</time>
      </trkpt>
      <trkpt lat="46.19126" lon="2.41891">
        <ele>343</ele>
        <time>2018-04-12T14:21:30Z</time>
      </trkpt>
      <trkpt lat="46.19123" lon="2.41896">
        <ele>342</ele>
        <time>2018-04-12T14:21:34Z</time>
      </trkpt>
      <trkpt lat="46.1912" lon="2.41901">
        <ele>342</ele>
        <time>2018-04-12T14:21:37Z</time>
      </trkpt>
      <trkpt lat="46.19117" lon="2.41905">
        <ele>342</ele>
        <time>2018-04-12T14:21:40Z</time>
      </trkpt>
      <trkpt lat="46.19115" lon="2.41909">
        <ele>341</ele>
        <time>2018-04-12T14:21:43Z</time>
      </trkpt>
      <trkpt lat="46.19113" lon="2.41914">
        <ele>341</ele>
        <time>2018-04-12T14:21:46Z</time>
      </trkpt>
      <trkpt lat="46.19111" lon="2.41918">
        <ele>338</ele>
        <time>2018-04-12T14:21:49Z</time>
      </trkpt>
      <trkpt lat="46.19109" lon="2.41922">
        <ele>338</ele>
        <time>2018-04-12T14:21:52Z</time>
      </trkpt>
      <trkpt lat="46.19106" lon="2.41927">
        <ele>338</ele>
        <time>2018-04-12T14:21:56Z</time>
      </trkpt>
      <trkpt lat="46.19102" lon="2.41931">
        <ele>338</ele>
        <time>2018-04-12T14:22:00Z</time>
      </trkpt>
      <trkpt lat="46.19098" lon="2.41935">
        <ele>337</ele>
        <time>2018-04-12T14:22:03Z</time>
      </trkpt>
      <trkpt lat="46.19095" lon="2.41939">
        <ele>337</ele>
        <time>2018-04-12T14:22:06Z</time>
      </trkpt>
      <trkpt lat="46.19091" lon="2.41943">
        <ele>337</ele>
        <time>2018-04-12T14:22:10Z</time>
      </trkpt>
      <trkpt lat="46.19088" lon="2.41947">
        <ele>337</ele>
        <time>2018-04-12T14:22:13Z</time>
      </trkpt>
      <trkpt lat="46.19083" lon="2.41953">
        <ele>337</ele>
        <time>2018-04-12T14:22:17Z</time>
      </trkpt>
      <trkpt lat="46.19079" lon="2.41957">
        <ele>333</ele>
        <time>2018-04-12T14:22:21Z</time>
      </trkpt>
      <trkpt lat="46.19076" lon="2.41961">
        <ele>333</ele>
        <time>2018-04-12T14:22:24Z</time>
      </trkpt>
      <trkpt lat="46.19074" lon="2.41965">
        <ele>333</ele>
        <time>2018-04-12T14:22:27Z</time>
      </trkpt>
      <trkpt lat="46.19071" lon="2.41972">
        <ele>332</ele>
        <time>2018-04-12T14:22:31Z</time>
      </trkpt>
      <trkpt lat="46.19069" lon="2.41976">
        <ele>332</ele>
        <time>2018-04-12T14:22:34Z</time>
      </trkpt>
      <trkpt lat="46.19066" lon="2.41982">
        <ele>332</ele>
        <time>2018-04-12T14:22:37Z</time>
      </trkpt>
      <trkpt lat="46.19063" lon="2.41986">
        <ele>332</ele>
        <time>2018-04-12T14:22:40Z</time>
      </trkpt>
      <trkpt lat="46.19061" lon="2.41991">
        <ele>332</ele>
        <time>2018-04-12T14:22:43Z</time>
      </trkpt>
      <trkpt lat="46.19059" lon="2.41995">
        <ele>332</ele>
        <time>2018-04-12T14:22:46Z</time>
      </trkpt>
      <trkpt lat="46.19058" lon="2.42">
        <ele>330</ele>
        <time>2018-04-12T14:22:49Z</time>
      </trkpt>
      <trkpt lat="46.19054" lon="2.42007">
        <ele>330</ele>
        <time>2018-04-12T14:22:53Z</time>
      </trkpt>
      <trkpt lat="46.19052" lon="2.42013">
        <ele>330</ele>
        <time>2018-04-12T14:22:56Z</time>
      </trkpt>
      <trkpt lat="46.1905" lon="2.4202">
        <ele>330</ele>
        <time>2018-04-12T14:22:59Z</time>
      </trkpt>
      <trkpt lat="46.19048" lon="2.42025">
        <ele>330</ele>
        <time>2018-04-12T14:23:02Z</time>
      </trkpt>
      <trkpt lat="46.19045" lon="2.42032">
        <ele>330</ele>
        <time>2018-04-12T14:23:05Z</time>
      </trkpt>
      <trkpt lat="46.19043" lon="2.42038">
        <ele>330</ele>
        <time>2018-04-12T14:23:08Z</time>
      </trkpt>
      <trkpt lat="46.19042" lon="2.42043">
        <ele>330</ele>
        <time>2018-04-12T14:23:11Z</time>
      </trkpt>
      <trkpt lat="46.19041" lon="2.42049">
        <ele>330</ele>
        <time>2018-04-12T14:23:14Z</time>
      </trkpt>
      <trkpt lat="46.1904" lon="2.42055">
        <ele>330</ele>
        <time>2018-04-12T14:23:17Z</time>
      </trkpt>
      <trkpt lat="46.19038" lon="2.42061">
        <ele>330</ele>
        <time>2018-04-12T14:23:20Z</time>
      </trkpt>
      <trkpt lat="46.19037" lon="2.42067">
        <ele>330</ele>
        <time>2018-04-12T14:23:23Z</time>
      </trkpt>
      <trkpt lat="46.19037" lon="2.42074">
        <ele>329</ele>
        <time>2018-04-12T14:23:26Z</time>
      </trkpt>
      <trkpt lat="46.19036" lon="2.4208">
        <ele>329</ele>
        <time>2018-04-12T14:23:29Z</time>
      </trkpt>
      <trkpt lat="46.19035" lon="2.42087">
        <ele>329</ele>
        <time>2018-04-12T14:23:32Z</time>
      </trkpt>
      <trkpt lat="46.19034" lon="2.42093">
        <ele>329</ele>
        <time>2018-04-12T14:23:35Z</time>
      </trkpt>
      <trkpt lat="46.19032" lon="2.42098">
        <ele>329</ele>
        <time>2018-04-12T14:23:38Z</time>
      </trkpt>
      <trkpt lat="46.1903" lon="2.42102">
        <ele>329</ele>
        <time>2018-04-12T14:23:41Z</time>
      </trkpt>
      <trkpt lat="46.1903" lon="2.42104">
        <ele>329</ele>
        <time>2018-04-12T14:23:48Z</time>
      </trkpt>
      <trkpt lat="46.19029" lon="2.42109">
        <ele>329</ele>
        <time>2018-04-12T14:23:51Z</time>
      </trkpt>
      <trkpt lat="46.19028" lon="2.42115">
        <ele>329</ele>
        <time>2018-04-12T14:23:54Z</time>
      </trkpt>
      <trkpt lat="46.19027" lon="2.42121">
        <ele>330</ele>
        <time>2018-04-12T14:23:57Z</time>
      </trkpt>
      <trkpt lat="46.19026" lon="2.42126">
        <ele>330</ele>
        <time>2018-04-12T14:24:00Z</time>
      </trkpt>
      <trkpt lat="46.19026" lon="2.42131">
        <ele>330</ele>
        <time>2018-04-12T14:24:03Z</time>
      </trkpt>
      <trkpt lat="46.19027" lon="2.42136">
        <ele>330</ele>
        <time>2018-04-12T14:24:06Z</time>
      </trkpt>
      <trkpt lat="46.19026" lon="2.42141">
        <ele>330</ele>
        <time>2018-04-12T14:24:09Z</time>
      </trkpt>
      <trkpt lat="46.19026" lon="2.42145">
        <ele>330</ele>
        <time>2018-04-12T14:24:12Z</time>
      </trkpt>
      <trkpt lat="46.19026" lon="2.42151">
        <ele>330</ele>
        <time>2018-04-12T14:24:15Z</time>
      </trkpt>
      <trkpt lat="46.19025" lon="2.42156">
        <ele>330</ele>
        <time>2018-04-12T14:24:18Z</time>
      </trkpt>
      <trkpt lat="46.19024" lon="2.42161">
        <ele>330</ele>
        <time>2018-04-12T14:24:21Z</time>
      </trkpt>
      <trkpt lat="46.19023" lon="2.42167">
        <ele>331</ele>
        <time>2018-04-12T14:24:24Z</time>
      </trkpt>
      <trkpt lat="46.1902" lon="2.42173">
        <ele>331</ele>
        <time>2018-04-12T14:24:28Z</time>
      </trkpt>
      <trkpt lat="46.19019" lon="2.42178">
        <ele>331</ele>
        <time>2018-04-12T14:24:31Z</time>
      </trkpt>
      <trkpt lat="46.19018" lon="2.42184">
        <ele>331</ele>
        <time>2018-04-12T14:24:34Z</time>
      </trkpt>
      <trkpt lat="46.19019" lon="2.4219">
        <ele>331</ele>
        <time>2018-04-12T14:24:37Z</time>
      </trkpt>
      <trkpt lat="46.19019" lon="2.42196">
        <ele>331</ele>
        <time>2018-04-12T14:24:40Z</time>
      </trkpt>
      <trkpt lat="46.19021" lon="2.42202">
        <ele>331</ele>
        <time>2018-04-12T14:24:43Z</time>
      </trkpt>
      <trkpt lat="46.19021" lon="2.42208">
        <ele>331</ele>
        <time>2018-04-12T14:24:46Z</time>
      </trkpt>
      <trkpt lat="46.19022" lon="2.42215">
        <ele>331</ele>
        <time>2018-04-12T14:24:49Z</time>
      </trkpt>
      <trkpt lat="46.19023" lon="2.42222">
        <ele>331</ele>
        <time>2018-04-12T14:24:52Z</time>
      </trkpt>
      <trkpt lat="46.19022" lon="2.42228">
        <ele>331</ele>
        <time>2018-04-12T14:24:55Z</time>
      </trkpt>
      <trkpt lat="46.19024" lon="2.42235">
        <ele>331</ele>
        <time>2018-04-12T14:24:59Z</time>
      </trkpt>
      <trkpt lat="46.19022" lon="2.42241">
        <ele>331</ele>
        <time>2018-04-12T14:25:02Z</time>
      </trkpt>
      <trkpt lat="46.19022" lon="2.42247">
        <ele>331</ele>
        <time>2018-04-12T14:25:05Z</time>
      </trkpt>
      <trkpt lat="46.19024" lon="2.42253">
        <ele>332</ele>
        <time>2018-04-12T14:25:08Z</time>
      </trkpt>
      <trkpt lat="46.19025" lon="2.42258">
        <ele>332</ele>
        <time>2018-04-12T14:25:11Z</time>
      </trkpt>
      <trkpt lat="46.19026" lon="2.42264">
        <ele>332</ele>
        <time>2018-04-12T14:25:14Z</time>
      </trkpt>
      <trkpt lat="46.19026" lon="2.42271">
        <ele>332</ele>
        <time>2018-04-12T14:25:17Z</time>
      </trkpt>
      <trkpt lat="46.19025" lon="2.42277">
        <ele>332</ele>
        <time>2018-04-12T14:25:20Z</time>
      </trkpt>
      <trkpt lat="46.19025" lon="2.42282">
        <ele>333</ele>
        <time>2018-04-12T14:25:23Z</time>
      </trkpt>
      <trkpt lat="46.19024" lon="2.42288">
        <ele>333</ele>
        <time>2018-04-12T14:25:26Z</time>
      </trkpt>
      <trkpt lat="46.19023" lon="2.42294">
        <ele>333</ele>
        <time>2018-04-12T14:25:29Z</time>
      </trkpt>
      <trkpt lat="46.19023" lon="2.42299">
        <ele>333</ele>
        <time>2018-04-12T14:25:32Z</time>
      </trkpt>
      <trkpt lat="46.19023" lon="2.42305">
        <ele>333</ele>
        <time>2018-04-12T14:25:35Z</time>
      </trkpt>
      <trkpt lat="46.19022" lon="2.42311">
        <ele>333</ele>
        <time>2018-04-12T14:25:38Z</time>
      </trkpt>
      <trkpt lat="46.19022" lon="2.42317">
        <ele>333</ele>
        <time>2018-04-12T14:25:41Z</time>
      </trkpt>
      <trkpt lat="46.19021" lon="2.42324">
        <ele>333</ele>
        <time>2018-04-12T14:25:44Z</time>
      </trkpt>
      <trkpt lat="46.1902" lon="2.42329">
        <ele>333</ele>
        <time>2018-04-12T14:25:47Z</time>
      </trkpt>
      <trkpt lat="46.19018" lon="2.42334">
        <ele>334</ele>
        <time>2018-04-12T14:25:50Z</time>
      </trkpt>
      <trkpt lat="46.19017" lon="2.42339">
        <ele>334</ele>
        <time>2018-04-12T14:25:53Z</time>
      </trkpt>
      <trkpt lat="46.19015" lon="2.42345">
        <ele>335</ele>
        <time>2018-04-12T14:25:56Z</time>
      </trkpt>
      <trkpt lat="46.19015" lon="2.42351">
        <ele>335</ele>
        <time>2018-04-12T14:25:59Z</time>
      </trkpt>
      <trkpt lat="46.19014" lon="2.42356">
        <ele>335</ele>
        <time>2018-04-12T14:26:02Z</time>
      </trkpt>
      <trkpt lat="46.19012" lon="2.42361">
        <ele>335</ele>
        <time>2018-04-12T14:26:05Z</time>
      </trkpt>
      <trkpt lat="46.1901" lon="2.42367">
        <ele>335</ele>
        <time>2018-04-12T14:26:09Z</time>
      </trkpt>
      <trkpt lat="46.19008" lon="2.42372">
        <ele>336</ele>
        <time>2018-04-12T14:26:12Z</time>
      </trkpt>
      <trkpt lat="46.19005" lon="2.42377">
        <ele>336</ele>
        <time>2018-04-12T14:26:15Z</time>
      </trkpt>
      <trkpt lat="46.19002" lon="2.42384">
        <ele>336</ele>
        <time>2018-04-12T14:26:19Z</time>
      </trkpt>
      <trkpt lat="46.19001" lon="2.4239">
        <ele>336</ele>
        <time>2018-04-12T14:26:23Z</time>
      </trkpt>
      <trkpt lat="46.18998" lon="2.42395">
        <ele>333</ele>
        <time>2018-04-12T14:26:26Z</time>
      </trkpt>
      <trkpt lat="46.18996" lon="2.424">
        <ele>333</ele>
        <time>2018-04-12T14:26:29Z</time>
      </trkpt>
      <trkpt lat="46.18994" lon="2.42405">
        <ele>333</ele>
        <time>2018-04-12T14:26:32Z</time>
      </trkpt>
      <trkpt lat="46.18993" lon="2.42411">
        <ele>334</ele>
        <time>2018-04-12T14:26:35Z</time>
      </trkpt>
      <trkpt lat="46.18991" lon="2.42418">
        <ele>334</ele>
        <time>2018-04-12T14:26:38Z</time>
      </trkpt>
      <trkpt lat="46.18989" lon="2.42424">
        <ele>334</ele>
        <time>2018-04-12T14:26:41Z</time>
      </trkpt>
      <trkpt lat="46.18987" lon="2.42429">
        <ele>334</ele>
        <time>2018-04-12T14:26:44Z</time>
      </trkpt>
      <trkpt lat="46.18987" lon="2.42433">
        <ele>334</ele>
        <time>2018-04-12T14:26:47Z</time>
      </trkpt>
      <trkpt lat="46.18985" lon="2.42439">
        <ele>334</ele>
        <time>2018-04-12T14:26:50Z</time>
      </trkpt>
      <trkpt lat="46.18983" lon="2.42444">
        <ele>334</ele>
        <time>2018-04-12T14:26:53Z</time>
      </trkpt>
      <trkpt lat="46.1898" lon="2.4245">
        <ele>334</ele>
        <time>2018-04-12T14:26:56Z</time>
      </trkpt>
      <trkpt lat="46.18978" lon="2.42456">
        <ele>334</ele>
        <time>2018-04-12T14:26:59Z</time>
      </trkpt>
      <trkpt lat="46.18976" lon="2.42461">
        <ele>334</ele>
        <time>2018-04-12T14:27:02Z</time>
      </trkpt>
      <trkpt lat="46.18973" lon="2.42467">
        <ele>334</ele>
        <time>2018-04-12T14:27:05Z</time>
      </trkpt>
      <trkpt lat="46.18971" lon="2.42471">
        <ele>334</ele>
        <time>2018-04-12T14:27:08Z</time>
      </trkpt>
      <trkpt lat="46.18967" lon="2.42477">
        <ele>334</ele>
        <time>2018-04-12T14:27:11Z</time>
      </trkpt>
      <trkpt lat="46.18965" lon="2.42482">
        <ele>334</ele>
        <time>2018-04-12T14:27:14Z</time>
      </trkpt>
      <trkpt lat="46.18961" lon="2.42487">
        <ele>334</ele>
        <time>2018-04-12T14:27:17Z</time>
      </trkpt>
      <trkpt lat="46.18959" lon="2.42491">
        <ele>334</ele>
        <time>2018-04-12T14:27:20Z</time>
      </trkpt>
      <trkpt lat="46.18958" lon="2.42497">
        <ele>334</ele>
        <time>2018-04-12T14:27:23Z</time>
      </trkpt>
      <trkpt lat="46.18956" lon="2.42502">
        <ele>335</ele>
        <time>2018-04-12T14:27:26Z</time>
      </trkpt>
      <trkpt lat="46.18954" lon="2.42508">
        <ele>335</ele>
        <time>2018-04-12T14:27:29Z</time>
      </trkpt>
      <trkpt lat="46.18952" lon="2.42512">
        <ele>335</ele>
        <time>2018-04-12T14:27:32Z</time>
      </trkpt>
      <trkpt lat="46.18951" lon="2.42519">
        <ele>335</ele>
        <time>2018-04-12T14:27:35Z</time>
      </trkpt>
      <trkpt lat="46.18949" lon="2.42525">
        <ele>335</ele>
        <time>2018-04-12T14:27:39Z</time>
      </trkpt>
      <trkpt lat="46.18946" lon="2.42529">
        <ele>335</ele>
        <time>2018-04-12T14:27:43Z</time>
      </trkpt>
      <trkpt lat="46.1894" lon="2.42528">
        <ele>335</ele>
        <time>2018-04-12T14:27:46Z</time>
      </trkpt>
      <trkpt lat="46.18935" lon="2.42527">
        <ele>335</ele>
        <time>2018-04-12T14:27:49Z</time>
      </trkpt>
      <trkpt lat="46.18931" lon="2.42524">
        <ele>334</ele>
        <time>2018-04-12T14:27:52Z</time>
      </trkpt>
      <trkpt lat="46.18926" lon="2.42522">
        <ele>334</ele>
        <time>2018-04-12T14:27:56Z</time>
      </trkpt>
      <trkpt lat="46.1892" lon="2.42517">
        <ele>334</ele>
        <time>2018-04-12T14:28:00Z</time>
      </trkpt>
      <trkpt lat="46.18915" lon="2.42513">
        <ele>332</ele>
        <time>2018-04-12T14:28:05Z</time>
      </trkpt>
      <trkpt lat="46.18911" lon="2.42511">
        <ele>332</ele>
        <time>2018-04-12T14:28:08Z</time>
      </trkpt>
      <trkpt lat="46.18909" lon="2.42506">
        <ele>332</ele>
        <time>2018-04-12T14:28:11Z</time>
      </trkpt>
      <trkpt lat="46.18906" lon="2.42505">
        <ele>332</ele>
        <time>2018-04-12T14:28:15Z</time>
      </trkpt>
      <trkpt lat="46.18902" lon="2.42504">
        <ele>332</ele>
        <time>2018-04-12T14:28:19Z</time>
      </trkpt>
      <trkpt lat="46.18898" lon="2.42504">
        <ele>332</ele>
        <time>2018-04-12T14:28:23Z</time>
      </trkpt>
      <trkpt lat="46.18897" lon="2.42506">
        <ele>332</ele>
        <time>2018-04-12T14:28:29Z</time>
      </trkpt>
      <trkpt lat="46.18895" lon="2.42508">
        <ele>332</ele>
        <time>2018-04-12T14:28:34Z</time>
      </trkpt>
      <trkpt lat="46.18893" lon="2.42509">
        <ele>332</ele>
        <time>2018-04-12T14:28:37Z</time>
      </trkpt>
      <trkpt lat="46.18892" lon="2.42509">
        <ele>332</ele>
        <time>2018-04-12T14:28:44Z</time>
      </trkpt>
      <trkpt lat="46.18892" lon="2.42511">
        <ele>332</ele>
        <time>2018-04-12T14:28:50Z</time>
      </trkpt>
      <trkpt lat="46.18892" lon="2.42512">
        <ele>332</ele>
        <time>2018-04-12T14:28:53Z</time>
      </trkpt>
      <trkpt lat="46.18892" lon="2.42511">
        <ele>332</ele>
        <time>2018-04-12T14:29:07Z</time>
      </trkpt>
      <trkpt lat="46.18891" lon="2.4251">
        <ele>332</ele>
        <time>2018-04-12T14:29:19Z</time>
      </trkpt>
      <trkpt lat="46.18893" lon="2.42509">
        <ele>332</ele>
        <time>2018-04-12T14:29:37Z</time>
      </trkpt>
      <trkpt lat="46.18894" lon="2.42512">
        <ele>332</ele>
        <time>2018-04-12T14:29:42Z</time>
      </trkpt>
      <trkpt lat="46.18895" lon="2.4251">
        <ele>332</ele>
        <time>2018-04-12T14:29:46Z</time>
      </trkpt>
      <trkpt lat="46.18895" lon="2.42511">
        <ele>332</ele>
        <time>2018-04-12T14:30:26Z</time>
      </trkpt>
      <trkpt lat="46.18895" lon="2.4251">
        <ele>332</ele>
        <time>2018-04-12T14:30:31Z</time>
      </trkpt>
      <trkpt lat="46.18895" lon="2.42508">
        <ele>332</ele>
        <time>2018-04-12T14:30:37Z</time>
      </trkpt>
      <trkpt lat="46.18895" lon="2.42508">
        <ele>332</ele>
        <time>2018-04-12T14:30:39Z</time>
      </trkpt>
    </trkseg>
  </trk>
</gpx>